<?xml version="1.0" encoding="UTF-8" standalone="no" ?>
<gpx xmlns="http://www.topografix.com/GPX/1/1" xmlns:xsi="http://www.w3.org/2001/XMLSchema-instance" xsi:schemaLocation="http://www.topografix.com/GPX/1/1 http://www.topografix.com/GPX/1/1/gpx.xsd" version="1.1" creator="VisuGPX - https://www.visugpx.com">
  <metadata>
    <name>La Chatelaine,La Roche du Feu,Les Planches en Arbois,Le Fer a Cheval</name>
  </metadata>
  <trk>
    <name><![CDATA[La Chatelaine,La Roche du Feu,Les Planches en Arbois,Le Fer a Cheval_1]]></name>
    <trkseg>
      <trkpt lat="46.86679" lon="5.8099">
        <ele>529.2</ele>
        <time>2021-03-23T12:35:00Z</time>
      </trkpt>
      <trkpt lat="46.86674" lon="5.80991">
        <ele>523.4</ele>
        <time>2021-03-23T12:35:20Z</time>
      </trkpt>
      <trkpt lat="46.86678" lon="5.80989">
        <ele>520.1</ele>
        <time>2021-03-23T12:36:01Z</time>
      </trkpt>
      <trkpt lat="46.86682" lon="5.80984">
        <ele>520.3</ele>
        <time>2021-03-23T12:36:06Z</time>
      </trkpt>
      <trkpt lat="46.86687" lon="5.80977">
        <ele>520.2</ele>
        <time>2021-03-23T12:36:10Z</time>
      </trkpt>
      <trkpt lat="46.86691" lon="5.80974">
        <ele>520.7</ele>
        <time>2021-03-23T12:36:14Z</time>
      </trkpt>
      <trkpt lat="46.86696" lon="5.80973">
        <ele>522.6</ele>
        <time>2021-03-23T12:36:20Z</time>
      </trkpt>
      <trkpt lat="46.86701" lon="5.80973">
        <ele>525.7</ele>
        <time>2021-03-23T12:36:24Z</time>
      </trkpt>
      <trkpt lat="46.86706" lon="5.80972">
        <ele>530.2</ele>
        <time>2021-03-23T12:36:29Z</time>
      </trkpt>
      <trkpt lat="46.8671" lon="5.80968">
        <ele>534</ele>
        <time>2021-03-23T12:36:37Z</time>
      </trkpt>
      <trkpt lat="46.86714" lon="5.8097">
        <ele>534.8</ele>
        <time>2021-03-23T12:36:46Z</time>
      </trkpt>
      <trkpt lat="46.86718" lon="5.80974">
        <ele>534.3</ele>
        <time>2021-03-23T12:36:53Z</time>
      </trkpt>
      <trkpt lat="46.86723" lon="5.80971">
        <ele>534</ele>
        <time>2021-03-23T12:37:16Z</time>
      </trkpt>
      <trkpt lat="46.86728" lon="5.80969">
        <ele>534.2</ele>
        <time>2021-03-23T12:37:21Z</time>
      </trkpt>
      <trkpt lat="46.86733" lon="5.80971">
        <ele>534.6</ele>
        <time>2021-03-23T12:37:26Z</time>
      </trkpt>
      <trkpt lat="46.86738" lon="5.80972">
        <ele>534.9</ele>
        <time>2021-03-23T12:37:30Z</time>
      </trkpt>
      <trkpt lat="46.86743" lon="5.80971">
        <ele>535.1</ele>
        <time>2021-03-23T12:37:36Z</time>
      </trkpt>
      <trkpt lat="46.86748" lon="5.8097">
        <ele>534.6</ele>
        <time>2021-03-23T12:37:42Z</time>
      </trkpt>
      <trkpt lat="46.86752" lon="5.80967">
        <ele>534.2</ele>
        <time>2021-03-23T12:37:50Z</time>
      </trkpt>
      <trkpt lat="46.86758" lon="5.80966">
        <ele>534.2</ele>
        <time>2021-03-23T12:37:55Z</time>
      </trkpt>
      <trkpt lat="46.86762" lon="5.80965">
        <ele>534.4</ele>
        <time>2021-03-23T12:38:01Z</time>
      </trkpt>
      <trkpt lat="46.86767" lon="5.80963">
        <ele>534.8</ele>
        <time>2021-03-23T12:38:06Z</time>
      </trkpt>
      <trkpt lat="46.86771" lon="5.8096">
        <ele>535.3</ele>
        <time>2021-03-23T12:38:10Z</time>
      </trkpt>
      <trkpt lat="46.86776" lon="5.80956">
        <ele>536.2</ele>
        <time>2021-03-23T12:38:14Z</time>
      </trkpt>
      <trkpt lat="46.8678" lon="5.80952">
        <ele>537.4</ele>
        <time>2021-03-23T12:38:18Z</time>
      </trkpt>
      <trkpt lat="46.86784" lon="5.80947">
        <ele>538.6</ele>
        <time>2021-03-23T12:38:23Z</time>
      </trkpt>
      <trkpt lat="46.86788" lon="5.80942">
        <ele>540.2</ele>
        <time>2021-03-23T12:38:28Z</time>
      </trkpt>
      <trkpt lat="46.86792" lon="5.80947">
        <ele>544.3</ele>
        <time>2021-03-23T12:39:06Z</time>
      </trkpt>
      <trkpt lat="46.86793" lon="5.80953">
        <ele>544.2</ele>
        <time>2021-03-23T12:39:10Z</time>
      </trkpt>
      <trkpt lat="46.86795" lon="5.80959">
        <ele>543.7</ele>
        <time>2021-03-23T12:39:17Z</time>
      </trkpt>
      <trkpt lat="46.86796" lon="5.80966">
        <ele>543.3</ele>
        <time>2021-03-23T12:39:25Z</time>
      </trkpt>
      <trkpt lat="46.86795" lon="5.80973">
        <ele>540.5</ele>
        <time>2021-03-23T12:39:41Z</time>
      </trkpt>
      <trkpt lat="46.86796" lon="5.8098">
        <ele>538.8</ele>
        <time>2021-03-23T12:39:46Z</time>
      </trkpt>
      <trkpt lat="46.86796" lon="5.80987">
        <ele>537.1</ele>
        <time>2021-03-23T12:39:51Z</time>
      </trkpt>
      <trkpt lat="46.86795" lon="5.80993">
        <ele>536.1</ele>
        <time>2021-03-23T12:39:56Z</time>
      </trkpt>
      <trkpt lat="46.86795" lon="5.81">
        <ele>537.4</ele>
        <time>2021-03-23T12:40:00Z</time>
      </trkpt>
      <trkpt lat="46.86797" lon="5.81008">
        <ele>539.3</ele>
        <time>2021-03-23T12:40:06Z</time>
      </trkpt>
      <trkpt lat="46.868" lon="5.81013">
        <ele>539.8</ele>
        <time>2021-03-23T12:40:13Z</time>
      </trkpt>
      <trkpt lat="46.86804" lon="5.81018">
        <ele>539.7</ele>
        <time>2021-03-23T12:40:19Z</time>
      </trkpt>
      <trkpt lat="46.86808" lon="5.81022">
        <ele>541</ele>
        <time>2021-03-23T12:40:28Z</time>
      </trkpt>
      <trkpt lat="46.86813" lon="5.81024">
        <ele>542.1</ele>
        <time>2021-03-23T12:40:34Z</time>
      </trkpt>
      <trkpt lat="46.86816" lon="5.8103">
        <ele>542.7</ele>
        <time>2021-03-23T12:40:42Z</time>
      </trkpt>
      <trkpt lat="46.86818" lon="5.81036">
        <ele>541.7</ele>
        <time>2021-03-23T12:40:49Z</time>
      </trkpt>
      <trkpt lat="46.86821" lon="5.81041">
        <ele>539.5</ele>
        <time>2021-03-23T12:40:59Z</time>
      </trkpt>
      <trkpt lat="46.86821" lon="5.81048">
        <ele>538.5</ele>
        <time>2021-03-23T12:41:06Z</time>
      </trkpt>
      <trkpt lat="46.86822" lon="5.81055">
        <ele>538</ele>
        <time>2021-03-23T12:41:12Z</time>
      </trkpt>
      <trkpt lat="46.86825" lon="5.81061">
        <ele>537.7</ele>
        <time>2021-03-23T12:41:17Z</time>
      </trkpt>
      <trkpt lat="46.86829" lon="5.81066">
        <ele>537.5</ele>
        <time>2021-03-23T12:41:22Z</time>
      </trkpt>
      <trkpt lat="46.86833" lon="5.8107">
        <ele>537.3</ele>
        <time>2021-03-23T12:41:28Z</time>
      </trkpt>
      <trkpt lat="46.86837" lon="5.81074">
        <ele>537.1</ele>
        <time>2021-03-23T12:41:34Z</time>
      </trkpt>
      <trkpt lat="46.86841" lon="5.81078">
        <ele>537.1</ele>
        <time>2021-03-23T12:41:39Z</time>
      </trkpt>
      <trkpt lat="46.86845" lon="5.81081">
        <ele>537</ele>
        <time>2021-03-23T12:41:45Z</time>
      </trkpt>
      <trkpt lat="46.86849" lon="5.81084">
        <ele>536.6</ele>
        <time>2021-03-23T12:41:54Z</time>
      </trkpt>
      <trkpt lat="46.86853" lon="5.81088">
        <ele>536.2</ele>
        <time>2021-03-23T12:42:01Z</time>
      </trkpt>
      <trkpt lat="46.86857" lon="5.81093">
        <ele>535.7</ele>
        <time>2021-03-23T12:42:07Z</time>
      </trkpt>
      <trkpt lat="46.86859" lon="5.81099">
        <ele>535.3</ele>
        <time>2021-03-23T12:42:12Z</time>
      </trkpt>
      <trkpt lat="46.8686" lon="5.81106">
        <ele>533.9</ele>
        <time>2021-03-23T12:42:16Z</time>
      </trkpt>
      <trkpt lat="46.86862" lon="5.81115">
        <ele>531.5</ele>
        <time>2021-03-23T12:42:20Z</time>
      </trkpt>
      <trkpt lat="46.86865" lon="5.81121">
        <ele>529.5</ele>
        <time>2021-03-23T12:42:25Z</time>
      </trkpt>
      <trkpt lat="46.86867" lon="5.81127">
        <ele>527.9</ele>
        <time>2021-03-23T12:42:32Z</time>
      </trkpt>
      <trkpt lat="46.86869" lon="5.81134">
        <ele>526.8</ele>
        <time>2021-03-23T12:42:41Z</time>
      </trkpt>
      <trkpt lat="46.86873" lon="5.81138">
        <ele>526.3</ele>
        <time>2021-03-23T12:42:47Z</time>
      </trkpt>
      <trkpt lat="46.86875" lon="5.81144">
        <ele>526</ele>
        <time>2021-03-23T12:42:53Z</time>
      </trkpt>
      <trkpt lat="46.86879" lon="5.8115">
        <ele>525.9</ele>
        <time>2021-03-23T12:43:00Z</time>
      </trkpt>
      <trkpt lat="46.86884" lon="5.81152">
        <ele>526.3</ele>
        <time>2021-03-23T12:43:05Z</time>
      </trkpt>
      <trkpt lat="46.8689" lon="5.81151">
        <ele>526.7</ele>
        <time>2021-03-23T12:43:09Z</time>
      </trkpt>
      <trkpt lat="46.86896" lon="5.8115">
        <ele>527.6</ele>
        <time>2021-03-23T12:43:13Z</time>
      </trkpt>
      <trkpt lat="46.86901" lon="5.81148">
        <ele>528.7</ele>
        <time>2021-03-23T12:43:17Z</time>
      </trkpt>
      <trkpt lat="46.86906" lon="5.8115">
        <ele>530.3</ele>
        <time>2021-03-23T12:43:23Z</time>
      </trkpt>
      <trkpt lat="46.86911" lon="5.81151">
        <ele>531.2</ele>
        <time>2021-03-23T12:43:28Z</time>
      </trkpt>
      <trkpt lat="46.86916" lon="5.81151">
        <ele>532.6</ele>
        <time>2021-03-23T12:43:33Z</time>
      </trkpt>
      <trkpt lat="46.86921" lon="5.81151">
        <ele>534.3</ele>
        <time>2021-03-23T12:43:40Z</time>
      </trkpt>
      <trkpt lat="46.86926" lon="5.81152">
        <ele>535.4</ele>
        <time>2021-03-23T12:43:46Z</time>
      </trkpt>
      <trkpt lat="46.8693" lon="5.81155">
        <ele>536.6</ele>
        <time>2021-03-23T12:43:51Z</time>
      </trkpt>
      <trkpt lat="46.86936" lon="5.81157">
        <ele>537.9</ele>
        <time>2021-03-23T12:43:57Z</time>
      </trkpt>
      <trkpt lat="46.8694" lon="5.81157">
        <ele>538.8</ele>
        <time>2021-03-23T12:44:02Z</time>
      </trkpt>
      <trkpt lat="46.86945" lon="5.81158">
        <ele>540</ele>
        <time>2021-03-23T12:44:08Z</time>
      </trkpt>
      <trkpt lat="46.8695" lon="5.81159">
        <ele>541.3</ele>
        <time>2021-03-23T12:44:14Z</time>
      </trkpt>
      <trkpt lat="46.86954" lon="5.81159">
        <ele>542.6</ele>
        <time>2021-03-23T12:44:20Z</time>
      </trkpt>
      <trkpt lat="46.86959" lon="5.81162">
        <ele>543.4</ele>
        <time>2021-03-23T12:44:26Z</time>
      </trkpt>
      <trkpt lat="46.86964" lon="5.81163">
        <ele>544.2</ele>
        <time>2021-03-23T12:44:32Z</time>
      </trkpt>
      <trkpt lat="46.86969" lon="5.81163">
        <ele>544.9</ele>
        <time>2021-03-23T12:44:37Z</time>
      </trkpt>
      <trkpt lat="46.86974" lon="5.81163">
        <ele>545.8</ele>
        <time>2021-03-23T12:44:42Z</time>
      </trkpt>
      <trkpt lat="46.86979" lon="5.81161">
        <ele>546.8</ele>
        <time>2021-03-23T12:44:48Z</time>
      </trkpt>
      <trkpt lat="46.86984" lon="5.81161">
        <ele>547.4</ele>
        <time>2021-03-23T12:44:55Z</time>
      </trkpt>
      <trkpt lat="46.86989" lon="5.81162">
        <ele>547.9</ele>
        <time>2021-03-23T12:45:00Z</time>
      </trkpt>
      <trkpt lat="46.86994" lon="5.81163">
        <ele>548.4</ele>
        <time>2021-03-23T12:45:06Z</time>
      </trkpt>
      <trkpt lat="46.86999" lon="5.81162">
        <ele>548.8</ele>
        <time>2021-03-23T12:45:13Z</time>
      </trkpt>
      <trkpt lat="46.87004" lon="5.81161">
        <ele>548.8</ele>
        <time>2021-03-23T12:45:19Z</time>
      </trkpt>
      <trkpt lat="46.87008" lon="5.8116">
        <ele>548.9</ele>
        <time>2021-03-23T12:45:24Z</time>
      </trkpt>
      <trkpt lat="46.87013" lon="5.8116">
        <ele>549</ele>
        <time>2021-03-23T12:45:30Z</time>
      </trkpt>
      <trkpt lat="46.87018" lon="5.81161">
        <ele>549.1</ele>
        <time>2021-03-23T12:45:36Z</time>
      </trkpt>
      <trkpt lat="46.87024" lon="5.8116">
        <ele>549.4</ele>
        <time>2021-03-23T12:45:42Z</time>
      </trkpt>
      <trkpt lat="46.87028" lon="5.81161">
        <ele>549.6</ele>
        <time>2021-03-23T12:45:49Z</time>
      </trkpt>
      <trkpt lat="46.87033" lon="5.8116">
        <ele>549.5</ele>
        <time>2021-03-23T12:45:57Z</time>
      </trkpt>
      <trkpt lat="46.87038" lon="5.81159">
        <ele>549.9</ele>
        <time>2021-03-23T12:46:04Z</time>
      </trkpt>
      <trkpt lat="46.87043" lon="5.81156">
        <ele>550.2</ele>
        <time>2021-03-23T12:46:09Z</time>
      </trkpt>
      <trkpt lat="46.87048" lon="5.81153">
        <ele>550.6</ele>
        <time>2021-03-23T12:46:14Z</time>
      </trkpt>
      <trkpt lat="46.87052" lon="5.8115">
        <ele>551.2</ele>
        <time>2021-03-23T12:46:19Z</time>
      </trkpt>
      <trkpt lat="46.87057" lon="5.81149">
        <ele>551.7</ele>
        <time>2021-03-23T12:46:26Z</time>
      </trkpt>
      <trkpt lat="46.87062" lon="5.81146">
        <ele>552.3</ele>
        <time>2021-03-23T12:46:32Z</time>
      </trkpt>
      <trkpt lat="46.87067" lon="5.81144">
        <ele>552.9</ele>
        <time>2021-03-23T12:46:38Z</time>
      </trkpt>
      <trkpt lat="46.87072" lon="5.81143">
        <ele>553.2</ele>
        <time>2021-03-23T12:46:44Z</time>
      </trkpt>
      <trkpt lat="46.87077" lon="5.8114">
        <ele>553.8</ele>
        <time>2021-03-23T12:46:50Z</time>
      </trkpt>
      <trkpt lat="46.87082" lon="5.81137">
        <ele>554.3</ele>
        <time>2021-03-23T12:46:56Z</time>
      </trkpt>
      <trkpt lat="46.87086" lon="5.81137">
        <ele>554.8</ele>
        <time>2021-03-23T12:47:02Z</time>
      </trkpt>
      <trkpt lat="46.87091" lon="5.81136">
        <ele>555.7</ele>
        <time>2021-03-23T12:47:10Z</time>
      </trkpt>
      <trkpt lat="46.87096" lon="5.81137">
        <ele>555.9</ele>
        <time>2021-03-23T12:47:15Z</time>
      </trkpt>
      <trkpt lat="46.871" lon="5.8114">
        <ele>555.9</ele>
        <time>2021-03-23T12:47:20Z</time>
      </trkpt>
      <trkpt lat="46.87104" lon="5.81141">
        <ele>556.2</ele>
        <time>2021-03-23T12:47:25Z</time>
      </trkpt>
      <trkpt lat="46.87109" lon="5.81143">
        <ele>557.1</ele>
        <time>2021-03-23T12:47:31Z</time>
      </trkpt>
      <trkpt lat="46.87114" lon="5.81146">
        <ele>557.8</ele>
        <time>2021-03-23T12:47:38Z</time>
      </trkpt>
      <trkpt lat="46.87118" lon="5.81148">
        <ele>558.2</ele>
        <time>2021-03-23T12:47:46Z</time>
      </trkpt>
      <trkpt lat="46.87123" lon="5.81151">
        <ele>558.3</ele>
        <time>2021-03-23T12:47:52Z</time>
      </trkpt>
      <trkpt lat="46.87127" lon="5.81154">
        <ele>558.4</ele>
        <time>2021-03-23T12:47:59Z</time>
      </trkpt>
      <trkpt lat="46.87132" lon="5.81157">
        <ele>558.8</ele>
        <time>2021-03-23T12:48:04Z</time>
      </trkpt>
      <trkpt lat="46.87137" lon="5.81159">
        <ele>559.6</ele>
        <time>2021-03-23T12:48:10Z</time>
      </trkpt>
      <trkpt lat="46.87141" lon="5.81158">
        <ele>561.4</ele>
        <time>2021-03-23T12:48:24Z</time>
      </trkpt>
      <trkpt lat="46.87146" lon="5.81158">
        <ele>562.4</ele>
        <time>2021-03-23T12:48:29Z</time>
      </trkpt>
      <trkpt lat="46.87151" lon="5.81159">
        <ele>563.1</ele>
        <time>2021-03-23T12:48:36Z</time>
      </trkpt>
      <trkpt lat="46.87156" lon="5.81159">
        <ele>563.4</ele>
        <time>2021-03-23T12:48:43Z</time>
      </trkpt>
      <trkpt lat="46.8716" lon="5.81162">
        <ele>563.4</ele>
        <time>2021-03-23T12:48:52Z</time>
      </trkpt>
      <trkpt lat="46.87165" lon="5.81163">
        <ele>563.5</ele>
        <time>2021-03-23T12:49:00Z</time>
      </trkpt>
      <trkpt lat="46.8717" lon="5.81162">
        <ele>563.5</ele>
        <time>2021-03-23T12:49:07Z</time>
      </trkpt>
      <trkpt lat="46.87175" lon="5.8116">
        <ele>563.6</ele>
        <time>2021-03-23T12:49:12Z</time>
      </trkpt>
      <trkpt lat="46.8718" lon="5.81157">
        <ele>563.8</ele>
        <time>2021-03-23T12:49:17Z</time>
      </trkpt>
      <trkpt lat="46.87184" lon="5.81155">
        <ele>564.2</ele>
        <time>2021-03-23T12:49:22Z</time>
      </trkpt>
      <trkpt lat="46.87189" lon="5.81154">
        <ele>564.7</ele>
        <time>2021-03-23T12:49:27Z</time>
      </trkpt>
      <trkpt lat="46.87194" lon="5.81154">
        <ele>565.4</ele>
        <time>2021-03-23T12:49:33Z</time>
      </trkpt>
      <trkpt lat="46.87199" lon="5.81153">
        <ele>566.1</ele>
        <time>2021-03-23T12:49:39Z</time>
      </trkpt>
      <trkpt lat="46.87203" lon="5.81149">
        <ele>566.4</ele>
        <time>2021-03-23T12:49:45Z</time>
      </trkpt>
      <trkpt lat="46.87206" lon="5.81145">
        <ele>566</ele>
        <time>2021-03-23T12:50:05Z</time>
      </trkpt>
      <trkpt lat="46.87211" lon="5.81142">
        <ele>566.2</ele>
        <time>2021-03-23T12:50:13Z</time>
      </trkpt>
      <trkpt lat="46.87216" lon="5.8114">
        <ele>566.4</ele>
        <time>2021-03-23T12:50:19Z</time>
      </trkpt>
      <trkpt lat="46.8722" lon="5.81137">
        <ele>567</ele>
        <time>2021-03-23T12:50:25Z</time>
      </trkpt>
      <trkpt lat="46.87216" lon="5.81132">
        <ele>568.5</ele>
        <time>2021-03-23T12:50:57Z</time>
      </trkpt>
      <trkpt lat="46.87215" lon="5.81126">
        <ele>569.7</ele>
        <time>2021-03-23T12:52:35Z</time>
      </trkpt>
      <trkpt lat="46.87208" lon="5.81127">
        <ele>576.4</ele>
        <time>2021-03-23T12:53:14Z</time>
      </trkpt>
      <trkpt lat="46.87212" lon="5.81129">
        <ele>583.6</ele>
        <time>2021-03-23T12:53:32Z</time>
      </trkpt>
      <trkpt lat="46.87215" lon="5.81135">
        <ele>579.2</ele>
        <time>2021-03-23T12:53:36Z</time>
      </trkpt>
      <trkpt lat="46.87216" lon="5.81142">
        <ele>574.3</ele>
        <time>2021-03-23T12:53:42Z</time>
      </trkpt>
      <trkpt lat="46.87219" lon="5.81147">
        <ele>570.5</ele>
        <time>2021-03-23T12:53:52Z</time>
      </trkpt>
      <trkpt lat="46.87223" lon="5.8115">
        <ele>569.5</ele>
        <time>2021-03-23T12:54:00Z</time>
      </trkpt>
      <trkpt lat="46.87226" lon="5.81157">
        <ele>569</ele>
        <time>2021-03-23T12:54:09Z</time>
      </trkpt>
      <trkpt lat="46.8723" lon="5.81161">
        <ele>568.9</ele>
        <time>2021-03-23T12:54:18Z</time>
      </trkpt>
      <trkpt lat="46.87235" lon="5.81165">
        <ele>569.3</ele>
        <time>2021-03-23T12:54:23Z</time>
      </trkpt>
      <trkpt lat="46.87239" lon="5.81171">
        <ele>570</ele>
        <time>2021-03-23T12:54:27Z</time>
      </trkpt>
      <trkpt lat="46.87244" lon="5.81174">
        <ele>570.7</ele>
        <time>2021-03-23T12:54:31Z</time>
      </trkpt>
      <trkpt lat="46.87249" lon="5.81176">
        <ele>571.2</ele>
        <time>2021-03-23T12:54:35Z</time>
      </trkpt>
      <trkpt lat="46.87254" lon="5.81179">
        <ele>571.1</ele>
        <time>2021-03-23T12:54:39Z</time>
      </trkpt>
      <trkpt lat="46.87258" lon="5.81182">
        <ele>571.2</ele>
        <time>2021-03-23T12:54:44Z</time>
      </trkpt>
      <trkpt lat="46.87261" lon="5.81187">
        <ele>571</ele>
        <time>2021-03-23T12:54:49Z</time>
      </trkpt>
      <trkpt lat="46.87266" lon="5.81191">
        <ele>570.2</ele>
        <time>2021-03-23T12:54:54Z</time>
      </trkpt>
      <trkpt lat="46.8727" lon="5.81195">
        <ele>569.5</ele>
        <time>2021-03-23T12:54:59Z</time>
      </trkpt>
      <trkpt lat="46.87274" lon="5.81198">
        <ele>568.8</ele>
        <time>2021-03-23T12:55:04Z</time>
      </trkpt>
      <trkpt lat="46.87279" lon="5.81202">
        <ele>569</ele>
        <time>2021-03-23T12:55:11Z</time>
      </trkpt>
      <trkpt lat="46.87284" lon="5.81203">
        <ele>570.1</ele>
        <time>2021-03-23T12:55:17Z</time>
      </trkpt>
      <trkpt lat="46.87288" lon="5.81206">
        <ele>571</ele>
        <time>2021-03-23T12:55:23Z</time>
      </trkpt>
      <trkpt lat="46.87293" lon="5.81209">
        <ele>571.5</ele>
        <time>2021-03-23T12:55:29Z</time>
      </trkpt>
      <trkpt lat="46.87297" lon="5.81214">
        <ele>571.5</ele>
        <time>2021-03-23T12:55:35Z</time>
      </trkpt>
      <trkpt lat="46.87299" lon="5.81221">
        <ele>571.4</ele>
        <time>2021-03-23T12:55:40Z</time>
      </trkpt>
      <trkpt lat="46.87302" lon="5.81228">
        <ele>571.4</ele>
        <time>2021-03-23T12:55:45Z</time>
      </trkpt>
      <trkpt lat="46.87304" lon="5.81235">
        <ele>571.1</ele>
        <time>2021-03-23T12:55:50Z</time>
      </trkpt>
      <trkpt lat="46.87306" lon="5.81242">
        <ele>571</ele>
        <time>2021-03-23T12:55:55Z</time>
      </trkpt>
      <trkpt lat="46.87308" lon="5.81248">
        <ele>570.8</ele>
        <time>2021-03-23T12:56:00Z</time>
      </trkpt>
      <trkpt lat="46.8731" lon="5.81255">
        <ele>570.2</ele>
        <time>2021-03-23T12:56:05Z</time>
      </trkpt>
      <trkpt lat="46.87312" lon="5.81262">
        <ele>569.7</ele>
        <time>2021-03-23T12:56:10Z</time>
      </trkpt>
      <trkpt lat="46.87316" lon="5.81269">
        <ele>569.6</ele>
        <time>2021-03-23T12:56:15Z</time>
      </trkpt>
      <trkpt lat="46.87318" lon="5.81275">
        <ele>569.4</ele>
        <time>2021-03-23T12:56:19Z</time>
      </trkpt>
      <trkpt lat="46.87321" lon="5.8128">
        <ele>569.3</ele>
        <time>2021-03-23T12:56:23Z</time>
      </trkpt>
      <trkpt lat="46.87325" lon="5.81285">
        <ele>569.1</ele>
        <time>2021-03-23T12:56:28Z</time>
      </trkpt>
      <trkpt lat="46.87328" lon="5.8129">
        <ele>568.9</ele>
        <time>2021-03-23T12:56:32Z</time>
      </trkpt>
      <trkpt lat="46.87331" lon="5.81296">
        <ele>568.8</ele>
        <time>2021-03-23T12:56:36Z</time>
      </trkpt>
      <trkpt lat="46.87334" lon="5.81302">
        <ele>568.2</ele>
        <time>2021-03-23T12:56:41Z</time>
      </trkpt>
      <trkpt lat="46.87337" lon="5.81308">
        <ele>568</ele>
        <time>2021-03-23T12:56:46Z</time>
      </trkpt>
      <trkpt lat="46.8734" lon="5.81314">
        <ele>568</ele>
        <time>2021-03-23T12:56:51Z</time>
      </trkpt>
      <trkpt lat="46.87344" lon="5.8132">
        <ele>567.6</ele>
        <time>2021-03-23T12:56:56Z</time>
      </trkpt>
      <trkpt lat="46.87348" lon="5.81324">
        <ele>567.8</ele>
        <time>2021-03-23T12:57:01Z</time>
      </trkpt>
      <trkpt lat="46.87352" lon="5.81329">
        <ele>568.6</ele>
        <time>2021-03-23T12:57:07Z</time>
      </trkpt>
      <trkpt lat="46.87356" lon="5.81334">
        <ele>569.4</ele>
        <time>2021-03-23T12:57:12Z</time>
      </trkpt>
      <trkpt lat="46.8736" lon="5.81339">
        <ele>570</ele>
        <time>2021-03-23T12:57:17Z</time>
      </trkpt>
      <trkpt lat="46.87363" lon="5.81343">
        <ele>570.5</ele>
        <time>2021-03-23T12:57:22Z</time>
      </trkpt>
      <trkpt lat="46.87367" lon="5.8135">
        <ele>569.9</ele>
        <time>2021-03-23T12:57:35Z</time>
      </trkpt>
      <trkpt lat="46.8737" lon="5.81354">
        <ele>569.3</ele>
        <time>2021-03-23T12:57:39Z</time>
      </trkpt>
      <trkpt lat="46.87374" lon="5.81359">
        <ele>568.5</ele>
        <time>2021-03-23T12:57:44Z</time>
      </trkpt>
      <trkpt lat="46.87377" lon="5.81364">
        <ele>567.8</ele>
        <time>2021-03-23T12:57:49Z</time>
      </trkpt>
      <trkpt lat="46.8738" lon="5.8137">
        <ele>566.8</ele>
        <time>2021-03-23T12:57:54Z</time>
      </trkpt>
      <trkpt lat="46.87383" lon="5.81376">
        <ele>565.6</ele>
        <time>2021-03-23T12:58:00Z</time>
      </trkpt>
      <trkpt lat="46.87387" lon="5.8138">
        <ele>565.2</ele>
        <time>2021-03-23T12:58:15Z</time>
      </trkpt>
      <trkpt lat="46.87391" lon="5.81383">
        <ele>565.2</ele>
        <time>2021-03-23T12:58:21Z</time>
      </trkpt>
      <trkpt lat="46.87396" lon="5.81383">
        <ele>565.2</ele>
        <time>2021-03-23T12:58:34Z</time>
      </trkpt>
      <trkpt lat="46.87401" lon="5.81385">
        <ele>565.5</ele>
        <time>2021-03-23T12:58:40Z</time>
      </trkpt>
      <trkpt lat="46.87406" lon="5.81387">
        <ele>565.8</ele>
        <time>2021-03-23T12:58:44Z</time>
      </trkpt>
      <trkpt lat="46.8741" lon="5.81389">
        <ele>566.1</ele>
        <time>2021-03-23T12:58:48Z</time>
      </trkpt>
      <trkpt lat="46.87415" lon="5.8139">
        <ele>566.4</ele>
        <time>2021-03-23T12:58:53Z</time>
      </trkpt>
      <trkpt lat="46.8742" lon="5.81392">
        <ele>566.7</ele>
        <time>2021-03-23T12:58:58Z</time>
      </trkpt>
      <trkpt lat="46.87425" lon="5.81394">
        <ele>567</ele>
        <time>2021-03-23T12:59:02Z</time>
      </trkpt>
      <trkpt lat="46.87429" lon="5.81397">
        <ele>567.6</ele>
        <time>2021-03-23T12:59:07Z</time>
      </trkpt>
      <trkpt lat="46.87433" lon="5.81401">
        <ele>568</ele>
        <time>2021-03-23T12:59:12Z</time>
      </trkpt>
      <trkpt lat="46.87438" lon="5.81405">
        <ele>567.8</ele>
        <time>2021-03-23T12:59:19Z</time>
      </trkpt>
      <trkpt lat="46.87442" lon="5.81408">
        <ele>567.5</ele>
        <time>2021-03-23T12:59:25Z</time>
      </trkpt>
      <trkpt lat="46.87446" lon="5.81411">
        <ele>567.1</ele>
        <time>2021-03-23T12:59:32Z</time>
      </trkpt>
      <trkpt lat="46.87451" lon="5.81413">
        <ele>566.8</ele>
        <time>2021-03-23T12:59:38Z</time>
      </trkpt>
      <trkpt lat="46.87456" lon="5.81415">
        <ele>566.8</ele>
        <time>2021-03-23T12:59:42Z</time>
      </trkpt>
      <trkpt lat="46.87461" lon="5.81417">
        <ele>566.6</ele>
        <time>2021-03-23T12:59:46Z</time>
      </trkpt>
      <trkpt lat="46.87466" lon="5.81417">
        <ele>566.1</ele>
        <time>2021-03-23T12:59:50Z</time>
      </trkpt>
      <trkpt lat="46.87471" lon="5.81418">
        <ele>565.5</ele>
        <time>2021-03-23T12:59:55Z</time>
      </trkpt>
      <trkpt lat="46.87476" lon="5.8142">
        <ele>565</ele>
        <time>2021-03-23T13:00:01Z</time>
      </trkpt>
      <trkpt lat="46.87481" lon="5.81422">
        <ele>564.5</ele>
        <time>2021-03-23T13:00:06Z</time>
      </trkpt>
      <trkpt lat="46.87486" lon="5.81423">
        <ele>564.1</ele>
        <time>2021-03-23T13:00:11Z</time>
      </trkpt>
      <trkpt lat="46.87491" lon="5.81424">
        <ele>563.9</ele>
        <time>2021-03-23T13:00:16Z</time>
      </trkpt>
      <trkpt lat="46.87496" lon="5.81426">
        <ele>564.2</ele>
        <time>2021-03-23T13:00:22Z</time>
      </trkpt>
      <trkpt lat="46.875" lon="5.81425">
        <ele>564</ele>
        <time>2021-03-23T13:00:27Z</time>
      </trkpt>
      <trkpt lat="46.87505" lon="5.81424">
        <ele>563.7</ele>
        <time>2021-03-23T13:00:33Z</time>
      </trkpt>
      <trkpt lat="46.8751" lon="5.81423">
        <ele>563.5</ele>
        <time>2021-03-23T13:00:39Z</time>
      </trkpt>
      <trkpt lat="46.87515" lon="5.81422">
        <ele>563.4</ele>
        <time>2021-03-23T13:00:44Z</time>
      </trkpt>
      <trkpt lat="46.8752" lon="5.81421">
        <ele>563.7</ele>
        <time>2021-03-23T13:00:50Z</time>
      </trkpt>
      <trkpt lat="46.87525" lon="5.81418">
        <ele>564</ele>
        <time>2021-03-23T13:00:56Z</time>
      </trkpt>
      <trkpt lat="46.87529" lon="5.81416">
        <ele>564</ele>
        <time>2021-03-23T13:01:01Z</time>
      </trkpt>
      <trkpt lat="46.87534" lon="5.81413">
        <ele>563.9</ele>
        <time>2021-03-23T13:01:07Z</time>
      </trkpt>
      <trkpt lat="46.87539" lon="5.81412">
        <ele>563.5</ele>
        <time>2021-03-23T13:01:12Z</time>
      </trkpt>
      <trkpt lat="46.87544" lon="5.81412">
        <ele>563.3</ele>
        <time>2021-03-23T13:01:16Z</time>
      </trkpt>
      <trkpt lat="46.87549" lon="5.81415">
        <ele>562.9</ele>
        <time>2021-03-23T13:01:21Z</time>
      </trkpt>
      <trkpt lat="46.87553" lon="5.81418">
        <ele>562.3</ele>
        <time>2021-03-23T13:01:26Z</time>
      </trkpt>
      <trkpt lat="46.87557" lon="5.81422">
        <ele>561.7</ele>
        <time>2021-03-23T13:01:30Z</time>
      </trkpt>
      <trkpt lat="46.87561" lon="5.81426">
        <ele>560.8</ele>
        <time>2021-03-23T13:01:35Z</time>
      </trkpt>
      <trkpt lat="46.87565" lon="5.8143">
        <ele>559.9</ele>
        <time>2021-03-23T13:01:40Z</time>
      </trkpt>
      <trkpt lat="46.87569" lon="5.81435">
        <ele>559.2</ele>
        <time>2021-03-23T13:01:45Z</time>
      </trkpt>
      <trkpt lat="46.87572" lon="5.81441">
        <ele>558.5</ele>
        <time>2021-03-23T13:01:50Z</time>
      </trkpt>
      <trkpt lat="46.87574" lon="5.81448">
        <ele>558</ele>
        <time>2021-03-23T13:01:57Z</time>
      </trkpt>
      <trkpt lat="46.87576" lon="5.81454">
        <ele>558</ele>
        <time>2021-03-23T13:02:03Z</time>
      </trkpt>
      <trkpt lat="46.87579" lon="5.8146">
        <ele>558</ele>
        <time>2021-03-23T13:02:08Z</time>
      </trkpt>
      <trkpt lat="46.87582" lon="5.81464">
        <ele>558</ele>
        <time>2021-03-23T13:02:13Z</time>
      </trkpt>
      <trkpt lat="46.87586" lon="5.81469">
        <ele>558</ele>
        <time>2021-03-23T13:02:19Z</time>
      </trkpt>
      <trkpt lat="46.87589" lon="5.81474">
        <ele>558.3</ele>
        <time>2021-03-23T13:02:25Z</time>
      </trkpt>
      <trkpt lat="46.87591" lon="5.8148">
        <ele>558.5</ele>
        <time>2021-03-23T13:02:30Z</time>
      </trkpt>
      <trkpt lat="46.87593" lon="5.81487">
        <ele>559.1</ele>
        <time>2021-03-23T13:02:37Z</time>
      </trkpt>
      <trkpt lat="46.87596" lon="5.81493">
        <ele>559.4</ele>
        <time>2021-03-23T13:02:41Z</time>
      </trkpt>
      <trkpt lat="46.87598" lon="5.815">
        <ele>559.6</ele>
        <time>2021-03-23T13:02:47Z</time>
      </trkpt>
      <trkpt lat="46.87598" lon="5.81506">
        <ele>559.5</ele>
        <time>2021-03-23T13:02:53Z</time>
      </trkpt>
      <trkpt lat="46.87597" lon="5.81513">
        <ele>560.1</ele>
        <time>2021-03-23T13:02:58Z</time>
      </trkpt>
      <trkpt lat="46.87597" lon="5.81521">
        <ele>560.9</ele>
        <time>2021-03-23T13:03:03Z</time>
      </trkpt>
      <trkpt lat="46.87601" lon="5.81528">
        <ele>561.2</ele>
        <time>2021-03-23T13:03:07Z</time>
      </trkpt>
      <trkpt lat="46.87602" lon="5.81535">
        <ele>561.2</ele>
        <time>2021-03-23T13:03:12Z</time>
      </trkpt>
      <trkpt lat="46.87603" lon="5.81542">
        <ele>560.8</ele>
        <time>2021-03-23T13:03:21Z</time>
      </trkpt>
      <trkpt lat="46.87605" lon="5.81549">
        <ele>560.3</ele>
        <time>2021-03-23T13:03:28Z</time>
      </trkpt>
      <trkpt lat="46.87608" lon="5.81557">
        <ele>559.8</ele>
        <time>2021-03-23T13:03:32Z</time>
      </trkpt>
      <trkpt lat="46.87612" lon="5.81562">
        <ele>559.2</ele>
        <time>2021-03-23T13:03:36Z</time>
      </trkpt>
      <trkpt lat="46.87615" lon="5.81567">
        <ele>558.5</ele>
        <time>2021-03-23T13:03:42Z</time>
      </trkpt>
      <trkpt lat="46.87621" lon="5.81568">
        <ele>558.4</ele>
        <time>2021-03-23T13:03:47Z</time>
      </trkpt>
      <trkpt lat="46.87625" lon="5.81569">
        <ele>558.4</ele>
        <time>2021-03-23T13:03:51Z</time>
      </trkpt>
      <trkpt lat="46.8763" lon="5.81573">
        <ele>557.8</ele>
        <time>2021-03-23T13:04:12Z</time>
      </trkpt>
      <trkpt lat="46.87634" lon="5.81576">
        <ele>557.9</ele>
        <time>2021-03-23T13:04:19Z</time>
      </trkpt>
      <trkpt lat="46.87639" lon="5.81578">
        <ele>556.2</ele>
        <time>2021-03-23T13:06:21Z</time>
      </trkpt>
      <trkpt lat="46.87644" lon="5.81578">
        <ele>555.7</ele>
        <time>2021-03-23T13:06:25Z</time>
      </trkpt>
      <trkpt lat="46.8765" lon="5.81579">
        <ele>555.7</ele>
        <time>2021-03-23T13:06:29Z</time>
      </trkpt>
      <trkpt lat="46.87654" lon="5.81581">
        <ele>556.4</ele>
        <time>2021-03-23T13:06:33Z</time>
      </trkpt>
      <trkpt lat="46.8766" lon="5.81584">
        <ele>557.1</ele>
        <time>2021-03-23T13:06:38Z</time>
      </trkpt>
      <trkpt lat="46.87664" lon="5.81587">
        <ele>557.9</ele>
        <time>2021-03-23T13:06:53Z</time>
      </trkpt>
      <trkpt lat="46.87666" lon="5.81594">
        <ele>556.6</ele>
        <time>2021-03-23T13:07:06Z</time>
      </trkpt>
      <trkpt lat="46.87669" lon="5.81599">
        <ele>555.3</ele>
        <time>2021-03-23T13:07:15Z</time>
      </trkpt>
      <trkpt lat="46.87674" lon="5.81603">
        <ele>554.6</ele>
        <time>2021-03-23T13:07:19Z</time>
      </trkpt>
      <trkpt lat="46.87678" lon="5.81607">
        <ele>553.4</ele>
        <time>2021-03-23T13:07:23Z</time>
      </trkpt>
      <trkpt lat="46.87682" lon="5.81609">
        <ele>552.2</ele>
        <time>2021-03-23T13:07:27Z</time>
      </trkpt>
      <trkpt lat="46.87687" lon="5.81612">
        <ele>551.5</ele>
        <time>2021-03-23T13:07:31Z</time>
      </trkpt>
      <trkpt lat="46.87692" lon="5.81616">
        <ele>550.8</ele>
        <time>2021-03-23T13:07:35Z</time>
      </trkpt>
      <trkpt lat="46.87696" lon="5.81621">
        <ele>550.8</ele>
        <time>2021-03-23T13:07:39Z</time>
      </trkpt>
      <trkpt lat="46.877" lon="5.81626">
        <ele>551.2</ele>
        <time>2021-03-23T13:07:44Z</time>
      </trkpt>
      <trkpt lat="46.87704" lon="5.8163">
        <ele>551.1</ele>
        <time>2021-03-23T13:07:48Z</time>
      </trkpt>
      <trkpt lat="46.87708" lon="5.81634">
        <ele>550.4</ele>
        <time>2021-03-23T13:07:52Z</time>
      </trkpt>
      <trkpt lat="46.87712" lon="5.81639">
        <ele>549.6</ele>
        <time>2021-03-23T13:07:57Z</time>
      </trkpt>
      <trkpt lat="46.87715" lon="5.81644">
        <ele>549</ele>
        <time>2021-03-23T13:08:01Z</time>
      </trkpt>
      <trkpt lat="46.87718" lon="5.8165">
        <ele>547.9</ele>
        <time>2021-03-23T13:08:06Z</time>
      </trkpt>
      <trkpt lat="46.87722" lon="5.81654">
        <ele>547</ele>
        <time>2021-03-23T13:08:13Z</time>
      </trkpt>
      <trkpt lat="46.87726" lon="5.81659">
        <ele>542.5</ele>
        <time>2021-03-23T13:08:21Z</time>
      </trkpt>
      <trkpt lat="46.87727" lon="5.81666">
        <ele>540.2</ele>
        <time>2021-03-23T13:08:35Z</time>
      </trkpt>
      <trkpt lat="46.87729" lon="5.8166">
        <ele>540.4</ele>
        <time>2021-03-23T13:09:01Z</time>
      </trkpt>
      <trkpt lat="46.87734" lon="5.81657">
        <ele>539.5</ele>
        <time>2021-03-23T13:09:07Z</time>
      </trkpt>
      <trkpt lat="46.87739" lon="5.81656">
        <ele>538.9</ele>
        <time>2021-03-23T13:09:13Z</time>
      </trkpt>
      <trkpt lat="46.87744" lon="5.81657">
        <ele>539.4</ele>
        <time>2021-03-23T13:09:17Z</time>
      </trkpt>
      <trkpt lat="46.8775" lon="5.81661">
        <ele>540.5</ele>
        <time>2021-03-23T13:09:21Z</time>
      </trkpt>
      <trkpt lat="46.87754" lon="5.81663">
        <ele>542.8</ele>
        <time>2021-03-23T13:09:26Z</time>
      </trkpt>
      <trkpt lat="46.87759" lon="5.81663">
        <ele>545.4</ele>
        <time>2021-03-23T13:09:31Z</time>
      </trkpt>
      <trkpt lat="46.87763" lon="5.81658">
        <ele>548.4</ele>
        <time>2021-03-23T13:09:40Z</time>
      </trkpt>
      <trkpt lat="46.87768" lon="5.8166">
        <ele>548.4</ele>
        <time>2021-03-23T13:09:51Z</time>
      </trkpt>
      <trkpt lat="46.87769" lon="5.81653">
        <ele>543.9</ele>
        <time>2021-03-23T13:10:39Z</time>
      </trkpt>
      <trkpt lat="46.87773" lon="5.81649">
        <ele>538.3</ele>
        <time>2021-03-23T13:11:11Z</time>
      </trkpt>
      <trkpt lat="46.87778" lon="5.81648">
        <ele>538</ele>
        <time>2021-03-23T13:11:17Z</time>
      </trkpt>
      <trkpt lat="46.87782" lon="5.8165">
        <ele>536.8</ele>
        <time>2021-03-23T13:11:22Z</time>
      </trkpt>
      <trkpt lat="46.87787" lon="5.81653">
        <ele>532.9</ele>
        <time>2021-03-23T13:11:29Z</time>
      </trkpt>
      <trkpt lat="46.87792" lon="5.81652">
        <ele>528.4</ele>
        <time>2021-03-23T13:11:38Z</time>
      </trkpt>
      <trkpt lat="46.87795" lon="5.81646">
        <ele>525.1</ele>
        <time>2021-03-23T13:11:43Z</time>
      </trkpt>
      <trkpt lat="46.87799" lon="5.81642">
        <ele>522.5</ele>
        <time>2021-03-23T13:11:47Z</time>
      </trkpt>
      <trkpt lat="46.87803" lon="5.81638">
        <ele>520.2</ele>
        <time>2021-03-23T13:11:51Z</time>
      </trkpt>
      <trkpt lat="46.87807" lon="5.81634">
        <ele>517.8</ele>
        <time>2021-03-23T13:11:58Z</time>
      </trkpt>
      <trkpt lat="46.87808" lon="5.81626">
        <ele>517.1</ele>
        <time>2021-03-23T13:12:05Z</time>
      </trkpt>
      <trkpt lat="46.87809" lon="5.81619">
        <ele>517</ele>
        <time>2021-03-23T13:12:13Z</time>
      </trkpt>
      <trkpt lat="46.87814" lon="5.81615">
        <ele>517.9</ele>
        <time>2021-03-23T13:12:18Z</time>
      </trkpt>
      <trkpt lat="46.87817" lon="5.8161">
        <ele>519.5</ele>
        <time>2021-03-23T13:12:25Z</time>
      </trkpt>
      <trkpt lat="46.8782" lon="5.81604">
        <ele>522</ele>
        <time>2021-03-23T13:12:30Z</time>
      </trkpt>
      <trkpt lat="46.87823" lon="5.81598">
        <ele>525</ele>
        <time>2021-03-23T13:12:35Z</time>
      </trkpt>
      <trkpt lat="46.87827" lon="5.81592">
        <ele>527.2</ele>
        <time>2021-03-23T13:12:40Z</time>
      </trkpt>
      <trkpt lat="46.87829" lon="5.81587">
        <ele>528.7</ele>
        <time>2021-03-23T13:12:44Z</time>
      </trkpt>
      <trkpt lat="46.87832" lon="5.81581">
        <ele>530.4</ele>
        <time>2021-03-23T13:12:50Z</time>
      </trkpt>
      <trkpt lat="46.8783" lon="5.81574">
        <ele>533.5</ele>
        <time>2021-03-23T13:13:00Z</time>
      </trkpt>
      <trkpt lat="46.87831" lon="5.81567">
        <ele>534.7</ele>
        <time>2021-03-23T13:13:07Z</time>
      </trkpt>
      <trkpt lat="46.87834" lon="5.81561">
        <ele>535.1</ele>
        <time>2021-03-23T13:13:13Z</time>
      </trkpt>
      <trkpt lat="46.87836" lon="5.81554">
        <ele>535.1</ele>
        <time>2021-03-23T13:13:22Z</time>
      </trkpt>
      <trkpt lat="46.87831" lon="5.81553">
        <ele>534.4</ele>
        <time>2021-03-23T13:14:03Z</time>
      </trkpt>
      <trkpt lat="46.87836" lon="5.81554">
        <ele>525.3</ele>
        <time>2021-03-23T13:14:36Z</time>
      </trkpt>
      <trkpt lat="46.87836" lon="5.81569">
        <ele>522.3</ele>
        <time>2021-03-23T13:14:40Z</time>
      </trkpt>
      <trkpt lat="46.87833" lon="5.81576">
        <ele>521.4</ele>
        <time>2021-03-23T13:14:44Z</time>
      </trkpt>
      <trkpt lat="46.87834" lon="5.81563">
        <ele>524.3</ele>
        <time>2021-03-23T13:14:48Z</time>
      </trkpt>
      <trkpt lat="46.8783" lon="5.81566">
        <ele>528.1</ele>
        <time>2021-03-23T13:25:40Z</time>
      </trkpt>
      <trkpt lat="46.87828" lon="5.81577">
        <ele>527.5</ele>
        <time>2021-03-23T13:26:03Z</time>
      </trkpt>
      <trkpt lat="46.87827" lon="5.8159">
        <ele>526.7</ele>
        <time>2021-03-23T13:26:07Z</time>
      </trkpt>
      <trkpt lat="46.87825" lon="5.81599">
        <ele>526</ele>
        <time>2021-03-23T13:26:22Z</time>
      </trkpt>
      <trkpt lat="46.87822" lon="5.81607">
        <ele>526</ele>
        <time>2021-03-23T13:26:26Z</time>
      </trkpt>
      <trkpt lat="46.87818" lon="5.81615">
        <ele>525.4</ele>
        <time>2021-03-23T13:26:30Z</time>
      </trkpt>
      <trkpt lat="46.87815" lon="5.81621">
        <ele>524.7</ele>
        <time>2021-03-23T13:26:34Z</time>
      </trkpt>
      <trkpt lat="46.87818" lon="5.81628">
        <ele>522.8</ele>
        <time>2021-03-23T13:26:58Z</time>
      </trkpt>
      <trkpt lat="46.87821" lon="5.81634">
        <ele>521.7</ele>
        <time>2021-03-23T13:27:02Z</time>
      </trkpt>
      <trkpt lat="46.87827" lon="5.81643">
        <ele>521.4</ele>
        <time>2021-03-23T13:27:06Z</time>
      </trkpt>
      <trkpt lat="46.87832" lon="5.81652">
        <ele>521.2</ele>
        <time>2021-03-23T13:27:10Z</time>
      </trkpt>
      <trkpt lat="46.87837" lon="5.81657">
        <ele>520.5</ele>
        <time>2021-03-23T13:27:18Z</time>
      </trkpt>
      <trkpt lat="46.87841" lon="5.81661">
        <ele>519.7</ele>
        <time>2021-03-23T13:27:22Z</time>
      </trkpt>
      <trkpt lat="46.87846" lon="5.81664">
        <ele>518.3</ele>
        <time>2021-03-23T13:27:30Z</time>
      </trkpt>
      <trkpt lat="46.87851" lon="5.81668">
        <ele>517.2</ele>
        <time>2021-03-23T13:27:34Z</time>
      </trkpt>
      <trkpt lat="46.87856" lon="5.81674">
        <ele>516.1</ele>
        <time>2021-03-23T13:27:42Z</time>
      </trkpt>
      <trkpt lat="46.87861" lon="5.8168">
        <ele>516.1</ele>
        <time>2021-03-23T13:27:46Z</time>
      </trkpt>
      <trkpt lat="46.87868" lon="5.81686">
        <ele>516.4</ele>
        <time>2021-03-23T13:28:15Z</time>
      </trkpt>
      <trkpt lat="46.87875" lon="5.81694">
        <ele>522.4</ele>
        <time>2021-03-23T13:28:20Z</time>
      </trkpt>
      <trkpt lat="46.87882" lon="5.81701">
        <ele>528.4</ele>
        <time>2021-03-23T13:28:24Z</time>
      </trkpt>
      <trkpt lat="46.87884" lon="5.81711">
        <ele>534.5</ele>
        <time>2021-03-23T13:28:35Z</time>
      </trkpt>
      <trkpt lat="46.87886" lon="5.81723">
        <ele>532.2</ele>
        <time>2021-03-23T13:28:39Z</time>
      </trkpt>
      <trkpt lat="46.87888" lon="5.81732">
        <ele>528.2</ele>
        <time>2021-03-23T13:28:52Z</time>
      </trkpt>
      <trkpt lat="46.8789" lon="5.81738">
        <ele>526.2</ele>
        <time>2021-03-23T13:28:56Z</time>
      </trkpt>
      <trkpt lat="46.87892" lon="5.81746">
        <ele>523.8</ele>
        <time>2021-03-23T13:29:02Z</time>
      </trkpt>
      <trkpt lat="46.87898" lon="5.81755">
        <ele>520.8</ele>
        <time>2021-03-23T13:29:20Z</time>
      </trkpt>
      <trkpt lat="46.87902" lon="5.81762">
        <ele>519.8</ele>
        <time>2021-03-23T13:29:24Z</time>
      </trkpt>
      <trkpt lat="46.87905" lon="5.8177">
        <ele>518.7</ele>
        <time>2021-03-23T13:29:35Z</time>
      </trkpt>
      <trkpt lat="46.87908" lon="5.81779">
        <ele>518.7</ele>
        <time>2021-03-23T13:29:39Z</time>
      </trkpt>
      <trkpt lat="46.87913" lon="5.81785">
        <ele>518.9</ele>
        <time>2021-03-23T13:29:44Z</time>
      </trkpt>
      <trkpt lat="46.87917" lon="5.8179">
        <ele>519.2</ele>
        <time>2021-03-23T13:29:48Z</time>
      </trkpt>
      <trkpt lat="46.87921" lon="5.81795">
        <ele>520.5</ele>
        <time>2021-03-23T13:30:25Z</time>
      </trkpt>
      <trkpt lat="46.87924" lon="5.81805">
        <ele>521.6</ele>
        <time>2021-03-23T13:30:29Z</time>
      </trkpt>
      <trkpt lat="46.87926" lon="5.81811">
        <ele>522.8</ele>
        <time>2021-03-23T13:30:37Z</time>
      </trkpt>
      <trkpt lat="46.8793" lon="5.81808">
        <ele>523.3</ele>
        <time>2021-03-23T13:30:47Z</time>
      </trkpt>
      <trkpt lat="46.87935" lon="5.81806">
        <ele>523.6</ele>
        <time>2021-03-23T13:30:51Z</time>
      </trkpt>
      <trkpt lat="46.87941" lon="5.81804">
        <ele>523.7</ele>
        <time>2021-03-23T13:31:04Z</time>
      </trkpt>
      <trkpt lat="46.87947" lon="5.81802">
        <ele>523.5</ele>
        <time>2021-03-23T13:31:08Z</time>
      </trkpt>
      <trkpt lat="46.87955" lon="5.81805">
        <ele>526.5</ele>
        <time>2021-03-23T13:31:13Z</time>
      </trkpt>
      <trkpt lat="46.87961" lon="5.81808">
        <ele>529.5</ele>
        <time>2021-03-23T13:31:17Z</time>
      </trkpt>
      <trkpt lat="46.87965" lon="5.81811">
        <ele>532.7</ele>
        <time>2021-03-23T13:31:29Z</time>
      </trkpt>
      <trkpt lat="46.87972" lon="5.81815">
        <ele>532.9</ele>
        <time>2021-03-23T13:31:33Z</time>
      </trkpt>
      <trkpt lat="46.87978" lon="5.81818">
        <ele>533.8</ele>
        <time>2021-03-23T13:31:45Z</time>
      </trkpt>
      <trkpt lat="46.87984" lon="5.81819">
        <ele>534.5</ele>
        <time>2021-03-23T13:31:49Z</time>
      </trkpt>
      <trkpt lat="46.87991" lon="5.81823">
        <ele>537.1</ele>
        <time>2021-03-23T13:32:18Z</time>
      </trkpt>
      <trkpt lat="46.87995" lon="5.81826">
        <ele>539</ele>
        <time>2021-03-23T13:32:22Z</time>
      </trkpt>
      <trkpt lat="46.88003" lon="5.81821">
        <ele>539.7</ele>
        <time>2021-03-23T13:32:50Z</time>
      </trkpt>
      <trkpt lat="46.88009" lon="5.81816">
        <ele>537.8</ele>
        <time>2021-03-23T13:32:54Z</time>
      </trkpt>
      <trkpt lat="46.88015" lon="5.81816">
        <ele>536.1</ele>
        <time>2021-03-23T13:33:13Z</time>
      </trkpt>
      <trkpt lat="46.8802" lon="5.81819">
        <ele>536.7</ele>
        <time>2021-03-23T13:33:17Z</time>
      </trkpt>
      <trkpt lat="46.88025" lon="5.8182">
        <ele>537.2</ele>
        <time>2021-03-23T13:33:22Z</time>
      </trkpt>
      <trkpt lat="46.88033" lon="5.81821">
        <ele>537.5</ele>
        <time>2021-03-23T13:33:35Z</time>
      </trkpt>
      <trkpt lat="46.88038" lon="5.81823">
        <ele>537.4</ele>
        <time>2021-03-23T13:33:39Z</time>
      </trkpt>
      <trkpt lat="46.88043" lon="5.81826">
        <ele>537.2</ele>
        <time>2021-03-23T13:33:43Z</time>
      </trkpt>
      <trkpt lat="46.88049" lon="5.81828">
        <ele>536.9</ele>
        <time>2021-03-23T13:33:47Z</time>
      </trkpt>
      <trkpt lat="46.88054" lon="5.81831">
        <ele>536.7</ele>
        <time>2021-03-23T13:33:51Z</time>
      </trkpt>
      <trkpt lat="46.8806" lon="5.81832">
        <ele>536.2</ele>
        <time>2021-03-23T13:34:02Z</time>
      </trkpt>
      <trkpt lat="46.88066" lon="5.81834">
        <ele>535.7</ele>
        <time>2021-03-23T13:34:06Z</time>
      </trkpt>
      <trkpt lat="46.88072" lon="5.81835">
        <ele>535.2</ele>
        <time>2021-03-23T13:34:14Z</time>
      </trkpt>
      <trkpt lat="46.88079" lon="5.81837">
        <ele>535.7</ele>
        <time>2021-03-23T13:34:18Z</time>
      </trkpt>
      <trkpt lat="46.88086" lon="5.8184">
        <ele>535.9</ele>
        <time>2021-03-23T13:34:29Z</time>
      </trkpt>
      <trkpt lat="46.88091" lon="5.81844">
        <ele>535.5</ele>
        <time>2021-03-23T13:34:33Z</time>
      </trkpt>
      <trkpt lat="46.88096" lon="5.81849">
        <ele>534.9</ele>
        <time>2021-03-23T13:34:42Z</time>
      </trkpt>
      <trkpt lat="46.88102" lon="5.81855">
        <ele>534.6</ele>
        <time>2021-03-23T13:34:46Z</time>
      </trkpt>
      <trkpt lat="46.88107" lon="5.8186">
        <ele>534.1</ele>
        <time>2021-03-23T13:34:54Z</time>
      </trkpt>
      <trkpt lat="46.88112" lon="5.81864">
        <ele>533.8</ele>
        <time>2021-03-23T13:34:58Z</time>
      </trkpt>
      <trkpt lat="46.88118" lon="5.81863">
        <ele>533.8</ele>
        <time>2021-03-23T13:35:10Z</time>
      </trkpt>
      <trkpt lat="46.88122" lon="5.81861">
        <ele>534</ele>
        <time>2021-03-23T13:35:14Z</time>
      </trkpt>
      <trkpt lat="46.88127" lon="5.81857">
        <ele>534.6</ele>
        <time>2021-03-23T13:35:24Z</time>
      </trkpt>
      <trkpt lat="46.88132" lon="5.81854">
        <ele>534.9</ele>
        <time>2021-03-23T13:35:28Z</time>
      </trkpt>
      <trkpt lat="46.88138" lon="5.81851">
        <ele>535.4</ele>
        <time>2021-03-23T13:35:38Z</time>
      </trkpt>
      <trkpt lat="46.88143" lon="5.81848">
        <ele>535.8</ele>
        <time>2021-03-23T13:35:42Z</time>
      </trkpt>
      <trkpt lat="46.88155" lon="5.81844">
        <ele>539.4</ele>
        <time>2021-03-23T13:35:56Z</time>
      </trkpt>
      <trkpt lat="46.88171" lon="5.81844">
        <ele>542.6</ele>
        <time>2021-03-23T13:36:00Z</time>
      </trkpt>
      <trkpt lat="46.88178" lon="5.81848">
        <ele>546.3</ele>
        <time>2021-03-23T13:36:11Z</time>
      </trkpt>
      <trkpt lat="46.88183" lon="5.81853">
        <ele>547.1</ele>
        <time>2021-03-23T13:36:15Z</time>
      </trkpt>
      <trkpt lat="46.88188" lon="5.81856">
        <ele>548</ele>
        <time>2021-03-23T13:36:27Z</time>
      </trkpt>
      <trkpt lat="46.88194" lon="5.81858">
        <ele>548</ele>
        <time>2021-03-23T13:36:31Z</time>
      </trkpt>
      <trkpt lat="46.882" lon="5.81858">
        <ele>548.1</ele>
        <time>2021-03-23T13:36:41Z</time>
      </trkpt>
      <trkpt lat="46.88206" lon="5.81858">
        <ele>548.3</ele>
        <time>2021-03-23T13:36:45Z</time>
      </trkpt>
      <trkpt lat="46.88212" lon="5.81858">
        <ele>548.3</ele>
        <time>2021-03-23T13:36:53Z</time>
      </trkpt>
      <trkpt lat="46.88221" lon="5.81858">
        <ele>553.8</ele>
        <time>2021-03-23T13:36:57Z</time>
      </trkpt>
      <trkpt lat="46.88227" lon="5.81858">
        <ele>561</ele>
        <time>2021-03-23T13:37:13Z</time>
      </trkpt>
      <trkpt lat="46.88233" lon="5.81857">
        <ele>563.4</ele>
        <time>2021-03-23T13:37:17Z</time>
      </trkpt>
      <trkpt lat="46.88242" lon="5.81858">
        <ele>565.7</ele>
        <time>2021-03-23T13:37:25Z</time>
      </trkpt>
      <trkpt lat="46.88251" lon="5.81859">
        <ele>566.1</ele>
        <time>2021-03-23T13:37:29Z</time>
      </trkpt>
      <trkpt lat="46.88256" lon="5.81856">
        <ele>566</ele>
        <time>2021-03-23T13:37:33Z</time>
      </trkpt>
      <trkpt lat="46.88263" lon="5.81854">
        <ele>565.1</ele>
        <time>2021-03-23T13:37:47Z</time>
      </trkpt>
      <trkpt lat="46.88269" lon="5.81854">
        <ele>564.5</ele>
        <time>2021-03-23T13:37:51Z</time>
      </trkpt>
      <trkpt lat="46.88275" lon="5.81855">
        <ele>563.7</ele>
        <time>2021-03-23T13:38:00Z</time>
      </trkpt>
      <trkpt lat="46.8828" lon="5.81856">
        <ele>563.3</ele>
        <time>2021-03-23T13:38:04Z</time>
      </trkpt>
      <trkpt lat="46.88286" lon="5.81854">
        <ele>562.9</ele>
        <time>2021-03-23T13:38:14Z</time>
      </trkpt>
      <trkpt lat="46.88291" lon="5.81852">
        <ele>562.8</ele>
        <time>2021-03-23T13:38:18Z</time>
      </trkpt>
      <trkpt lat="46.88297" lon="5.8185">
        <ele>562.7</ele>
        <time>2021-03-23T13:38:30Z</time>
      </trkpt>
      <trkpt lat="46.88303" lon="5.81849">
        <ele>562.5</ele>
        <time>2021-03-23T13:38:34Z</time>
      </trkpt>
      <trkpt lat="46.88308" lon="5.81849">
        <ele>561.9</ele>
        <time>2021-03-23T13:38:46Z</time>
      </trkpt>
      <trkpt lat="46.88314" lon="5.81849">
        <ele>561.3</ele>
        <time>2021-03-23T13:38:50Z</time>
      </trkpt>
      <trkpt lat="46.8832" lon="5.81845">
        <ele>560.3</ele>
        <time>2021-03-23T13:39:01Z</time>
      </trkpt>
      <trkpt lat="46.88339" lon="5.8184">
        <ele>563.2</ele>
        <time>2021-03-23T13:39:05Z</time>
      </trkpt>
      <trkpt lat="46.88346" lon="5.81836">
        <ele>565.8</ele>
        <time>2021-03-23T13:39:11Z</time>
      </trkpt>
      <trkpt lat="46.88351" lon="5.81832">
        <ele>567.3</ele>
        <time>2021-03-23T13:39:15Z</time>
      </trkpt>
      <trkpt lat="46.88356" lon="5.81828">
        <ele>568.7</ele>
        <time>2021-03-23T13:39:30Z</time>
      </trkpt>
      <trkpt lat="46.88361" lon="5.81824">
        <ele>568.3</ele>
        <time>2021-03-23T13:39:34Z</time>
      </trkpt>
      <trkpt lat="46.88367" lon="5.81821">
        <ele>568.1</ele>
        <time>2021-03-23T13:39:39Z</time>
      </trkpt>
      <trkpt lat="46.88374" lon="5.8182">
        <ele>568.8</ele>
        <time>2021-03-23T13:39:43Z</time>
      </trkpt>
      <trkpt lat="46.8838" lon="5.81818">
        <ele>569.3</ele>
        <time>2021-03-23T13:40:00Z</time>
      </trkpt>
      <trkpt lat="46.88387" lon="5.81813">
        <ele>569.3</ele>
        <time>2021-03-23T13:40:04Z</time>
      </trkpt>
      <trkpt lat="46.88393" lon="5.81806">
        <ele>569.3</ele>
        <time>2021-03-23T13:40:15Z</time>
      </trkpt>
      <trkpt lat="46.88397" lon="5.81799">
        <ele>569.2</ele>
        <time>2021-03-23T13:40:19Z</time>
      </trkpt>
      <trkpt lat="46.88398" lon="5.81786">
        <ele>569.6</ele>
        <time>2021-03-23T13:40:28Z</time>
      </trkpt>
      <trkpt lat="46.884" lon="5.81772">
        <ele>571.4</ele>
        <time>2021-03-23T13:40:32Z</time>
      </trkpt>
      <trkpt lat="46.884" lon="5.81762">
        <ele>573.1</ele>
        <time>2021-03-23T13:40:36Z</time>
      </trkpt>
      <trkpt lat="46.88402" lon="5.81756">
        <ele>574.2</ele>
        <time>2021-03-23T13:40:40Z</time>
      </trkpt>
      <trkpt lat="46.88405" lon="5.8175">
        <ele>575</ele>
        <time>2021-03-23T13:40:45Z</time>
      </trkpt>
      <trkpt lat="46.88406" lon="5.81743">
        <ele>575.4</ele>
        <time>2021-03-23T13:40:54Z</time>
      </trkpt>
      <trkpt lat="46.88409" lon="5.81735">
        <ele>574.8</ele>
        <time>2021-03-23T13:40:58Z</time>
      </trkpt>
      <trkpt lat="46.88414" lon="5.81728">
        <ele>574.8</ele>
        <time>2021-03-23T13:41:08Z</time>
      </trkpt>
      <trkpt lat="46.88419" lon="5.81722">
        <ele>575.1</ele>
        <time>2021-03-23T13:41:12Z</time>
      </trkpt>
      <trkpt lat="46.88422" lon="5.81715">
        <ele>572.6</ele>
        <time>2021-03-23T13:41:22Z</time>
      </trkpt>
      <trkpt lat="46.88426" lon="5.81708">
        <ele>570.4</ele>
        <time>2021-03-23T13:41:26Z</time>
      </trkpt>
      <trkpt lat="46.88431" lon="5.81703">
        <ele>567.8</ele>
        <time>2021-03-23T13:41:32Z</time>
      </trkpt>
      <trkpt lat="46.88435" lon="5.817">
        <ele>566.2</ele>
        <time>2021-03-23T13:41:36Z</time>
      </trkpt>
      <trkpt lat="46.88441" lon="5.817">
        <ele>563.5</ele>
        <time>2021-03-23T13:41:53Z</time>
      </trkpt>
      <trkpt lat="46.88446" lon="5.81702">
        <ele>562.4</ele>
        <time>2021-03-23T13:41:57Z</time>
      </trkpt>
      <trkpt lat="46.88452" lon="5.81702">
        <ele>560.7</ele>
        <time>2021-03-23T13:42:09Z</time>
      </trkpt>
      <trkpt lat="46.88457" lon="5.81703">
        <ele>559.9</ele>
        <time>2021-03-23T13:42:13Z</time>
      </trkpt>
      <trkpt lat="46.88463" lon="5.81706">
        <ele>558.6</ele>
        <time>2021-03-23T13:42:24Z</time>
      </trkpt>
      <trkpt lat="46.88468" lon="5.8171">
        <ele>557.9</ele>
        <time>2021-03-23T13:42:28Z</time>
      </trkpt>
      <trkpt lat="46.88473" lon="5.81713">
        <ele>556.9</ele>
        <time>2021-03-23T13:42:36Z</time>
      </trkpt>
      <trkpt lat="46.8848" lon="5.81716">
        <ele>556.3</ele>
        <time>2021-03-23T13:42:40Z</time>
      </trkpt>
      <trkpt lat="46.88485" lon="5.81721">
        <ele>555.5</ele>
        <time>2021-03-23T13:42:47Z</time>
      </trkpt>
      <trkpt lat="46.8849" lon="5.81725">
        <ele>554.9</ele>
        <time>2021-03-23T13:42:51Z</time>
      </trkpt>
      <trkpt lat="46.88496" lon="5.81729">
        <ele>554.1</ele>
        <time>2021-03-23T13:42:59Z</time>
      </trkpt>
      <trkpt lat="46.88502" lon="5.81734">
        <ele>553.4</ele>
        <time>2021-03-23T13:43:03Z</time>
      </trkpt>
      <trkpt lat="46.88508" lon="5.81739">
        <ele>552.3</ele>
        <time>2021-03-23T13:43:12Z</time>
      </trkpt>
      <trkpt lat="46.88513" lon="5.81745">
        <ele>551.6</ele>
        <time>2021-03-23T13:43:16Z</time>
      </trkpt>
      <trkpt lat="46.88518" lon="5.8175">
        <ele>550.5</ele>
        <time>2021-03-23T13:43:27Z</time>
      </trkpt>
      <trkpt lat="46.88523" lon="5.81754">
        <ele>550.1</ele>
        <time>2021-03-23T13:43:31Z</time>
      </trkpt>
      <trkpt lat="46.88539" lon="5.81764">
        <ele>552.5</ele>
        <time>2021-03-23T13:43:41Z</time>
      </trkpt>
      <trkpt lat="46.88556" lon="5.81776">
        <ele>556</ele>
        <time>2021-03-23T13:43:45Z</time>
      </trkpt>
      <trkpt lat="46.88564" lon="5.8178">
        <ele>560.1</ele>
        <time>2021-03-23T13:44:03Z</time>
      </trkpt>
      <trkpt lat="46.88569" lon="5.81782">
        <ele>560</ele>
        <time>2021-03-23T13:44:09Z</time>
      </trkpt>
      <trkpt lat="46.88573" lon="5.81785">
        <ele>560.7</ele>
        <time>2021-03-23T13:47:09Z</time>
      </trkpt>
      <trkpt lat="46.88577" lon="5.81789">
        <ele>561.4</ele>
        <time>2021-03-23T13:47:13Z</time>
      </trkpt>
      <trkpt lat="46.88581" lon="5.81796">
        <ele>562.1</ele>
        <time>2021-03-23T13:47:30Z</time>
      </trkpt>
      <trkpt lat="46.88583" lon="5.81802">
        <ele>561.8</ele>
        <time>2021-03-23T13:47:34Z</time>
      </trkpt>
      <trkpt lat="46.88587" lon="5.81807">
        <ele>560.9</ele>
        <time>2021-03-23T13:48:08Z</time>
      </trkpt>
      <trkpt lat="46.88591" lon="5.81812">
        <ele>560.4</ele>
        <time>2021-03-23T13:48:12Z</time>
      </trkpt>
      <trkpt lat="46.88594" lon="5.81819">
        <ele>563.3</ele>
        <time>2021-03-23T13:48:37Z</time>
      </trkpt>
      <trkpt lat="46.88596" lon="5.81825">
        <ele>566.8</ele>
        <time>2021-03-23T13:48:41Z</time>
      </trkpt>
      <trkpt lat="46.886" lon="5.81831">
        <ele>571.3</ele>
        <time>2021-03-23T13:48:56Z</time>
      </trkpt>
      <trkpt lat="46.88604" lon="5.81837">
        <ele>571.5</ele>
        <time>2021-03-23T13:49:00Z</time>
      </trkpt>
      <trkpt lat="46.88613" lon="5.81844">
        <ele>572.8</ele>
        <time>2021-03-23T13:49:10Z</time>
      </trkpt>
      <trkpt lat="46.88622" lon="5.8185">
        <ele>573.7</ele>
        <time>2021-03-23T13:49:14Z</time>
      </trkpt>
      <trkpt lat="46.88627" lon="5.81855">
        <ele>574</ele>
        <time>2021-03-23T13:49:24Z</time>
      </trkpt>
      <trkpt lat="46.88632" lon="5.81861">
        <ele>573.4</ele>
        <time>2021-03-23T13:49:28Z</time>
      </trkpt>
      <trkpt lat="46.88637" lon="5.81865">
        <ele>572.3</ele>
        <time>2021-03-23T13:49:38Z</time>
      </trkpt>
      <trkpt lat="46.88642" lon="5.81869">
        <ele>571.9</ele>
        <time>2021-03-23T13:49:42Z</time>
      </trkpt>
      <trkpt lat="46.88651" lon="5.81874">
        <ele>569.2</ele>
        <time>2021-03-23T13:49:51Z</time>
      </trkpt>
      <trkpt lat="46.8866" lon="5.81878">
        <ele>567</ele>
        <time>2021-03-23T13:49:55Z</time>
      </trkpt>
      <trkpt lat="46.88665" lon="5.81881">
        <ele>565.5</ele>
        <time>2021-03-23T13:49:59Z</time>
      </trkpt>
      <trkpt lat="46.88669" lon="5.81884">
        <ele>564.7</ele>
        <time>2021-03-23T13:50:03Z</time>
      </trkpt>
      <trkpt lat="46.88675" lon="5.81883">
        <ele>566.7</ele>
        <time>2021-03-23T13:50:07Z</time>
      </trkpt>
      <trkpt lat="46.8868" lon="5.81887">
        <ele>569.9</ele>
        <time>2021-03-23T13:50:20Z</time>
      </trkpt>
      <trkpt lat="46.88684" lon="5.81892">
        <ele>570.9</ele>
        <time>2021-03-23T13:50:24Z</time>
      </trkpt>
      <trkpt lat="46.88689" lon="5.81898">
        <ele>572</ele>
        <time>2021-03-23T13:50:35Z</time>
      </trkpt>
      <trkpt lat="46.88693" lon="5.81904">
        <ele>572.4</ele>
        <time>2021-03-23T13:50:39Z</time>
      </trkpt>
      <trkpt lat="46.88698" lon="5.81913">
        <ele>572.6</ele>
        <time>2021-03-23T13:50:48Z</time>
      </trkpt>
      <trkpt lat="46.88702" lon="5.81921">
        <ele>572.4</ele>
        <time>2021-03-23T13:50:52Z</time>
      </trkpt>
      <trkpt lat="46.88706" lon="5.81927">
        <ele>571.9</ele>
        <time>2021-03-23T13:51:01Z</time>
      </trkpt>
      <trkpt lat="46.8871" lon="5.81934">
        <ele>571.5</ele>
        <time>2021-03-23T13:51:05Z</time>
      </trkpt>
      <trkpt lat="46.88714" lon="5.81941">
        <ele>570.5</ele>
        <time>2021-03-23T13:51:14Z</time>
      </trkpt>
      <trkpt lat="46.88718" lon="5.81948">
        <ele>569.7</ele>
        <time>2021-03-23T13:51:18Z</time>
      </trkpt>
      <trkpt lat="46.88722" lon="5.81954">
        <ele>568.6</ele>
        <time>2021-03-23T13:51:25Z</time>
      </trkpt>
      <trkpt lat="46.88726" lon="5.81961">
        <ele>567.9</ele>
        <time>2021-03-23T13:51:29Z</time>
      </trkpt>
      <trkpt lat="46.88732" lon="5.81967">
        <ele>567.8</ele>
        <time>2021-03-23T13:51:35Z</time>
      </trkpt>
      <trkpt lat="46.88738" lon="5.81972">
        <ele>568</ele>
        <time>2021-03-23T13:51:39Z</time>
      </trkpt>
      <trkpt lat="46.88742" lon="5.81979">
        <ele>567.4</ele>
        <time>2021-03-23T13:51:54Z</time>
      </trkpt>
      <trkpt lat="46.88745" lon="5.81986">
        <ele>566.2</ele>
        <time>2021-03-23T13:51:58Z</time>
      </trkpt>
      <trkpt lat="46.88748" lon="5.81993">
        <ele>564.1</ele>
        <time>2021-03-23T13:52:11Z</time>
      </trkpt>
      <trkpt lat="46.88752" lon="5.82">
        <ele>562.9</ele>
        <time>2021-03-23T13:52:15Z</time>
      </trkpt>
      <trkpt lat="46.88755" lon="5.82007">
        <ele>561.4</ele>
        <time>2021-03-23T13:52:25Z</time>
      </trkpt>
      <trkpt lat="46.88765" lon="5.82024">
        <ele>561.8</ele>
        <time>2021-03-23T13:52:29Z</time>
      </trkpt>
      <trkpt lat="46.88769" lon="5.8203">
        <ele>562.3</ele>
        <time>2021-03-23T13:52:33Z</time>
      </trkpt>
      <trkpt lat="46.88771" lon="5.82037">
        <ele>562.5</ele>
        <time>2021-03-23T13:52:40Z</time>
      </trkpt>
      <trkpt lat="46.88774" lon="5.82044">
        <ele>562.3</ele>
        <time>2021-03-23T13:52:44Z</time>
      </trkpt>
      <trkpt lat="46.88777" lon="5.82051">
        <ele>561.7</ele>
        <time>2021-03-23T13:52:57Z</time>
      </trkpt>
      <trkpt lat="46.8878" lon="5.82059">
        <ele>561.4</ele>
        <time>2021-03-23T13:53:01Z</time>
      </trkpt>
      <trkpt lat="46.88787" lon="5.82074">
        <ele>560.3</ele>
        <time>2021-03-23T13:53:05Z</time>
      </trkpt>
      <trkpt lat="46.88793" lon="5.82083">
        <ele>560.2</ele>
        <time>2021-03-23T13:53:13Z</time>
      </trkpt>
      <trkpt lat="46.88801" lon="5.82091">
        <ele>561.7</ele>
        <time>2021-03-23T13:53:17Z</time>
      </trkpt>
      <trkpt lat="46.88804" lon="5.82099">
        <ele>563.1</ele>
        <time>2021-03-23T13:53:32Z</time>
      </trkpt>
      <trkpt lat="46.88806" lon="5.82107">
        <ele>563</ele>
        <time>2021-03-23T13:53:36Z</time>
      </trkpt>
      <trkpt lat="46.8881" lon="5.82113">
        <ele>562.5</ele>
        <time>2021-03-23T13:53:48Z</time>
      </trkpt>
      <trkpt lat="46.88813" lon="5.8212">
        <ele>562.1</ele>
        <time>2021-03-23T13:53:52Z</time>
      </trkpt>
      <trkpt lat="46.8882" lon="5.82133">
        <ele>562.6</ele>
        <time>2021-03-23T13:53:59Z</time>
      </trkpt>
      <trkpt lat="46.88828" lon="5.82145">
        <ele>563.3</ele>
        <time>2021-03-23T13:54:03Z</time>
      </trkpt>
      <trkpt lat="46.88831" lon="5.82154">
        <ele>564.1</ele>
        <time>2021-03-23T13:54:11Z</time>
      </trkpt>
      <trkpt lat="46.88837" lon="5.82166">
        <ele>565.4</ele>
        <time>2021-03-23T13:54:15Z</time>
      </trkpt>
      <trkpt lat="46.88839" lon="5.82172">
        <ele>566.4</ele>
        <time>2021-03-23T13:54:19Z</time>
      </trkpt>
      <trkpt lat="46.88842" lon="5.82179">
        <ele>567.4</ele>
        <time>2021-03-23T13:54:31Z</time>
      </trkpt>
      <trkpt lat="46.88845" lon="5.82187">
        <ele>567.4</ele>
        <time>2021-03-23T13:54:35Z</time>
      </trkpt>
      <trkpt lat="46.88848" lon="5.82194">
        <ele>567.2</ele>
        <time>2021-03-23T13:54:45Z</time>
      </trkpt>
      <trkpt lat="46.88852" lon="5.82201">
        <ele>567</ele>
        <time>2021-03-23T13:54:49Z</time>
      </trkpt>
      <trkpt lat="46.88856" lon="5.82209">
        <ele>566.5</ele>
        <time>2021-03-23T13:54:57Z</time>
      </trkpt>
      <trkpt lat="46.88862" lon="5.8222">
        <ele>566</ele>
        <time>2021-03-23T13:55:01Z</time>
      </trkpt>
      <trkpt lat="46.88865" lon="5.82226">
        <ele>565.4</ele>
        <time>2021-03-23T13:55:07Z</time>
      </trkpt>
      <trkpt lat="46.88868" lon="5.82233">
        <ele>564.9</ele>
        <time>2021-03-23T13:55:11Z</time>
      </trkpt>
      <trkpt lat="46.88872" lon="5.82239">
        <ele>564.3</ele>
        <time>2021-03-23T13:55:22Z</time>
      </trkpt>
      <trkpt lat="46.88876" lon="5.82246">
        <ele>564.2</ele>
        <time>2021-03-23T13:55:26Z</time>
      </trkpt>
      <trkpt lat="46.88878" lon="5.82253">
        <ele>563.8</ele>
        <time>2021-03-23T13:55:35Z</time>
      </trkpt>
      <trkpt lat="46.88885" lon="5.82268">
        <ele>563.7</ele>
        <time>2021-03-23T13:55:39Z</time>
      </trkpt>
      <trkpt lat="46.88888" lon="5.82274">
        <ele>563.4</ele>
        <time>2021-03-23T13:55:43Z</time>
      </trkpt>
      <trkpt lat="46.88892" lon="5.82282">
        <ele>563.6</ele>
        <time>2021-03-23T13:55:52Z</time>
      </trkpt>
      <trkpt lat="46.88895" lon="5.8229">
        <ele>564</ele>
        <time>2021-03-23T13:55:56Z</time>
      </trkpt>
      <trkpt lat="46.88898" lon="5.82296">
        <ele>564.1</ele>
        <time>2021-03-23T13:56:01Z</time>
      </trkpt>
      <trkpt lat="46.88901" lon="5.82308">
        <ele>563.2</ele>
        <time>2021-03-23T13:56:13Z</time>
      </trkpt>
      <trkpt lat="46.88903" lon="5.82316">
        <ele>562.5</ele>
        <time>2021-03-23T13:56:17Z</time>
      </trkpt>
      <trkpt lat="46.88909" lon="5.82322">
        <ele>562.4</ele>
        <time>2021-03-23T13:56:23Z</time>
      </trkpt>
      <trkpt lat="46.88917" lon="5.8233">
        <ele>563.5</ele>
        <time>2021-03-23T13:56:27Z</time>
      </trkpt>
      <trkpt lat="46.8892" lon="5.82337">
        <ele>564.4</ele>
        <time>2021-03-23T13:56:37Z</time>
      </trkpt>
      <trkpt lat="46.88923" lon="5.82343">
        <ele>564.6</ele>
        <time>2021-03-23T13:56:41Z</time>
      </trkpt>
      <trkpt lat="46.88926" lon="5.8235">
        <ele>564.1</ele>
        <time>2021-03-23T13:56:45Z</time>
      </trkpt>
      <trkpt lat="46.88933" lon="5.8236">
        <ele>563.9</ele>
        <time>2021-03-23T13:56:49Z</time>
      </trkpt>
      <trkpt lat="46.88936" lon="5.82366">
        <ele>563.9</ele>
        <time>2021-03-23T13:56:53Z</time>
      </trkpt>
      <trkpt lat="46.88941" lon="5.82375">
        <ele>563.9</ele>
        <time>2021-03-23T13:57:11Z</time>
      </trkpt>
      <trkpt lat="46.88943" lon="5.82382">
        <ele>563.8</ele>
        <time>2021-03-23T13:57:15Z</time>
      </trkpt>
      <trkpt lat="46.88946" lon="5.8239">
        <ele>563.4</ele>
        <time>2021-03-23T13:57:28Z</time>
      </trkpt>
      <trkpt lat="46.88947" lon="5.82398">
        <ele>562.9</ele>
        <time>2021-03-23T13:57:32Z</time>
      </trkpt>
      <trkpt lat="46.88949" lon="5.82406">
        <ele>561.7</ele>
        <time>2021-03-23T13:57:45Z</time>
      </trkpt>
      <trkpt lat="46.88956" lon="5.82423">
        <ele>561.8</ele>
        <time>2021-03-23T13:57:49Z</time>
      </trkpt>
      <trkpt lat="46.88958" lon="5.82429">
        <ele>562</ele>
        <time>2021-03-23T13:57:53Z</time>
      </trkpt>
      <trkpt lat="46.88963" lon="5.82443">
        <ele>563.3</ele>
        <time>2021-03-23T13:57:57Z</time>
      </trkpt>
      <trkpt lat="46.88963" lon="5.82453">
        <ele>564.8</ele>
        <time>2021-03-23T13:58:04Z</time>
      </trkpt>
      <trkpt lat="46.88964" lon="5.82462">
        <ele>566</ele>
        <time>2021-03-23T13:58:08Z</time>
      </trkpt>
      <trkpt lat="46.88963" lon="5.82471">
        <ele>568.1</ele>
        <time>2021-03-23T13:58:16Z</time>
      </trkpt>
      <trkpt lat="46.88962" lon="5.82479">
        <ele>569.6</ele>
        <time>2021-03-23T13:58:20Z</time>
      </trkpt>
      <trkpt lat="46.88959" lon="5.82486">
        <ele>571.6</ele>
        <time>2021-03-23T13:58:35Z</time>
      </trkpt>
      <trkpt lat="46.88957" lon="5.82493">
        <ele>572</ele>
        <time>2021-03-23T13:58:39Z</time>
      </trkpt>
      <trkpt lat="46.88955" lon="5.82501">
        <ele>571.8</ele>
        <time>2021-03-23T13:59:00Z</time>
      </trkpt>
      <trkpt lat="46.88953" lon="5.82507">
        <ele>571.1</ele>
        <time>2021-03-23T13:59:04Z</time>
      </trkpt>
      <trkpt lat="46.88953" lon="5.82516">
        <ele>570</ele>
        <time>2021-03-23T13:59:17Z</time>
      </trkpt>
      <trkpt lat="46.88953" lon="5.82525">
        <ele>569.7</ele>
        <time>2021-03-23T13:59:21Z</time>
      </trkpt>
      <trkpt lat="46.88954" lon="5.82534">
        <ele>569.1</ele>
        <time>2021-03-23T13:59:30Z</time>
      </trkpt>
      <trkpt lat="46.88957" lon="5.82548">
        <ele>568</ele>
        <time>2021-03-23T13:59:34Z</time>
      </trkpt>
      <trkpt lat="46.8896" lon="5.82558">
        <ele>566.6</ele>
        <time>2021-03-23T13:59:42Z</time>
      </trkpt>
      <trkpt lat="46.88964" lon="5.8257">
        <ele>566</ele>
        <time>2021-03-23T13:59:46Z</time>
      </trkpt>
      <trkpt lat="46.88965" lon="5.82577">
        <ele>565.4</ele>
        <time>2021-03-23T13:59:50Z</time>
      </trkpt>
      <trkpt lat="46.88965" lon="5.82584">
        <ele>564.7</ele>
        <time>2021-03-23T13:59:54Z</time>
      </trkpt>
      <trkpt lat="46.88965" lon="5.82591">
        <ele>564.5</ele>
        <time>2021-03-23T13:59:59Z</time>
      </trkpt>
      <trkpt lat="46.88966" lon="5.826">
        <ele>563.5</ele>
        <time>2021-03-23T14:00:07Z</time>
      </trkpt>
      <trkpt lat="46.88967" lon="5.82611">
        <ele>563.1</ele>
        <time>2021-03-23T14:00:11Z</time>
      </trkpt>
      <trkpt lat="46.88968" lon="5.82617">
        <ele>562.6</ele>
        <time>2021-03-23T14:00:15Z</time>
      </trkpt>
      <trkpt lat="46.88969" lon="5.82625">
        <ele>561.9</ele>
        <time>2021-03-23T14:00:20Z</time>
      </trkpt>
      <trkpt lat="46.88969" lon="5.82632">
        <ele>561.2</ele>
        <time>2021-03-23T14:00:25Z</time>
      </trkpt>
      <trkpt lat="46.88968" lon="5.82638">
        <ele>560.7</ele>
        <time>2021-03-23T14:00:30Z</time>
      </trkpt>
      <trkpt lat="46.8897" lon="5.82646">
        <ele>560.5</ele>
        <time>2021-03-23T14:00:35Z</time>
      </trkpt>
      <trkpt lat="46.88971" lon="5.82652">
        <ele>560.7</ele>
        <time>2021-03-23T14:00:39Z</time>
      </trkpt>
      <trkpt lat="46.88972" lon="5.8266">
        <ele>561</ele>
        <time>2021-03-23T14:00:44Z</time>
      </trkpt>
      <trkpt lat="46.88973" lon="5.82668">
        <ele>561.3</ele>
        <time>2021-03-23T14:00:48Z</time>
      </trkpt>
      <trkpt lat="46.88974" lon="5.82675">
        <ele>561.6</ele>
        <time>2021-03-23T14:00:52Z</time>
      </trkpt>
      <trkpt lat="46.88975" lon="5.82683">
        <ele>561.9</ele>
        <time>2021-03-23T14:00:57Z</time>
      </trkpt>
      <trkpt lat="46.88976" lon="5.8269">
        <ele>562</ele>
        <time>2021-03-23T14:01:02Z</time>
      </trkpt>
      <trkpt lat="46.88978" lon="5.82696">
        <ele>562.1</ele>
        <time>2021-03-23T14:01:07Z</time>
      </trkpt>
      <trkpt lat="46.8898" lon="5.82702">
        <ele>562.2</ele>
        <time>2021-03-23T14:01:12Z</time>
      </trkpt>
      <trkpt lat="46.88982" lon="5.82709">
        <ele>562.2</ele>
        <time>2021-03-23T14:01:17Z</time>
      </trkpt>
      <trkpt lat="46.88986" lon="5.82716">
        <ele>562</ele>
        <time>2021-03-23T14:01:22Z</time>
      </trkpt>
      <trkpt lat="46.88989" lon="5.82721">
        <ele>561.6</ele>
        <time>2021-03-23T14:01:27Z</time>
      </trkpt>
      <trkpt lat="46.88993" lon="5.82727">
        <ele>561.2</ele>
        <time>2021-03-23T14:01:32Z</time>
      </trkpt>
      <trkpt lat="46.88996" lon="5.82732">
        <ele>560.9</ele>
        <time>2021-03-23T14:01:36Z</time>
      </trkpt>
      <trkpt lat="46.88999" lon="5.82738">
        <ele>560.7</ele>
        <time>2021-03-23T14:01:41Z</time>
      </trkpt>
      <trkpt lat="46.89001" lon="5.82744">
        <ele>560.5</ele>
        <time>2021-03-23T14:01:46Z</time>
      </trkpt>
      <trkpt lat="46.89004" lon="5.8275">
        <ele>560.6</ele>
        <time>2021-03-23T14:01:50Z</time>
      </trkpt>
      <trkpt lat="46.89007" lon="5.82755">
        <ele>560.7</ele>
        <time>2021-03-23T14:01:54Z</time>
      </trkpt>
      <trkpt lat="46.89011" lon="5.82761">
        <ele>560.7</ele>
        <time>2021-03-23T14:01:59Z</time>
      </trkpt>
      <trkpt lat="46.89015" lon="5.82766">
        <ele>560.9</ele>
        <time>2021-03-23T14:02:04Z</time>
      </trkpt>
      <trkpt lat="46.89017" lon="5.82773">
        <ele>561</ele>
        <time>2021-03-23T14:02:09Z</time>
      </trkpt>
      <trkpt lat="46.89019" lon="5.82781">
        <ele>560.9</ele>
        <time>2021-03-23T14:02:18Z</time>
      </trkpt>
      <trkpt lat="46.89023" lon="5.82788">
        <ele>561.1</ele>
        <time>2021-03-23T14:02:22Z</time>
      </trkpt>
      <trkpt lat="46.89027" lon="5.82793">
        <ele>561.4</ele>
        <time>2021-03-23T14:02:26Z</time>
      </trkpt>
      <trkpt lat="46.89031" lon="5.82796">
        <ele>561.5</ele>
        <time>2021-03-23T14:02:30Z</time>
      </trkpt>
      <trkpt lat="46.89035" lon="5.82804">
        <ele>561.9</ele>
        <time>2021-03-23T14:02:40Z</time>
      </trkpt>
      <trkpt lat="46.8904" lon="5.8281">
        <ele>562.3</ele>
        <time>2021-03-23T14:02:44Z</time>
      </trkpt>
      <trkpt lat="46.89044" lon="5.82815">
        <ele>562.3</ele>
        <time>2021-03-23T14:02:48Z</time>
      </trkpt>
      <trkpt lat="46.8905" lon="5.8282">
        <ele>562.2</ele>
        <time>2021-03-23T14:02:52Z</time>
      </trkpt>
      <trkpt lat="46.89054" lon="5.82824">
        <ele>561.9</ele>
        <time>2021-03-23T14:02:56Z</time>
      </trkpt>
      <trkpt lat="46.89058" lon="5.82829">
        <ele>561.3</ele>
        <time>2021-03-23T14:03:01Z</time>
      </trkpt>
      <trkpt lat="46.89062" lon="5.82833">
        <ele>560.9</ele>
        <time>2021-03-23T14:03:05Z</time>
      </trkpt>
      <trkpt lat="46.89066" lon="5.82839">
        <ele>561.4</ele>
        <time>2021-03-23T14:03:09Z</time>
      </trkpt>
      <trkpt lat="46.89072" lon="5.82844">
        <ele>560.6</ele>
        <time>2021-03-23T14:03:23Z</time>
      </trkpt>
      <trkpt lat="46.89077" lon="5.82849">
        <ele>558.9</ele>
        <time>2021-03-23T14:03:27Z</time>
      </trkpt>
      <trkpt lat="46.8908" lon="5.82854">
        <ele>557.1</ele>
        <time>2021-03-23T14:03:34Z</time>
      </trkpt>
      <trkpt lat="46.89085" lon="5.82861">
        <ele>557.4</ele>
        <time>2021-03-23T14:03:38Z</time>
      </trkpt>
      <trkpt lat="46.89089" lon="5.82868">
        <ele>558.5</ele>
        <time>2021-03-23T14:03:47Z</time>
      </trkpt>
      <trkpt lat="46.89092" lon="5.82875">
        <ele>560.1</ele>
        <time>2021-03-23T14:03:51Z</time>
      </trkpt>
      <trkpt lat="46.89095" lon="5.8288">
        <ele>560.8</ele>
        <time>2021-03-23T14:03:56Z</time>
      </trkpt>
      <trkpt lat="46.89099" lon="5.82885">
        <ele>560.7</ele>
        <time>2021-03-23T14:04:01Z</time>
      </trkpt>
      <trkpt lat="46.89102" lon="5.8289">
        <ele>559.8</ele>
        <time>2021-03-23T14:04:07Z</time>
      </trkpt>
      <trkpt lat="46.89106" lon="5.82897">
        <ele>560.3</ele>
        <time>2021-03-23T14:04:11Z</time>
      </trkpt>
      <trkpt lat="46.8911" lon="5.82906">
        <ele>561.3</ele>
        <time>2021-03-23T14:04:15Z</time>
      </trkpt>
      <trkpt lat="46.89113" lon="5.82915">
        <ele>563</ele>
        <time>2021-03-23T14:04:19Z</time>
      </trkpt>
      <trkpt lat="46.89116" lon="5.82923">
        <ele>565.1</ele>
        <time>2021-03-23T14:04:23Z</time>
      </trkpt>
      <trkpt lat="46.89119" lon="5.8293">
        <ele>567.5</ele>
        <time>2021-03-23T14:04:28Z</time>
      </trkpt>
      <trkpt lat="46.89122" lon="5.82935">
        <ele>569.1</ele>
        <time>2021-03-23T14:04:33Z</time>
      </trkpt>
      <trkpt lat="46.89125" lon="5.8294">
        <ele>571.3</ele>
        <time>2021-03-23T14:04:44Z</time>
      </trkpt>
      <trkpt lat="46.89129" lon="5.82944">
        <ele>571.2</ele>
        <time>2021-03-23T14:04:49Z</time>
      </trkpt>
      <trkpt lat="46.89133" lon="5.8295">
        <ele>570.4</ele>
        <time>2021-03-23T14:04:54Z</time>
      </trkpt>
      <trkpt lat="46.89136" lon="5.82957">
        <ele>568.8</ele>
        <time>2021-03-23T14:05:47Z</time>
      </trkpt>
      <trkpt lat="46.89139" lon="5.82964">
        <ele>567.2</ele>
        <time>2021-03-23T14:05:51Z</time>
      </trkpt>
      <trkpt lat="46.89142" lon="5.82971">
        <ele>563.8</ele>
        <time>2021-03-23T14:06:19Z</time>
      </trkpt>
      <trkpt lat="46.89146" lon="5.82977">
        <ele>562.5</ele>
        <time>2021-03-23T14:06:23Z</time>
      </trkpt>
      <trkpt lat="46.89151" lon="5.82975">
        <ele>562</ele>
        <time>2021-03-23T14:06:29Z</time>
      </trkpt>
      <trkpt lat="46.89155" lon="5.82971">
        <ele>561.6</ele>
        <time>2021-03-23T14:06:34Z</time>
      </trkpt>
      <trkpt lat="46.89163" lon="5.82964">
        <ele>560.6</ele>
        <time>2021-03-23T14:06:47Z</time>
      </trkpt>
      <trkpt lat="46.89169" lon="5.82959">
        <ele>560.9</ele>
        <time>2021-03-23T14:06:51Z</time>
      </trkpt>
      <trkpt lat="46.89173" lon="5.82953">
        <ele>562</ele>
        <time>2021-03-23T14:07:03Z</time>
      </trkpt>
      <trkpt lat="46.89181" lon="5.82937">
        <ele>565.3</ele>
        <time>2021-03-23T14:07:07Z</time>
      </trkpt>
      <trkpt lat="46.89186" lon="5.82929">
        <ele>567.9</ele>
        <time>2021-03-23T14:07:12Z</time>
      </trkpt>
      <trkpt lat="46.89191" lon="5.82923">
        <ele>569.5</ele>
        <time>2021-03-23T14:07:16Z</time>
      </trkpt>
      <trkpt lat="46.89197" lon="5.82919">
        <ele>570.7</ele>
        <time>2021-03-23T14:07:22Z</time>
      </trkpt>
      <trkpt lat="46.89202" lon="5.82914">
        <ele>571.8</ele>
        <time>2021-03-23T14:07:26Z</time>
      </trkpt>
      <trkpt lat="46.89207" lon="5.82909">
        <ele>572</ele>
        <time>2021-03-23T14:07:32Z</time>
      </trkpt>
      <trkpt lat="46.89211" lon="5.82904">
        <ele>570.9</ele>
        <time>2021-03-23T14:07:46Z</time>
      </trkpt>
      <trkpt lat="46.89218" lon="5.82897">
        <ele>568.4</ele>
        <time>2021-03-23T14:07:50Z</time>
      </trkpt>
      <trkpt lat="46.89222" lon="5.82892">
        <ele>565.6</ele>
        <time>2021-03-23T14:07:54Z</time>
      </trkpt>
      <trkpt lat="46.89227" lon="5.82887">
        <ele>561.8</ele>
        <time>2021-03-23T14:08:05Z</time>
      </trkpt>
      <trkpt lat="46.89233" lon="5.8288">
        <ele>559.8</ele>
        <time>2021-03-23T14:08:09Z</time>
      </trkpt>
      <trkpt lat="46.89239" lon="5.82874">
        <ele>557</ele>
        <time>2021-03-23T14:08:22Z</time>
      </trkpt>
      <trkpt lat="46.89244" lon="5.8287">
        <ele>556</ele>
        <time>2021-03-23T14:08:26Z</time>
      </trkpt>
      <trkpt lat="46.89249" lon="5.82867">
        <ele>554.5</ele>
        <time>2021-03-23T14:08:36Z</time>
      </trkpt>
      <trkpt lat="46.89257" lon="5.82864">
        <ele>553.4</ele>
        <time>2021-03-23T14:08:40Z</time>
      </trkpt>
      <trkpt lat="46.89262" lon="5.82863">
        <ele>552.4</ele>
        <time>2021-03-23T14:08:44Z</time>
      </trkpt>
      <trkpt lat="46.89267" lon="5.82863">
        <ele>551.4</ele>
        <time>2021-03-23T14:08:49Z</time>
      </trkpt>
      <trkpt lat="46.89273" lon="5.82865">
        <ele>551</ele>
        <time>2021-03-23T14:08:53Z</time>
      </trkpt>
      <trkpt lat="46.89278" lon="5.82867">
        <ele>550.8</ele>
        <time>2021-03-23T14:08:57Z</time>
      </trkpt>
      <trkpt lat="46.89286" lon="5.8287">
        <ele>553.3</ele>
        <time>2021-03-23T14:09:01Z</time>
      </trkpt>
      <trkpt lat="46.89293" lon="5.82871">
        <ele>554.7</ele>
        <time>2021-03-23T14:09:05Z</time>
      </trkpt>
      <trkpt lat="46.89302" lon="5.82875">
        <ele>556.4</ele>
        <time>2021-03-23T14:09:17Z</time>
      </trkpt>
      <trkpt lat="46.89308" lon="5.82879">
        <ele>556.4</ele>
        <time>2021-03-23T14:09:21Z</time>
      </trkpt>
      <trkpt lat="46.89313" lon="5.82885">
        <ele>555.9</ele>
        <time>2021-03-23T14:09:31Z</time>
      </trkpt>
      <trkpt lat="46.89318" lon="5.82893">
        <ele>554.6</ele>
        <time>2021-03-23T14:09:35Z</time>
      </trkpt>
      <trkpt lat="46.89326" lon="5.82897">
        <ele>552.1</ele>
        <time>2021-03-23T14:09:50Z</time>
      </trkpt>
      <trkpt lat="46.89333" lon="5.82898">
        <ele>550.6</ele>
        <time>2021-03-23T14:09:54Z</time>
      </trkpt>
      <trkpt lat="46.89339" lon="5.82898">
        <ele>549.7</ele>
        <time>2021-03-23T14:10:03Z</time>
      </trkpt>
      <trkpt lat="46.89345" lon="5.82896">
        <ele>550</ele>
        <time>2021-03-23T14:10:07Z</time>
      </trkpt>
      <trkpt lat="46.89351" lon="5.82895">
        <ele>550.1</ele>
        <time>2021-03-23T14:10:14Z</time>
      </trkpt>
      <trkpt lat="46.89357" lon="5.82895">
        <ele>549.9</ele>
        <time>2021-03-23T14:10:18Z</time>
      </trkpt>
      <trkpt lat="46.89363" lon="5.82895">
        <ele>549.2</ele>
        <time>2021-03-23T14:10:29Z</time>
      </trkpt>
      <trkpt lat="46.89369" lon="5.82894">
        <ele>548.6</ele>
        <time>2021-03-23T14:10:33Z</time>
      </trkpt>
      <trkpt lat="46.89373" lon="5.82892">
        <ele>547.8</ele>
        <time>2021-03-23T14:10:37Z</time>
      </trkpt>
      <trkpt lat="46.89379" lon="5.8289">
        <ele>547</ele>
        <time>2021-03-23T14:10:41Z</time>
      </trkpt>
      <trkpt lat="46.89384" lon="5.82888">
        <ele>546.6</ele>
        <time>2021-03-23T14:10:45Z</time>
      </trkpt>
      <trkpt lat="46.89388" lon="5.82884">
        <ele>546.5</ele>
        <time>2021-03-23T14:10:49Z</time>
      </trkpt>
      <trkpt lat="46.89394" lon="5.82881">
        <ele>546</ele>
        <time>2021-03-23T14:10:57Z</time>
      </trkpt>
      <trkpt lat="46.89402" lon="5.82879">
        <ele>544.8</ele>
        <time>2021-03-23T14:11:01Z</time>
      </trkpt>
      <trkpt lat="46.8941" lon="5.82875">
        <ele>542.8</ele>
        <time>2021-03-23T14:11:14Z</time>
      </trkpt>
      <trkpt lat="46.89417" lon="5.82872">
        <ele>542.3</ele>
        <time>2021-03-23T14:11:18Z</time>
      </trkpt>
      <trkpt lat="46.89423" lon="5.82871">
        <ele>542.2</ele>
        <time>2021-03-23T14:11:22Z</time>
      </trkpt>
      <trkpt lat="46.89428" lon="5.82868">
        <ele>541.7</ele>
        <time>2021-03-23T14:11:27Z</time>
      </trkpt>
      <trkpt lat="46.89433" lon="5.82863">
        <ele>541.3</ele>
        <time>2021-03-23T14:11:32Z</time>
      </trkpt>
      <trkpt lat="46.89437" lon="5.8286">
        <ele>541</ele>
        <time>2021-03-23T14:11:42Z</time>
      </trkpt>
      <trkpt lat="46.89442" lon="5.82856">
        <ele>540.9</ele>
        <time>2021-03-23T14:11:47Z</time>
      </trkpt>
      <trkpt lat="46.89445" lon="5.82848">
        <ele>541.6</ele>
        <time>2021-03-23T14:11:52Z</time>
      </trkpt>
      <trkpt lat="46.89448" lon="5.82843">
        <ele>542.3</ele>
        <time>2021-03-23T14:11:56Z</time>
      </trkpt>
      <trkpt lat="46.89453" lon="5.82839">
        <ele>542.6</ele>
        <time>2021-03-23T14:12:02Z</time>
      </trkpt>
      <trkpt lat="46.89458" lon="5.82835">
        <ele>542.1</ele>
        <time>2021-03-23T14:12:06Z</time>
      </trkpt>
      <trkpt lat="46.89463" lon="5.82832">
        <ele>541.5</ele>
        <time>2021-03-23T14:12:10Z</time>
      </trkpt>
      <trkpt lat="46.89467" lon="5.8283">
        <ele>540.9</ele>
        <time>2021-03-23T14:12:14Z</time>
      </trkpt>
      <trkpt lat="46.89472" lon="5.82826">
        <ele>540.5</ele>
        <time>2021-03-23T14:12:18Z</time>
      </trkpt>
      <trkpt lat="46.89477" lon="5.82815">
        <ele>542.9</ele>
        <time>2021-03-23T14:12:47Z</time>
      </trkpt>
      <trkpt lat="46.89482" lon="5.82806">
        <ele>544.6</ele>
        <time>2021-03-23T14:12:51Z</time>
      </trkpt>
      <trkpt lat="46.89486" lon="5.828">
        <ele>545.1</ele>
        <time>2021-03-23T14:12:55Z</time>
      </trkpt>
      <trkpt lat="46.89492" lon="5.82799">
        <ele>545.1</ele>
        <time>2021-03-23T14:13:05Z</time>
      </trkpt>
      <trkpt lat="46.89502" lon="5.828">
        <ele>544.5</ele>
        <time>2021-03-23T14:13:09Z</time>
      </trkpt>
      <trkpt lat="46.89506" lon="5.828">
        <ele>544.1</ele>
        <time>2021-03-23T14:13:14Z</time>
      </trkpt>
      <trkpt lat="46.89512" lon="5.82801">
        <ele>543.4</ele>
        <time>2021-03-23T14:13:22Z</time>
      </trkpt>
      <trkpt lat="46.89516" lon="5.82802">
        <ele>542.9</ele>
        <time>2021-03-23T14:13:26Z</time>
      </trkpt>
      <trkpt lat="46.89523" lon="5.82804">
        <ele>545.8</ele>
        <time>2021-03-23T14:13:33Z</time>
      </trkpt>
      <trkpt lat="46.89528" lon="5.82807">
        <ele>550.1</ele>
        <time>2021-03-23T14:13:37Z</time>
      </trkpt>
      <trkpt lat="46.89534" lon="5.82808">
        <ele>554.5</ele>
        <time>2021-03-23T14:13:55Z</time>
      </trkpt>
      <trkpt lat="46.8954" lon="5.82809">
        <ele>554</ele>
        <time>2021-03-23T14:13:59Z</time>
      </trkpt>
      <trkpt lat="46.89545" lon="5.8281">
        <ele>554.2</ele>
        <time>2021-03-23T14:14:03Z</time>
      </trkpt>
      <trkpt lat="46.89551" lon="5.8281">
        <ele>554</ele>
        <time>2021-03-23T14:14:07Z</time>
      </trkpt>
      <trkpt lat="46.89556" lon="5.82811">
        <ele>554</ele>
        <time>2021-03-23T14:14:11Z</time>
      </trkpt>
      <trkpt lat="46.8956" lon="5.82812">
        <ele>553.7</ele>
        <time>2021-03-23T14:14:17Z</time>
      </trkpt>
      <trkpt lat="46.89565" lon="5.82815">
        <ele>552.9</ele>
        <time>2021-03-23T14:14:27Z</time>
      </trkpt>
      <trkpt lat="46.89572" lon="5.82818">
        <ele>552.1</ele>
        <time>2021-03-23T14:14:31Z</time>
      </trkpt>
      <trkpt lat="46.89577" lon="5.8282">
        <ele>552.4</ele>
        <time>2021-03-23T14:14:36Z</time>
      </trkpt>
      <trkpt lat="46.89583" lon="5.8282">
        <ele>552.2</ele>
        <time>2021-03-23T14:14:40Z</time>
      </trkpt>
      <trkpt lat="46.89588" lon="5.82815">
        <ele>550.5</ele>
        <time>2021-03-23T14:14:44Z</time>
      </trkpt>
      <trkpt lat="46.89593" lon="5.82812">
        <ele>548.7</ele>
        <time>2021-03-23T14:14:48Z</time>
      </trkpt>
      <trkpt lat="46.89597" lon="5.82809">
        <ele>546.5</ele>
        <time>2021-03-23T14:14:52Z</time>
      </trkpt>
      <trkpt lat="46.89601" lon="5.82804">
        <ele>543</ele>
        <time>2021-03-23T14:14:57Z</time>
      </trkpt>
      <trkpt lat="46.89605" lon="5.82801">
        <ele>540.5</ele>
        <time>2021-03-23T14:15:02Z</time>
      </trkpt>
      <trkpt lat="46.89609" lon="5.82796">
        <ele>539.8</ele>
        <time>2021-03-23T14:15:06Z</time>
      </trkpt>
      <trkpt lat="46.89612" lon="5.8279">
        <ele>539.9</ele>
        <time>2021-03-23T14:15:10Z</time>
      </trkpt>
      <trkpt lat="46.89615" lon="5.82784">
        <ele>540.5</ele>
        <time>2021-03-23T14:15:14Z</time>
      </trkpt>
      <trkpt lat="46.89618" lon="5.82777">
        <ele>541.4</ele>
        <time>2021-03-23T14:15:18Z</time>
      </trkpt>
      <trkpt lat="46.89621" lon="5.82771">
        <ele>542.4</ele>
        <time>2021-03-23T14:15:23Z</time>
      </trkpt>
      <trkpt lat="46.89625" lon="5.82768">
        <ele>543</ele>
        <time>2021-03-23T14:15:27Z</time>
      </trkpt>
      <trkpt lat="46.89629" lon="5.82764">
        <ele>543.6</ele>
        <time>2021-03-23T14:15:31Z</time>
      </trkpt>
      <trkpt lat="46.89632" lon="5.82759">
        <ele>543.8</ele>
        <time>2021-03-23T14:15:35Z</time>
      </trkpt>
      <trkpt lat="46.89636" lon="5.82753">
        <ele>544</ele>
        <time>2021-03-23T14:15:41Z</time>
      </trkpt>
      <trkpt lat="46.8964" lon="5.82742">
        <ele>542.1</ele>
        <time>2021-03-23T14:15:53Z</time>
      </trkpt>
      <trkpt lat="46.89642" lon="5.82733">
        <ele>540.6</ele>
        <time>2021-03-23T14:15:57Z</time>
      </trkpt>
      <trkpt lat="46.89645" lon="5.82728">
        <ele>539.3</ele>
        <time>2021-03-23T14:16:01Z</time>
      </trkpt>
      <trkpt lat="46.89649" lon="5.82722">
        <ele>538.3</ele>
        <time>2021-03-23T14:16:06Z</time>
      </trkpt>
      <trkpt lat="46.89651" lon="5.82717">
        <ele>537.9</ele>
        <time>2021-03-23T14:16:14Z</time>
      </trkpt>
      <trkpt lat="46.89658" lon="5.82709">
        <ele>538.1</ele>
        <time>2021-03-23T14:16:18Z</time>
      </trkpt>
      <trkpt lat="46.89661" lon="5.82704">
        <ele>538.3</ele>
        <time>2021-03-23T14:16:22Z</time>
      </trkpt>
      <trkpt lat="46.89664" lon="5.82691">
        <ele>540.2</ele>
        <time>2021-03-23T14:16:31Z</time>
      </trkpt>
      <trkpt lat="46.89667" lon="5.82683">
        <ele>542.3</ele>
        <time>2021-03-23T14:16:35Z</time>
      </trkpt>
      <trkpt lat="46.89671" lon="5.82676">
        <ele>544.6</ele>
        <time>2021-03-23T14:16:45Z</time>
      </trkpt>
      <trkpt lat="46.89673" lon="5.82669">
        <ele>544.9</ele>
        <time>2021-03-23T14:16:49Z</time>
      </trkpt>
      <trkpt lat="46.89673" lon="5.82662">
        <ele>545.2</ele>
        <time>2021-03-23T14:16:56Z</time>
      </trkpt>
      <trkpt lat="46.89671" lon="5.82651">
        <ele>544.8</ele>
        <time>2021-03-23T14:17:00Z</time>
      </trkpt>
      <trkpt lat="46.89668" lon="5.82645">
        <ele>543.8</ele>
        <time>2021-03-23T14:17:04Z</time>
      </trkpt>
      <trkpt lat="46.89664" lon="5.82641">
        <ele>541.9</ele>
        <time>2021-03-23T14:17:09Z</time>
      </trkpt>
      <trkpt lat="46.89658" lon="5.82635">
        <ele>538.3</ele>
        <time>2021-03-23T14:17:19Z</time>
      </trkpt>
      <trkpt lat="46.89653" lon="5.8263">
        <ele>536.6</ele>
        <time>2021-03-23T14:17:23Z</time>
      </trkpt>
      <trkpt lat="46.89649" lon="5.82624">
        <ele>534.1</ele>
        <time>2021-03-23T14:17:32Z</time>
      </trkpt>
      <trkpt lat="46.89646" lon="5.82616">
        <ele>532</ele>
        <time>2021-03-23T14:17:36Z</time>
      </trkpt>
      <trkpt lat="46.89644" lon="5.82609">
        <ele>530.9</ele>
        <time>2021-03-23T14:17:40Z</time>
      </trkpt>
      <trkpt lat="46.89644" lon="5.82617">
        <ele>537.8</ele>
        <time>2021-03-23T14:17:48Z</time>
      </trkpt>
      <trkpt lat="46.89644" lon="5.82624">
        <ele>545.4</ele>
        <time>2021-03-23T14:17:53Z</time>
      </trkpt>
      <trkpt lat="46.89644" lon="5.82602">
        <ele>544.5</ele>
        <time>2021-03-23T14:17:57Z</time>
      </trkpt>
      <trkpt lat="46.8964" lon="5.82599">
        <ele>550.3</ele>
        <time>2021-03-23T14:18:01Z</time>
      </trkpt>
      <trkpt lat="46.89636" lon="5.82593">
        <ele>556.4</ele>
        <time>2021-03-23T14:18:10Z</time>
      </trkpt>
      <trkpt lat="46.89634" lon="5.82586">
        <ele>559.2</ele>
        <time>2021-03-23T14:18:14Z</time>
      </trkpt>
      <trkpt lat="46.8963" lon="5.82579">
        <ele>560.2</ele>
        <time>2021-03-23T14:18:18Z</time>
      </trkpt>
      <trkpt lat="46.89626" lon="5.82567">
        <ele>560.5</ele>
        <time>2021-03-23T14:18:22Z</time>
      </trkpt>
      <trkpt lat="46.89628" lon="5.8256">
        <ele>559.6</ele>
        <time>2021-03-23T14:18:27Z</time>
      </trkpt>
      <trkpt lat="46.8963" lon="5.8255">
        <ele>555.6</ele>
        <time>2021-03-23T14:18:43Z</time>
      </trkpt>
      <trkpt lat="46.89628" lon="5.8254">
        <ele>552.9</ele>
        <time>2021-03-23T14:18:47Z</time>
      </trkpt>
      <trkpt lat="46.89627" lon="5.82533">
        <ele>550.7</ele>
        <time>2021-03-23T14:18:52Z</time>
      </trkpt>
      <trkpt lat="46.89624" lon="5.82521">
        <ele>552.6</ele>
        <time>2021-03-23T14:18:56Z</time>
      </trkpt>
      <trkpt lat="46.89621" lon="5.8251">
        <ele>556.7</ele>
        <time>2021-03-23T14:19:01Z</time>
      </trkpt>
      <trkpt lat="46.89619" lon="5.82502">
        <ele>559.6</ele>
        <time>2021-03-23T14:19:05Z</time>
      </trkpt>
      <trkpt lat="46.89619" lon="5.82494">
        <ele>563.1</ele>
        <time>2021-03-23T14:19:17Z</time>
      </trkpt>
      <trkpt lat="46.8962" lon="5.82486">
        <ele>563.6</ele>
        <time>2021-03-23T14:19:21Z</time>
      </trkpt>
      <trkpt lat="46.8962" lon="5.82477">
        <ele>564.3</ele>
        <time>2021-03-23T14:19:33Z</time>
      </trkpt>
      <trkpt lat="46.8962" lon="5.82467">
        <ele>564.7</ele>
        <time>2021-03-23T14:19:37Z</time>
      </trkpt>
      <trkpt lat="46.8962" lon="5.82455">
        <ele>565.1</ele>
        <time>2021-03-23T14:19:54Z</time>
      </trkpt>
      <trkpt lat="46.89619" lon="5.82446">
        <ele>564.7</ele>
        <time>2021-03-23T14:19:58Z</time>
      </trkpt>
      <trkpt lat="46.89619" lon="5.82436">
        <ele>564.1</ele>
        <time>2021-03-23T14:20:08Z</time>
      </trkpt>
      <trkpt lat="46.89617" lon="5.82414">
        <ele>566.9</ele>
        <time>2021-03-23T14:20:12Z</time>
      </trkpt>
      <trkpt lat="46.89613" lon="5.82405">
        <ele>568</ele>
        <time>2021-03-23T14:20:17Z</time>
      </trkpt>
      <trkpt lat="46.8961" lon="5.82397">
        <ele>567.9</ele>
        <time>2021-03-23T14:20:21Z</time>
      </trkpt>
      <trkpt lat="46.89608" lon="5.82389">
        <ele>565.5</ele>
        <time>2021-03-23T14:20:26Z</time>
      </trkpt>
      <trkpt lat="46.89606" lon="5.82379">
        <ele>562.7</ele>
        <time>2021-03-23T14:20:30Z</time>
      </trkpt>
      <trkpt lat="46.89604" lon="5.82367">
        <ele>558.7</ele>
        <time>2021-03-23T14:20:46Z</time>
      </trkpt>
      <trkpt lat="46.89601" lon="5.82355">
        <ele>558</ele>
        <time>2021-03-23T14:20:50Z</time>
      </trkpt>
      <trkpt lat="46.89596" lon="5.82352">
        <ele>556.2</ele>
        <time>2021-03-23T14:21:12Z</time>
      </trkpt>
      <trkpt lat="46.89591" lon="5.82351">
        <ele>555.4</ele>
        <time>2021-03-23T14:21:16Z</time>
      </trkpt>
      <trkpt lat="46.89585" lon="5.8235">
        <ele>554.2</ele>
        <time>2021-03-23T14:21:27Z</time>
      </trkpt>
      <trkpt lat="46.89579" lon="5.82347">
        <ele>553.8</ele>
        <time>2021-03-23T14:21:31Z</time>
      </trkpt>
      <trkpt lat="46.89572" lon="5.82342">
        <ele>554.5</ele>
        <time>2021-03-23T14:21:41Z</time>
      </trkpt>
      <trkpt lat="46.89567" lon="5.82336">
        <ele>555.6</ele>
        <time>2021-03-23T14:21:45Z</time>
      </trkpt>
      <trkpt lat="46.89562" lon="5.8233">
        <ele>559.3</ele>
        <time>2021-03-23T14:21:51Z</time>
      </trkpt>
      <trkpt lat="46.89557" lon="5.82324">
        <ele>562.6</ele>
        <time>2021-03-23T14:21:55Z</time>
      </trkpt>
      <trkpt lat="46.89554" lon="5.82318">
        <ele>565.3</ele>
        <time>2021-03-23T14:22:03Z</time>
      </trkpt>
      <trkpt lat="46.89551" lon="5.82312">
        <ele>564.8</ele>
        <time>2021-03-23T14:22:07Z</time>
      </trkpt>
      <trkpt lat="46.89552" lon="5.82304">
        <ele>562.5</ele>
        <time>2021-03-23T14:22:28Z</time>
      </trkpt>
      <trkpt lat="46.89548" lon="5.82289">
        <ele>563.4</ele>
        <time>2021-03-23T14:22:34Z</time>
      </trkpt>
      <trkpt lat="46.89543" lon="5.82278">
        <ele>566.9</ele>
        <time>2021-03-23T14:22:38Z</time>
      </trkpt>
      <trkpt lat="46.89539" lon="5.8227">
        <ele>569.7</ele>
        <time>2021-03-23T14:22:54Z</time>
      </trkpt>
      <trkpt lat="46.89536" lon="5.82264">
        <ele>568.5</ele>
        <time>2021-03-23T14:22:58Z</time>
      </trkpt>
      <trkpt lat="46.89531" lon="5.82261">
        <ele>566.9</ele>
        <time>2021-03-23T14:23:17Z</time>
      </trkpt>
      <trkpt lat="46.89526" lon="5.82259">
        <ele>566.6</ele>
        <time>2021-03-23T14:23:21Z</time>
      </trkpt>
      <trkpt lat="46.8952" lon="5.82257">
        <ele>565.8</ele>
        <time>2021-03-23T14:23:53Z</time>
      </trkpt>
      <trkpt lat="46.89516" lon="5.82256">
        <ele>565.3</ele>
        <time>2021-03-23T14:23:59Z</time>
      </trkpt>
      <trkpt lat="46.8952" lon="5.82254">
        <ele>565.2</ele>
        <time>2021-03-23T14:26:37Z</time>
      </trkpt>
      <trkpt lat="46.89515" lon="5.82254">
        <ele>564.8</ele>
        <time>2021-03-23T14:26:41Z</time>
      </trkpt>
      <trkpt lat="46.8952" lon="5.82255">
        <ele>563.4</ele>
        <time>2021-03-23T14:28:06Z</time>
      </trkpt>
      <trkpt lat="46.89525" lon="5.82253">
        <ele>563.9</ele>
        <time>2021-03-23T14:28:10Z</time>
      </trkpt>
      <trkpt lat="46.89529" lon="5.82248">
        <ele>564.8</ele>
        <time>2021-03-23T14:28:21Z</time>
      </trkpt>
      <trkpt lat="46.89534" lon="5.82244">
        <ele>565</ele>
        <time>2021-03-23T14:28:25Z</time>
      </trkpt>
      <trkpt lat="46.89539" lon="5.82239">
        <ele>564.9</ele>
        <time>2021-03-23T14:28:43Z</time>
      </trkpt>
      <trkpt lat="46.89543" lon="5.82236">
        <ele>564.3</ele>
        <time>2021-03-23T14:28:47Z</time>
      </trkpt>
      <trkpt lat="46.89545" lon="5.82219">
        <ele>563.7</ele>
        <time>2021-03-23T14:29:00Z</time>
      </trkpt>
      <trkpt lat="46.89547" lon="5.82199">
        <ele>563.9</ele>
        <time>2021-03-23T14:29:04Z</time>
      </trkpt>
      <trkpt lat="46.89548" lon="5.82185">
        <ele>565.2</ele>
        <time>2021-03-23T14:29:08Z</time>
      </trkpt>
      <trkpt lat="46.89548" lon="5.82177">
        <ele>566.8</ele>
        <time>2021-03-23T14:29:12Z</time>
      </trkpt>
      <trkpt lat="46.89547" lon="5.82171">
        <ele>568.7</ele>
        <time>2021-03-23T14:29:18Z</time>
      </trkpt>
      <trkpt lat="46.89551" lon="5.82172">
        <ele>570.2</ele>
        <time>2021-03-23T14:30:02Z</time>
      </trkpt>
      <trkpt lat="46.89551" lon="5.82181">
        <ele>567.7</ele>
        <time>2021-03-23T14:30:17Z</time>
      </trkpt>
      <trkpt lat="46.89549" lon="5.82187">
        <ele>565.8</ele>
        <time>2021-03-23T14:30:22Z</time>
      </trkpt>
      <trkpt lat="46.89549" lon="5.822">
        <ele>566.9</ele>
        <time>2021-03-23T14:30:26Z</time>
      </trkpt>
      <trkpt lat="46.89546" lon="5.82211">
        <ele>568.5</ele>
        <time>2021-03-23T14:30:39Z</time>
      </trkpt>
      <trkpt lat="46.89543" lon="5.82218">
        <ele>568.3</ele>
        <time>2021-03-23T14:30:43Z</time>
      </trkpt>
      <trkpt lat="46.89539" lon="5.82228">
        <ele>568</ele>
        <time>2021-03-23T14:30:56Z</time>
      </trkpt>
      <trkpt lat="46.89536" lon="5.82237">
        <ele>567.9</ele>
        <time>2021-03-23T14:31:00Z</time>
      </trkpt>
      <trkpt lat="46.89532" lon="5.82244">
        <ele>567.2</ele>
        <time>2021-03-23T14:31:08Z</time>
      </trkpt>
      <trkpt lat="46.8953" lon="5.82254">
        <ele>566.4</ele>
        <time>2021-03-23T14:31:12Z</time>
      </trkpt>
      <trkpt lat="46.89534" lon="5.82262">
        <ele>565.8</ele>
        <time>2021-03-23T14:31:25Z</time>
      </trkpt>
      <trkpt lat="46.89539" lon="5.82271">
        <ele>565.7</ele>
        <time>2021-03-23T14:31:29Z</time>
      </trkpt>
      <trkpt lat="46.89542" lon="5.82279">
        <ele>565.6</ele>
        <time>2021-03-23T14:31:42Z</time>
      </trkpt>
      <trkpt lat="46.89543" lon="5.82286">
        <ele>565.4</ele>
        <time>2021-03-23T14:31:46Z</time>
      </trkpt>
      <trkpt lat="46.89546" lon="5.82294">
        <ele>565</ele>
        <time>2021-03-23T14:32:01Z</time>
      </trkpt>
      <trkpt lat="46.89549" lon="5.82301">
        <ele>564.8</ele>
        <time>2021-03-23T14:32:05Z</time>
      </trkpt>
      <trkpt lat="46.89553" lon="5.82308">
        <ele>564.9</ele>
        <time>2021-03-23T14:32:09Z</time>
      </trkpt>
      <trkpt lat="46.89557" lon="5.82314">
        <ele>564.6</ele>
        <time>2021-03-23T14:32:13Z</time>
      </trkpt>
      <trkpt lat="46.89562" lon="5.82321">
        <ele>563.6</ele>
        <time>2021-03-23T14:32:22Z</time>
      </trkpt>
      <trkpt lat="46.89567" lon="5.82328">
        <ele>562.8</ele>
        <time>2021-03-23T14:32:26Z</time>
      </trkpt>
      <trkpt lat="46.8957" lon="5.82336">
        <ele>562.5</ele>
        <time>2021-03-23T14:32:33Z</time>
      </trkpt>
      <trkpt lat="46.89573" lon="5.82347">
        <ele>563.1</ele>
        <time>2021-03-23T14:32:37Z</time>
      </trkpt>
      <trkpt lat="46.89578" lon="5.82356">
        <ele>564.2</ele>
        <time>2021-03-23T14:32:52Z</time>
      </trkpt>
      <trkpt lat="46.8958" lon="5.82362">
        <ele>564.1</ele>
        <time>2021-03-23T14:32:56Z</time>
      </trkpt>
      <trkpt lat="46.89581" lon="5.82374">
        <ele>564.2</ele>
        <time>2021-03-23T14:33:11Z</time>
      </trkpt>
      <trkpt lat="46.89582" lon="5.82388">
        <ele>564.5</ele>
        <time>2021-03-23T14:33:15Z</time>
      </trkpt>
      <trkpt lat="46.89582" lon="5.82399">
        <ele>565.1</ele>
        <time>2021-03-23T14:33:26Z</time>
      </trkpt>
      <trkpt lat="46.89582" lon="5.82406">
        <ele>565.4</ele>
        <time>2021-03-23T14:33:30Z</time>
      </trkpt>
      <trkpt lat="46.89583" lon="5.82414">
        <ele>567.2</ele>
        <time>2021-03-23T14:33:34Z</time>
      </trkpt>
      <trkpt lat="46.89584" lon="5.82422">
        <ele>569.1</ele>
        <time>2021-03-23T14:33:38Z</time>
      </trkpt>
      <trkpt lat="46.89583" lon="5.82431">
        <ele>571</ele>
        <time>2021-03-23T14:33:52Z</time>
      </trkpt>
      <trkpt lat="46.89581" lon="5.82441">
        <ele>570.8</ele>
        <time>2021-03-23T14:33:56Z</time>
      </trkpt>
      <trkpt lat="46.8958" lon="5.8245">
        <ele>569.9</ele>
        <time>2021-03-23T14:34:08Z</time>
      </trkpt>
      <trkpt lat="46.8958" lon="5.82457">
        <ele>569.3</ele>
        <time>2021-03-23T14:34:12Z</time>
      </trkpt>
      <trkpt lat="46.89583" lon="5.82464">
        <ele>567.1</ele>
        <time>2021-03-23T14:34:21Z</time>
      </trkpt>
      <trkpt lat="46.89584" lon="5.82473">
        <ele>564.8</ele>
        <time>2021-03-23T14:34:25Z</time>
      </trkpt>
      <trkpt lat="46.89585" lon="5.82482">
        <ele>562.4</ele>
        <time>2021-03-23T14:34:34Z</time>
      </trkpt>
      <trkpt lat="46.89585" lon="5.82488">
        <ele>561.7</ele>
        <time>2021-03-23T14:34:39Z</time>
      </trkpt>
      <trkpt lat="46.89584" lon="5.82496">
        <ele>560.8</ele>
        <time>2021-03-23T14:34:46Z</time>
      </trkpt>
      <trkpt lat="46.89584" lon="5.82506">
        <ele>560.3</ele>
        <time>2021-03-23T14:34:50Z</time>
      </trkpt>
      <trkpt lat="46.89585" lon="5.82515">
        <ele>558.9</ele>
        <time>2021-03-23T14:35:48Z</time>
      </trkpt>
      <trkpt lat="46.89586" lon="5.82524">
        <ele>558.3</ele>
        <time>2021-03-23T14:35:52Z</time>
      </trkpt>
      <trkpt lat="46.89586" lon="5.82532">
        <ele>557.3</ele>
        <time>2021-03-23T14:36:02Z</time>
      </trkpt>
      <trkpt lat="46.89586" lon="5.8254">
        <ele>556.9</ele>
        <time>2021-03-23T14:36:06Z</time>
      </trkpt>
      <trkpt lat="46.89586" lon="5.82548">
        <ele>556.3</ele>
        <time>2021-03-23T14:36:17Z</time>
      </trkpt>
      <trkpt lat="46.89585" lon="5.82556">
        <ele>555.9</ele>
        <time>2021-03-23T14:36:21Z</time>
      </trkpt>
      <trkpt lat="46.89584" lon="5.82564">
        <ele>554.4</ele>
        <time>2021-03-23T14:36:39Z</time>
      </trkpt>
      <trkpt lat="46.89583" lon="5.82571">
        <ele>553.2</ele>
        <time>2021-03-23T14:36:43Z</time>
      </trkpt>
      <trkpt lat="46.89578" lon="5.82585">
        <ele>552.3</ele>
        <time>2021-03-23T14:36:47Z</time>
      </trkpt>
      <trkpt lat="46.89576" lon="5.82594">
        <ele>553.1</ele>
        <time>2021-03-23T14:36:51Z</time>
      </trkpt>
      <trkpt lat="46.89576" lon="5.82601">
        <ele>554.1</ele>
        <time>2021-03-23T14:36:57Z</time>
      </trkpt>
      <trkpt lat="46.89574" lon="5.8261">
        <ele>554.1</ele>
        <time>2021-03-23T14:37:10Z</time>
      </trkpt>
      <trkpt lat="46.89571" lon="5.82617">
        <ele>552.2</ele>
        <time>2021-03-23T14:37:14Z</time>
      </trkpt>
      <trkpt lat="46.89566" lon="5.8262">
        <ele>548.6</ele>
        <time>2021-03-23T14:37:22Z</time>
      </trkpt>
      <trkpt lat="46.89561" lon="5.82623">
        <ele>543.9</ele>
        <time>2021-03-23T14:37:26Z</time>
      </trkpt>
      <trkpt lat="46.89559" lon="5.8263">
        <ele>540.3</ele>
        <time>2021-03-23T14:37:31Z</time>
      </trkpt>
      <trkpt lat="46.8956" lon="5.82639">
        <ele>538.5</ele>
        <time>2021-03-23T14:37:45Z</time>
      </trkpt>
      <trkpt lat="46.89561" lon="5.82646">
        <ele>541.3</ele>
        <time>2021-03-23T14:37:50Z</time>
      </trkpt>
      <trkpt lat="46.89563" lon="5.82653">
        <ele>544.5</ele>
        <time>2021-03-23T14:38:05Z</time>
      </trkpt>
      <trkpt lat="46.89565" lon="5.82659">
        <ele>545.5</ele>
        <time>2021-03-23T14:38:09Z</time>
      </trkpt>
      <trkpt lat="46.89568" lon="5.82666">
        <ele>547.1</ele>
        <time>2021-03-23T14:38:22Z</time>
      </trkpt>
      <trkpt lat="46.89569" lon="5.82672">
        <ele>548</ele>
        <time>2021-03-23T14:38:27Z</time>
      </trkpt>
      <trkpt lat="46.89567" lon="5.82679">
        <ele>549.4</ele>
        <time>2021-03-23T14:38:41Z</time>
      </trkpt>
      <trkpt lat="46.89565" lon="5.82687">
        <ele>550.1</ele>
        <time>2021-03-23T14:38:45Z</time>
      </trkpt>
      <trkpt lat="46.89564" lon="5.82695">
        <ele>551</ele>
        <time>2021-03-23T14:38:55Z</time>
      </trkpt>
      <trkpt lat="46.89563" lon="5.82703">
        <ele>551.1</ele>
        <time>2021-03-23T14:38:59Z</time>
      </trkpt>
      <trkpt lat="46.89561" lon="5.82711">
        <ele>551.1</ele>
        <time>2021-03-23T14:39:10Z</time>
      </trkpt>
      <trkpt lat="46.89556" lon="5.82722">
        <ele>548</ele>
        <time>2021-03-23T14:39:14Z</time>
      </trkpt>
      <trkpt lat="46.89556" lon="5.82731">
        <ele>545.1</ele>
        <time>2021-03-23T14:39:29Z</time>
      </trkpt>
      <trkpt lat="46.89556" lon="5.82739">
        <ele>544.7</ele>
        <time>2021-03-23T14:39:33Z</time>
      </trkpt>
      <trkpt lat="46.89554" lon="5.82751">
        <ele>545.1</ele>
        <time>2021-03-23T14:39:44Z</time>
      </trkpt>
      <trkpt lat="46.89551" lon="5.82762">
        <ele>545.6</ele>
        <time>2021-03-23T14:39:48Z</time>
      </trkpt>
      <trkpt lat="46.89546" lon="5.82769">
        <ele>546.6</ele>
        <time>2021-03-23T14:39:58Z</time>
      </trkpt>
      <trkpt lat="46.89542" lon="5.82774">
        <ele>546.9</ele>
        <time>2021-03-23T14:40:02Z</time>
      </trkpt>
      <trkpt lat="46.89539" lon="5.82785">
        <ele>548.9</ele>
        <time>2021-03-23T14:40:06Z</time>
      </trkpt>
      <trkpt lat="46.89536" lon="5.82793">
        <ele>550.2</ele>
        <time>2021-03-23T14:40:10Z</time>
      </trkpt>
      <trkpt lat="46.89531" lon="5.82797">
        <ele>550.5</ele>
        <time>2021-03-23T14:41:33Z</time>
      </trkpt>
      <trkpt lat="46.89527" lon="5.82801">
        <ele>548.6</ele>
        <time>2021-03-23T14:41:38Z</time>
      </trkpt>
      <trkpt lat="46.89522" lon="5.82804">
        <ele>546.7</ele>
        <time>2021-03-23T14:41:44Z</time>
      </trkpt>
      <trkpt lat="46.89518" lon="5.82806">
        <ele>545.5</ele>
        <time>2021-03-23T14:41:48Z</time>
      </trkpt>
      <trkpt lat="46.89512" lon="5.82805">
        <ele>546</ele>
        <time>2021-03-23T14:41:54Z</time>
      </trkpt>
      <trkpt lat="46.89505" lon="5.82804">
        <ele>547.1</ele>
        <time>2021-03-23T14:41:58Z</time>
      </trkpt>
      <trkpt lat="46.89499" lon="5.82806">
        <ele>548.4</ele>
        <time>2021-03-23T14:42:14Z</time>
      </trkpt>
      <trkpt lat="46.89494" lon="5.82809">
        <ele>548.2</ele>
        <time>2021-03-23T14:42:18Z</time>
      </trkpt>
      <trkpt lat="46.89488" lon="5.82811">
        <ele>547</ele>
        <time>2021-03-23T14:42:23Z</time>
      </trkpt>
      <trkpt lat="46.89479" lon="5.82811">
        <ele>545.7</ele>
        <time>2021-03-23T14:42:27Z</time>
      </trkpt>
      <trkpt lat="46.89472" lon="5.82811">
        <ele>546.1</ele>
        <time>2021-03-23T14:42:35Z</time>
      </trkpt>
      <trkpt lat="46.89464" lon="5.82805">
        <ele>549.4</ele>
        <time>2021-03-23T14:42:56Z</time>
      </trkpt>
      <trkpt lat="46.89458" lon="5.82801">
        <ele>548</ele>
        <time>2021-03-23T14:43:00Z</time>
      </trkpt>
      <trkpt lat="46.89453" lon="5.82797">
        <ele>547.1</ele>
        <time>2021-03-23T14:43:08Z</time>
      </trkpt>
      <trkpt lat="46.89446" lon="5.82796">
        <ele>548.1</ele>
        <time>2021-03-23T14:43:12Z</time>
      </trkpt>
      <trkpt lat="46.8944" lon="5.82796">
        <ele>549.1</ele>
        <time>2021-03-23T14:43:24Z</time>
      </trkpt>
      <trkpt lat="46.89433" lon="5.82795">
        <ele>549</ele>
        <time>2021-03-23T14:43:28Z</time>
      </trkpt>
      <trkpt lat="46.89425" lon="5.82794">
        <ele>548.4</ele>
        <time>2021-03-23T14:43:38Z</time>
      </trkpt>
      <trkpt lat="46.89418" lon="5.82793">
        <ele>547.6</ele>
        <time>2021-03-23T14:43:42Z</time>
      </trkpt>
      <trkpt lat="46.89413" lon="5.82789">
        <ele>546.1</ele>
        <time>2021-03-23T14:44:01Z</time>
      </trkpt>
      <trkpt lat="46.89408" lon="5.82785">
        <ele>545.7</ele>
        <time>2021-03-23T14:44:05Z</time>
      </trkpt>
      <trkpt lat="46.89402" lon="5.82779">
        <ele>545</ele>
        <time>2021-03-23T14:44:14Z</time>
      </trkpt>
      <trkpt lat="46.89396" lon="5.82772">
        <ele>544.3</ele>
        <time>2021-03-23T14:44:18Z</time>
      </trkpt>
      <trkpt lat="46.89391" lon="5.82769">
        <ele>543.7</ele>
        <time>2021-03-23T14:44:29Z</time>
      </trkpt>
      <trkpt lat="46.89384" lon="5.82764">
        <ele>543.5</ele>
        <time>2021-03-23T14:44:33Z</time>
      </trkpt>
      <trkpt lat="46.8938" lon="5.82761">
        <ele>543.3</ele>
        <time>2021-03-23T14:44:38Z</time>
      </trkpt>
      <trkpt lat="46.89376" lon="5.82754">
        <ele>542.8</ele>
        <time>2021-03-23T14:44:44Z</time>
      </trkpt>
      <trkpt lat="46.89373" lon="5.8275">
        <ele>542.1</ele>
        <time>2021-03-23T14:44:48Z</time>
      </trkpt>
      <trkpt lat="46.89368" lon="5.82745">
        <ele>541</ele>
        <time>2021-03-23T14:44:53Z</time>
      </trkpt>
      <trkpt lat="46.89364" lon="5.82742">
        <ele>540.2</ele>
        <time>2021-03-23T14:44:57Z</time>
      </trkpt>
      <trkpt lat="46.8936" lon="5.82737">
        <ele>539.4</ele>
        <time>2021-03-23T14:45:02Z</time>
      </trkpt>
      <trkpt lat="46.89356" lon="5.82736">
        <ele>538.9</ele>
        <time>2021-03-23T14:45:07Z</time>
      </trkpt>
      <trkpt lat="46.89351" lon="5.82735">
        <ele>538.6</ele>
        <time>2021-03-23T14:45:12Z</time>
      </trkpt>
      <trkpt lat="46.89346" lon="5.82733">
        <ele>538.5</ele>
        <time>2021-03-23T14:45:18Z</time>
      </trkpt>
      <trkpt lat="46.89342" lon="5.8273">
        <ele>538.5</ele>
        <time>2021-03-23T14:45:25Z</time>
      </trkpt>
      <trkpt lat="46.89336" lon="5.82729">
        <ele>542.4</ele>
        <time>2021-03-23T14:45:37Z</time>
      </trkpt>
      <trkpt lat="46.8933" lon="5.82726">
        <ele>546.6</ele>
        <time>2021-03-23T14:45:41Z</time>
      </trkpt>
      <trkpt lat="46.89327" lon="5.82719">
        <ele>550</ele>
        <time>2021-03-23T14:45:47Z</time>
      </trkpt>
      <trkpt lat="46.89322" lon="5.82709">
        <ele>550.5</ele>
        <time>2021-03-23T14:46:02Z</time>
      </trkpt>
      <trkpt lat="46.89317" lon="5.82702">
        <ele>549.6</ele>
        <time>2021-03-23T14:46:06Z</time>
      </trkpt>
      <trkpt lat="46.89311" lon="5.82695">
        <ele>548.3</ele>
        <time>2021-03-23T14:46:21Z</time>
      </trkpt>
      <trkpt lat="46.89307" lon="5.82689">
        <ele>548.3</ele>
        <time>2021-03-23T14:46:25Z</time>
      </trkpt>
      <trkpt lat="46.893" lon="5.82686">
        <ele>547.8</ele>
        <time>2021-03-23T14:46:29Z</time>
      </trkpt>
      <trkpt lat="46.89295" lon="5.82678">
        <ele>547.8</ele>
        <time>2021-03-23T14:46:40Z</time>
      </trkpt>
      <trkpt lat="46.89292" lon="5.82671">
        <ele>548.1</ele>
        <time>2021-03-23T14:46:44Z</time>
      </trkpt>
      <trkpt lat="46.89287" lon="5.82665">
        <ele>547.9</ele>
        <time>2021-03-23T14:46:48Z</time>
      </trkpt>
      <trkpt lat="46.89281" lon="5.82657">
        <ele>546.4</ele>
        <time>2021-03-23T14:47:22Z</time>
      </trkpt>
      <trkpt lat="46.89275" lon="5.8265">
        <ele>545.4</ele>
        <time>2021-03-23T14:47:26Z</time>
      </trkpt>
      <trkpt lat="46.8927" lon="5.82643">
        <ele>543.9</ele>
        <time>2021-03-23T14:47:44Z</time>
      </trkpt>
      <trkpt lat="46.89264" lon="5.82635">
        <ele>543.3</ele>
        <time>2021-03-23T14:47:48Z</time>
      </trkpt>
      <trkpt lat="46.8926" lon="5.82628">
        <ele>542.7</ele>
        <time>2021-03-23T14:47:56Z</time>
      </trkpt>
      <trkpt lat="46.89254" lon="5.82617">
        <ele>542.4</ele>
        <time>2021-03-23T14:48:00Z</time>
      </trkpt>
      <trkpt lat="46.89251" lon="5.82611">
        <ele>541.9</ele>
        <time>2021-03-23T14:48:04Z</time>
      </trkpt>
      <trkpt lat="46.89248" lon="5.82605">
        <ele>541.2</ele>
        <time>2021-03-23T14:48:08Z</time>
      </trkpt>
      <trkpt lat="46.89243" lon="5.82597">
        <ele>539.3</ele>
        <time>2021-03-23T14:48:23Z</time>
      </trkpt>
      <trkpt lat="46.8924" lon="5.82591">
        <ele>538.1</ele>
        <time>2021-03-23T14:48:27Z</time>
      </trkpt>
      <trkpt lat="46.89235" lon="5.82585">
        <ele>535.8</ele>
        <time>2021-03-23T14:48:37Z</time>
      </trkpt>
      <trkpt lat="46.89229" lon="5.82577">
        <ele>533.8</ele>
        <time>2021-03-23T14:48:41Z</time>
      </trkpt>
      <trkpt lat="46.89225" lon="5.82572">
        <ele>532.4</ele>
        <time>2021-03-23T14:48:45Z</time>
      </trkpt>
      <trkpt lat="46.89221" lon="5.82565">
        <ele>530</ele>
        <time>2021-03-23T14:48:57Z</time>
      </trkpt>
      <trkpt lat="46.89217" lon="5.82562">
        <ele>528.6</ele>
        <time>2021-03-23T14:49:01Z</time>
      </trkpt>
      <trkpt lat="46.89212" lon="5.82558">
        <ele>526</ele>
        <time>2021-03-23T14:49:12Z</time>
      </trkpt>
      <trkpt lat="46.89203" lon="5.82549">
        <ele>525.3</ele>
        <time>2021-03-23T14:49:16Z</time>
      </trkpt>
      <trkpt lat="46.89199" lon="5.82545">
        <ele>524.5</ele>
        <time>2021-03-23T14:49:20Z</time>
      </trkpt>
      <trkpt lat="46.89195" lon="5.82536">
        <ele>530.7</ele>
        <time>2021-03-23T14:49:26Z</time>
      </trkpt>
      <trkpt lat="46.89188" lon="5.82527">
        <ele>537.6</ele>
        <time>2021-03-23T14:49:30Z</time>
      </trkpt>
      <trkpt lat="46.89182" lon="5.82518">
        <ele>547.1</ele>
        <time>2021-03-23T14:49:46Z</time>
      </trkpt>
      <trkpt lat="46.89178" lon="5.82512">
        <ele>547.8</ele>
        <time>2021-03-23T14:49:50Z</time>
      </trkpt>
      <trkpt lat="46.89175" lon="5.82507">
        <ele>546.3</ele>
        <time>2021-03-23T14:50:35Z</time>
      </trkpt>
      <trkpt lat="46.89169" lon="5.82505">
        <ele>543.8</ele>
        <time>2021-03-23T14:50:39Z</time>
      </trkpt>
      <trkpt lat="46.89165" lon="5.82502">
        <ele>540.2</ele>
        <time>2021-03-23T14:50:48Z</time>
      </trkpt>
      <trkpt lat="46.89161" lon="5.82493">
        <ele>538.6</ele>
        <time>2021-03-23T14:50:52Z</time>
      </trkpt>
      <trkpt lat="46.89159" lon="5.82484">
        <ele>537.4</ele>
        <time>2021-03-23T14:50:56Z</time>
      </trkpt>
      <trkpt lat="46.89157" lon="5.82475">
        <ele>536.5</ele>
        <time>2021-03-23T14:51:00Z</time>
      </trkpt>
      <trkpt lat="46.89157" lon="5.82466">
        <ele>534.3</ele>
        <time>2021-03-23T14:51:43Z</time>
      </trkpt>
      <trkpt lat="46.89152" lon="5.82454">
        <ele>530.3</ele>
        <time>2021-03-23T14:51:47Z</time>
      </trkpt>
      <trkpt lat="46.89145" lon="5.82435">
        <ele>524.5</ele>
        <time>2021-03-23T14:52:03Z</time>
      </trkpt>
      <trkpt lat="46.89139" lon="5.82418">
        <ele>523.5</ele>
        <time>2021-03-23T14:52:07Z</time>
      </trkpt>
      <trkpt lat="46.89139" lon="5.82405">
        <ele>522.4</ele>
        <time>2021-03-23T14:52:23Z</time>
      </trkpt>
      <trkpt lat="46.8914" lon="5.82396">
        <ele>522.1</ele>
        <time>2021-03-23T14:52:27Z</time>
      </trkpt>
      <trkpt lat="46.8914" lon="5.82387">
        <ele>522.7</ele>
        <time>2021-03-23T14:52:39Z</time>
      </trkpt>
      <trkpt lat="46.89138" lon="5.82377">
        <ele>523.4</ele>
        <time>2021-03-23T14:52:43Z</time>
      </trkpt>
      <trkpt lat="46.89133" lon="5.8237">
        <ele>522.9</ele>
        <time>2021-03-23T14:52:47Z</time>
      </trkpt>
      <trkpt lat="46.89126" lon="5.82361">
        <ele>522.5</ele>
        <time>2021-03-23T14:53:01Z</time>
      </trkpt>
      <trkpt lat="46.8912" lon="5.82351">
        <ele>523.5</ele>
        <time>2021-03-23T14:53:05Z</time>
      </trkpt>
      <trkpt lat="46.89115" lon="5.82343">
        <ele>523.8</ele>
        <time>2021-03-23T14:53:20Z</time>
      </trkpt>
      <trkpt lat="46.89112" lon="5.82338">
        <ele>522.4</ele>
        <time>2021-03-23T14:53:24Z</time>
      </trkpt>
      <trkpt lat="46.89108" lon="5.82333">
        <ele>520</ele>
        <time>2021-03-23T14:53:38Z</time>
      </trkpt>
      <trkpt lat="46.89103" lon="5.82328">
        <ele>517.4</ele>
        <time>2021-03-23T14:53:42Z</time>
      </trkpt>
      <trkpt lat="46.89098" lon="5.82324">
        <ele>514.2</ele>
        <time>2021-03-23T14:53:49Z</time>
      </trkpt>
      <trkpt lat="46.89093" lon="5.8232">
        <ele>512</ele>
        <time>2021-03-23T14:53:53Z</time>
      </trkpt>
      <trkpt lat="46.89085" lon="5.82315">
        <ele>512.1</ele>
        <time>2021-03-23T14:53:57Z</time>
      </trkpt>
      <trkpt lat="46.8908" lon="5.82311">
        <ele>512.9</ele>
        <time>2021-03-23T14:54:01Z</time>
      </trkpt>
      <trkpt lat="46.89075" lon="5.82306">
        <ele>512</ele>
        <time>2021-03-23T14:54:14Z</time>
      </trkpt>
      <trkpt lat="46.89071" lon="5.82302">
        <ele>510.1</ele>
        <time>2021-03-23T14:54:18Z</time>
      </trkpt>
      <trkpt lat="46.89066" lon="5.82297">
        <ele>507</ele>
        <time>2021-03-23T14:54:33Z</time>
      </trkpt>
      <trkpt lat="46.89061" lon="5.82292">
        <ele>505.8</ele>
        <time>2021-03-23T14:54:37Z</time>
      </trkpt>
      <trkpt lat="46.89057" lon="5.82285">
        <ele>503.4</ele>
        <time>2021-03-23T14:54:48Z</time>
      </trkpt>
      <trkpt lat="46.89054" lon="5.82278">
        <ele>502</ele>
        <time>2021-03-23T14:54:52Z</time>
      </trkpt>
      <trkpt lat="46.89051" lon="5.82272">
        <ele>499.8</ele>
        <time>2021-03-23T14:55:00Z</time>
      </trkpt>
      <trkpt lat="46.89047" lon="5.82265">
        <ele>498.5</ele>
        <time>2021-03-23T14:55:04Z</time>
      </trkpt>
      <trkpt lat="46.89042" lon="5.8226">
        <ele>495.9</ele>
        <time>2021-03-23T14:55:17Z</time>
      </trkpt>
      <trkpt lat="46.89038" lon="5.82254">
        <ele>494.5</ele>
        <time>2021-03-23T14:55:21Z</time>
      </trkpt>
      <trkpt lat="46.89025" lon="5.82245">
        <ele>492.3</ele>
        <time>2021-03-23T14:55:27Z</time>
      </trkpt>
      <trkpt lat="46.89013" lon="5.82237">
        <ele>490.7</ele>
        <time>2021-03-23T14:55:31Z</time>
      </trkpt>
      <trkpt lat="46.89007" lon="5.82232">
        <ele>487.8</ele>
        <time>2021-03-23T14:55:47Z</time>
      </trkpt>
      <trkpt lat="46.89004" lon="5.82227">
        <ele>486.4</ele>
        <time>2021-03-23T14:55:54Z</time>
      </trkpt>
      <trkpt lat="46.89" lon="5.82219">
        <ele>485.7</ele>
        <time>2021-03-23T14:55:58Z</time>
      </trkpt>
      <trkpt lat="46.88998" lon="5.82213">
        <ele>485.1</ele>
        <time>2021-03-23T14:56:02Z</time>
      </trkpt>
      <trkpt lat="46.88994" lon="5.82206">
        <ele>484.1</ele>
        <time>2021-03-23T14:56:14Z</time>
      </trkpt>
      <trkpt lat="46.88987" lon="5.82194">
        <ele>483.4</ele>
        <time>2021-03-23T14:56:18Z</time>
      </trkpt>
      <trkpt lat="46.88983" lon="5.82185">
        <ele>482.8</ele>
        <time>2021-03-23T14:56:22Z</time>
      </trkpt>
      <trkpt lat="46.88978" lon="5.82176">
        <ele>482.3</ele>
        <time>2021-03-23T14:56:33Z</time>
      </trkpt>
      <trkpt lat="46.88975" lon="5.82169">
        <ele>482.4</ele>
        <time>2021-03-23T14:56:37Z</time>
      </trkpt>
      <trkpt lat="46.88971" lon="5.82163">
        <ele>482</ele>
        <time>2021-03-23T14:56:42Z</time>
      </trkpt>
      <trkpt lat="46.88969" lon="5.82157">
        <ele>482.1</ele>
        <time>2021-03-23T14:56:46Z</time>
      </trkpt>
      <trkpt lat="46.88965" lon="5.8215">
        <ele>482.5</ele>
        <time>2021-03-23T14:56:56Z</time>
      </trkpt>
      <trkpt lat="46.88959" lon="5.82141">
        <ele>483.3</ele>
        <time>2021-03-23T14:57:00Z</time>
      </trkpt>
      <trkpt lat="46.88957" lon="5.82135">
        <ele>484</ele>
        <time>2021-03-23T14:57:04Z</time>
      </trkpt>
      <trkpt lat="46.88954" lon="5.82129">
        <ele>483.7</ele>
        <time>2021-03-23T14:57:08Z</time>
      </trkpt>
      <trkpt lat="46.88947" lon="5.82119">
        <ele>482.5</ele>
        <time>2021-03-23T14:57:17Z</time>
      </trkpt>
      <trkpt lat="46.88943" lon="5.82109">
        <ele>482.8</ele>
        <time>2021-03-23T14:57:21Z</time>
      </trkpt>
      <trkpt lat="46.88946" lon="5.82114">
        <ele>482.5</ele>
        <time>2021-03-23T14:58:12Z</time>
      </trkpt>
      <trkpt lat="46.88948" lon="5.8212">
        <ele>482.4</ele>
        <time>2021-03-23T14:58:16Z</time>
      </trkpt>
      <trkpt lat="46.88952" lon="5.82125">
        <ele>483.3</ele>
        <time>2021-03-23T15:05:15Z</time>
      </trkpt>
      <trkpt lat="46.88955" lon="5.8213">
        <ele>485</ele>
        <time>2021-03-23T15:05:22Z</time>
      </trkpt>
      <trkpt lat="46.88951" lon="5.82127">
        <ele>486.3</ele>
        <time>2021-03-23T15:07:29Z</time>
      </trkpt>
      <trkpt lat="46.88946" lon="5.8212">
        <ele>486.3</ele>
        <time>2021-03-23T15:07:33Z</time>
      </trkpt>
      <trkpt lat="46.88943" lon="5.82115">
        <ele>486.2</ele>
        <time>2021-03-23T15:07:38Z</time>
      </trkpt>
      <trkpt lat="46.88941" lon="5.82106">
        <ele>486.3</ele>
        <time>2021-03-23T15:07:57Z</time>
      </trkpt>
      <trkpt lat="46.88941" lon="5.82094">
        <ele>486.6</ele>
        <time>2021-03-23T15:08:01Z</time>
      </trkpt>
      <trkpt lat="46.88938" lon="5.82088">
        <ele>486.6</ele>
        <time>2021-03-23T15:08:06Z</time>
      </trkpt>
      <trkpt lat="46.88938" lon="5.82079">
        <ele>486.6</ele>
        <time>2021-03-23T15:08:18Z</time>
      </trkpt>
      <trkpt lat="46.88937" lon="5.82068">
        <ele>486.6</ele>
        <time>2021-03-23T15:08:22Z</time>
      </trkpt>
      <trkpt lat="46.88936" lon="5.82061">
        <ele>486.7</ele>
        <time>2021-03-23T15:08:26Z</time>
      </trkpt>
      <trkpt lat="46.88934" lon="5.8205">
        <ele>487</ele>
        <time>2021-03-23T15:08:42Z</time>
      </trkpt>
      <trkpt lat="46.88935" lon="5.82044">
        <ele>487.3</ele>
        <time>2021-03-23T15:08:46Z</time>
      </trkpt>
      <trkpt lat="46.88933" lon="5.82031">
        <ele>490.3</ele>
        <time>2021-03-23T15:08:53Z</time>
      </trkpt>
      <trkpt lat="46.88929" lon="5.82016">
        <ele>493.1</ele>
        <time>2021-03-23T15:08:57Z</time>
      </trkpt>
      <trkpt lat="46.8892" lon="5.82012">
        <ele>489.6</ele>
        <time>2021-03-23T15:09:01Z</time>
      </trkpt>
      <trkpt lat="46.8892" lon="5.82003">
        <ele>487.6</ele>
        <time>2021-03-23T15:09:07Z</time>
      </trkpt>
      <trkpt lat="46.88922" lon="5.81996">
        <ele>487.3</ele>
        <time>2021-03-23T15:09:11Z</time>
      </trkpt>
      <trkpt lat="46.88921" lon="5.81989">
        <ele>485.7</ele>
        <time>2021-03-23T15:09:17Z</time>
      </trkpt>
      <trkpt lat="46.88924" lon="5.81981">
        <ele>486.3</ele>
        <time>2021-03-23T15:09:23Z</time>
      </trkpt>
      <trkpt lat="46.88926" lon="5.8197">
        <ele>486.8</ele>
        <time>2021-03-23T15:09:27Z</time>
      </trkpt>
      <trkpt lat="46.88925" lon="5.81963">
        <ele>486.9</ele>
        <time>2021-03-23T15:09:32Z</time>
      </trkpt>
      <trkpt lat="46.88922" lon="5.81957">
        <ele>486.4</ele>
        <time>2021-03-23T15:09:37Z</time>
      </trkpt>
      <trkpt lat="46.88919" lon="5.81946">
        <ele>484.4</ele>
        <time>2021-03-23T15:09:57Z</time>
      </trkpt>
      <trkpt lat="46.88908" lon="5.81925">
        <ele>475.4</ele>
        <time>2021-03-23T15:10:01Z</time>
      </trkpt>
      <trkpt lat="46.88905" lon="5.81919">
        <ele>469.4</ele>
        <time>2021-03-23T15:10:06Z</time>
      </trkpt>
      <trkpt lat="46.88909" lon="5.8191">
        <ele>465.9</ele>
        <time>2021-03-23T15:10:10Z</time>
      </trkpt>
      <trkpt lat="46.8891" lon="5.819">
        <ele>463.6</ele>
        <time>2021-03-23T15:10:26Z</time>
      </trkpt>
      <trkpt lat="46.88909" lon="5.8189">
        <ele>466.5</ele>
        <time>2021-03-23T15:10:30Z</time>
      </trkpt>
      <trkpt lat="46.8891" lon="5.81881">
        <ele>470.2</ele>
        <time>2021-03-23T15:10:50Z</time>
      </trkpt>
      <trkpt lat="46.8891" lon="5.81874">
        <ele>470.2</ele>
        <time>2021-03-23T15:10:54Z</time>
      </trkpt>
      <trkpt lat="46.8891" lon="5.81862">
        <ele>471</ele>
        <time>2021-03-23T15:11:04Z</time>
      </trkpt>
      <trkpt lat="46.88909" lon="5.81853">
        <ele>471.6</ele>
        <time>2021-03-23T15:11:08Z</time>
      </trkpt>
      <trkpt lat="46.88908" lon="5.81844">
        <ele>472.1</ele>
        <time>2021-03-23T15:11:24Z</time>
      </trkpt>
      <trkpt lat="46.88905" lon="5.81835">
        <ele>471.2</ele>
        <time>2021-03-23T15:11:28Z</time>
      </trkpt>
      <trkpt lat="46.88903" lon="5.81827">
        <ele>469.5</ele>
        <time>2021-03-23T15:11:36Z</time>
      </trkpt>
      <trkpt lat="46.889" lon="5.81817">
        <ele>468.1</ele>
        <time>2021-03-23T15:11:40Z</time>
      </trkpt>
      <trkpt lat="46.88897" lon="5.81808">
        <ele>464.9</ele>
        <time>2021-03-23T15:11:52Z</time>
      </trkpt>
      <trkpt lat="46.88895" lon="5.81802">
        <ele>463.7</ele>
        <time>2021-03-23T15:11:56Z</time>
      </trkpt>
      <trkpt lat="46.88893" lon="5.81796">
        <ele>461.7</ele>
        <time>2021-03-23T15:12:01Z</time>
      </trkpt>
      <trkpt lat="46.8889" lon="5.81788">
        <ele>459.8</ele>
        <time>2021-03-23T15:12:05Z</time>
      </trkpt>
      <trkpt lat="46.88886" lon="5.8178">
        <ele>456.4</ele>
        <time>2021-03-23T15:12:16Z</time>
      </trkpt>
      <trkpt lat="46.88883" lon="5.81772">
        <ele>453.9</ele>
        <time>2021-03-23T15:12:20Z</time>
      </trkpt>
      <trkpt lat="46.88881" lon="5.81765">
        <ele>450.8</ele>
        <time>2021-03-23T15:12:28Z</time>
      </trkpt>
      <trkpt lat="46.8888" lon="5.81756">
        <ele>449.2</ele>
        <time>2021-03-23T15:12:32Z</time>
      </trkpt>
      <trkpt lat="46.88878" lon="5.81748">
        <ele>447.1</ele>
        <time>2021-03-23T15:12:41Z</time>
      </trkpt>
      <trkpt lat="46.88871" lon="5.81732">
        <ele>445.2</ele>
        <time>2021-03-23T15:12:45Z</time>
      </trkpt>
      <trkpt lat="46.88867" lon="5.81724">
        <ele>443.5</ele>
        <time>2021-03-23T15:12:49Z</time>
      </trkpt>
      <trkpt lat="46.88863" lon="5.81719">
        <ele>442</ele>
        <time>2021-03-23T15:12:54Z</time>
      </trkpt>
      <trkpt lat="46.88859" lon="5.81713">
        <ele>441.3</ele>
        <time>2021-03-23T15:12:58Z</time>
      </trkpt>
      <trkpt lat="46.88854" lon="5.81704">
        <ele>440</ele>
        <time>2021-03-23T15:13:10Z</time>
      </trkpt>
      <trkpt lat="46.8885" lon="5.81696">
        <ele>439.2</ele>
        <time>2021-03-23T15:13:14Z</time>
      </trkpt>
      <trkpt lat="46.88847" lon="5.81688">
        <ele>437.9</ele>
        <time>2021-03-23T15:13:25Z</time>
      </trkpt>
      <trkpt lat="46.88845" lon="5.81681">
        <ele>437.1</ele>
        <time>2021-03-23T15:13:29Z</time>
      </trkpt>
      <trkpt lat="46.88841" lon="5.81672">
        <ele>436.7</ele>
        <time>2021-03-23T15:13:33Z</time>
      </trkpt>
      <trkpt lat="46.88838" lon="5.81665">
        <ele>436.1</ele>
        <time>2021-03-23T15:13:37Z</time>
      </trkpt>
      <trkpt lat="46.88834" lon="5.81659">
        <ele>435.8</ele>
        <time>2021-03-23T15:13:41Z</time>
      </trkpt>
      <trkpt lat="46.88831" lon="5.81654">
        <ele>435.4</ele>
        <time>2021-03-23T15:13:46Z</time>
      </trkpt>
      <trkpt lat="46.88829" lon="5.81648">
        <ele>435.1</ele>
        <time>2021-03-23T15:13:50Z</time>
      </trkpt>
      <trkpt lat="46.88826" lon="5.8164">
        <ele>435.3</ele>
        <time>2021-03-23T15:13:59Z</time>
      </trkpt>
      <trkpt lat="46.88824" lon="5.81634">
        <ele>435.4</ele>
        <time>2021-03-23T15:14:03Z</time>
      </trkpt>
      <trkpt lat="46.88821" lon="5.81626">
        <ele>435.6</ele>
        <time>2021-03-23T15:14:15Z</time>
      </trkpt>
      <trkpt lat="46.88818" lon="5.81619">
        <ele>435.6</ele>
        <time>2021-03-23T15:14:19Z</time>
      </trkpt>
      <trkpt lat="46.88814" lon="5.81613">
        <ele>435.2</ele>
        <time>2021-03-23T15:14:26Z</time>
      </trkpt>
      <trkpt lat="46.8881" lon="5.81607">
        <ele>434.7</ele>
        <time>2021-03-23T15:14:30Z</time>
      </trkpt>
      <trkpt lat="46.88804" lon="5.81599">
        <ele>433.6</ele>
        <time>2021-03-23T15:14:34Z</time>
      </trkpt>
      <trkpt lat="46.88799" lon="5.81595">
        <ele>432.8</ele>
        <time>2021-03-23T15:14:38Z</time>
      </trkpt>
      <trkpt lat="46.88794" lon="5.8159">
        <ele>431.4</ele>
        <time>2021-03-23T15:14:46Z</time>
      </trkpt>
      <trkpt lat="46.8879" lon="5.81586">
        <ele>430.5</ele>
        <time>2021-03-23T15:14:50Z</time>
      </trkpt>
      <trkpt lat="46.88785" lon="5.81581">
        <ele>429.4</ele>
        <time>2021-03-23T15:15:00Z</time>
      </trkpt>
      <trkpt lat="46.88781" lon="5.81577">
        <ele>429</ele>
        <time>2021-03-23T15:15:04Z</time>
      </trkpt>
      <trkpt lat="46.88777" lon="5.81572">
        <ele>428.5</ele>
        <time>2021-03-23T15:15:09Z</time>
      </trkpt>
      <trkpt lat="46.8877" lon="5.81563">
        <ele>427.5</ele>
        <time>2021-03-23T15:15:13Z</time>
      </trkpt>
      <trkpt lat="46.88763" lon="5.81556">
        <ele>424.5</ele>
        <time>2021-03-23T15:15:23Z</time>
      </trkpt>
      <trkpt lat="46.88758" lon="5.81549">
        <ele>422.8</ele>
        <time>2021-03-23T15:15:27Z</time>
      </trkpt>
      <trkpt lat="46.88755" lon="5.81542">
        <ele>421.9</ele>
        <time>2021-03-23T15:15:31Z</time>
      </trkpt>
      <trkpt lat="46.88752" lon="5.81534">
        <ele>420.7</ele>
        <time>2021-03-23T15:15:40Z</time>
      </trkpt>
      <trkpt lat="46.88748" lon="5.81528">
        <ele>419.8</ele>
        <time>2021-03-23T15:15:44Z</time>
      </trkpt>
      <trkpt lat="46.88744" lon="5.81522">
        <ele>418.6</ele>
        <time>2021-03-23T15:15:49Z</time>
      </trkpt>
      <trkpt lat="46.8874" lon="5.81518">
        <ele>417.6</ele>
        <time>2021-03-23T15:15:54Z</time>
      </trkpt>
      <trkpt lat="46.88737" lon="5.81512">
        <ele>416.5</ele>
        <time>2021-03-23T15:16:00Z</time>
      </trkpt>
      <trkpt lat="46.88733" lon="5.81504">
        <ele>415.6</ele>
        <time>2021-03-23T15:16:04Z</time>
      </trkpt>
      <trkpt lat="46.8873" lon="5.81499">
        <ele>415.1</ele>
        <time>2021-03-23T15:16:08Z</time>
      </trkpt>
      <trkpt lat="46.88724" lon="5.81487">
        <ele>415.6</ele>
        <time>2021-03-23T15:16:12Z</time>
      </trkpt>
      <trkpt lat="46.8872" lon="5.81478">
        <ele>416.7</ele>
        <time>2021-03-23T15:16:16Z</time>
      </trkpt>
      <trkpt lat="46.88716" lon="5.8147">
        <ele>418.6</ele>
        <time>2021-03-23T15:16:20Z</time>
      </trkpt>
      <trkpt lat="46.88712" lon="5.81464">
        <ele>419.6</ele>
        <time>2021-03-23T15:16:24Z</time>
      </trkpt>
      <trkpt lat="46.88708" lon="5.81456">
        <ele>420.3</ele>
        <time>2021-03-23T15:16:42Z</time>
      </trkpt>
      <trkpt lat="46.88705" lon="5.81449">
        <ele>419.7</ele>
        <time>2021-03-23T15:16:46Z</time>
      </trkpt>
      <trkpt lat="46.88702" lon="5.81429">
        <ele>425.8</ele>
        <time>2021-03-23T15:16:50Z</time>
      </trkpt>
      <trkpt lat="46.88701" lon="5.81417">
        <ele>430.2</ele>
        <time>2021-03-23T15:16:54Z</time>
      </trkpt>
      <trkpt lat="46.88699" lon="5.81409">
        <ele>432.9</ele>
        <time>2021-03-23T15:16:58Z</time>
      </trkpt>
      <trkpt lat="46.88695" lon="5.81403">
        <ele>435.1</ele>
        <time>2021-03-23T15:17:04Z</time>
      </trkpt>
      <trkpt lat="46.88691" lon="5.81398">
        <ele>435.8</ele>
        <time>2021-03-23T15:17:08Z</time>
      </trkpt>
      <trkpt lat="46.88687" lon="5.81394">
        <ele>433.3</ele>
        <time>2021-03-23T15:17:12Z</time>
      </trkpt>
      <trkpt lat="46.88679" lon="5.81386">
        <ele>426.8</ele>
        <time>2021-03-23T15:17:27Z</time>
      </trkpt>
      <trkpt lat="46.88673" lon="5.81378">
        <ele>423.2</ele>
        <time>2021-03-23T15:17:31Z</time>
      </trkpt>
      <trkpt lat="46.8867" lon="5.81371">
        <ele>420.4</ele>
        <time>2021-03-23T15:17:38Z</time>
      </trkpt>
      <trkpt lat="46.88667" lon="5.81362">
        <ele>421.7</ele>
        <time>2021-03-23T15:17:42Z</time>
      </trkpt>
      <trkpt lat="46.88664" lon="5.81354">
        <ele>423.3</ele>
        <time>2021-03-23T15:17:53Z</time>
      </trkpt>
      <trkpt lat="46.8866" lon="5.81345">
        <ele>423.7</ele>
        <time>2021-03-23T15:17:57Z</time>
      </trkpt>
      <trkpt lat="46.88656" lon="5.81339">
        <ele>423.7</ele>
        <time>2021-03-23T15:18:02Z</time>
      </trkpt>
      <trkpt lat="46.88652" lon="5.81332">
        <ele>423.8</ele>
        <time>2021-03-23T15:18:06Z</time>
      </trkpt>
      <trkpt lat="46.88647" lon="5.81326">
        <ele>422.7</ele>
        <time>2021-03-23T15:18:13Z</time>
      </trkpt>
      <trkpt lat="46.88643" lon="5.81322">
        <ele>421.2</ele>
        <time>2021-03-23T15:18:17Z</time>
      </trkpt>
      <trkpt lat="46.88638" lon="5.81318">
        <ele>418.8</ele>
        <time>2021-03-23T15:18:29Z</time>
      </trkpt>
      <trkpt lat="46.88632" lon="5.81313">
        <ele>417.8</ele>
        <time>2021-03-23T15:18:33Z</time>
      </trkpt>
      <trkpt lat="46.88628" lon="5.81308">
        <ele>416.4</ele>
        <time>2021-03-23T15:18:40Z</time>
      </trkpt>
      <trkpt lat="46.8862" lon="5.81297">
        <ele>414.8</ele>
        <time>2021-03-23T15:18:44Z</time>
      </trkpt>
      <trkpt lat="46.88616" lon="5.81291">
        <ele>413</ele>
        <time>2021-03-23T15:18:50Z</time>
      </trkpt>
      <trkpt lat="46.88609" lon="5.81283">
        <ele>412</ele>
        <time>2021-03-23T15:18:54Z</time>
      </trkpt>
      <trkpt lat="46.88603" lon="5.81276">
        <ele>410.2</ele>
        <time>2021-03-23T15:19:17Z</time>
      </trkpt>
      <trkpt lat="46.88599" lon="5.81273">
        <ele>410.5</ele>
        <time>2021-03-23T15:19:22Z</time>
      </trkpt>
      <trkpt lat="46.88595" lon="5.81267">
        <ele>411.2</ele>
        <time>2021-03-23T15:21:03Z</time>
      </trkpt>
      <trkpt lat="46.88588" lon="5.81258">
        <ele>412.4</ele>
        <time>2021-03-23T15:21:24Z</time>
      </trkpt>
      <trkpt lat="46.88585" lon="5.81253">
        <ele>412.1</ele>
        <time>2021-03-23T15:21:28Z</time>
      </trkpt>
      <trkpt lat="46.88581" lon="5.81243">
        <ele>414.5</ele>
        <time>2021-03-23T15:21:33Z</time>
      </trkpt>
      <trkpt lat="46.88576" lon="5.81234">
        <ele>416.6</ele>
        <time>2021-03-23T15:21:37Z</time>
      </trkpt>
      <trkpt lat="46.88571" lon="5.81229">
        <ele>417.3</ele>
        <time>2021-03-23T15:21:43Z</time>
      </trkpt>
      <trkpt lat="46.88567" lon="5.81225">
        <ele>416.7</ele>
        <time>2021-03-23T15:21:47Z</time>
      </trkpt>
      <trkpt lat="46.88558" lon="5.81219">
        <ele>411.7</ele>
        <time>2021-03-23T15:22:00Z</time>
      </trkpt>
      <trkpt lat="46.88549" lon="5.81215">
        <ele>406.8</ele>
        <time>2021-03-23T15:22:04Z</time>
      </trkpt>
      <trkpt lat="46.88544" lon="5.81211">
        <ele>403.2</ele>
        <time>2021-03-23T15:22:08Z</time>
      </trkpt>
      <trkpt lat="46.88539" lon="5.81204">
        <ele>397</ele>
        <time>2021-03-23T15:22:23Z</time>
      </trkpt>
      <trkpt lat="46.88532" lon="5.81194">
        <ele>395.4</ele>
        <time>2021-03-23T15:22:27Z</time>
      </trkpt>
      <trkpt lat="46.88523" lon="5.81188">
        <ele>396</ele>
        <time>2021-03-23T15:22:41Z</time>
      </trkpt>
      <trkpt lat="46.88514" lon="5.81181">
        <ele>400</ele>
        <time>2021-03-23T15:22:45Z</time>
      </trkpt>
      <trkpt lat="46.88506" lon="5.81179">
        <ele>404.2</ele>
        <time>2021-03-23T15:22:51Z</time>
      </trkpt>
      <trkpt lat="46.88501" lon="5.81179">
        <ele>405.8</ele>
        <time>2021-03-23T15:22:55Z</time>
      </trkpt>
      <trkpt lat="46.88496" lon="5.81176">
        <ele>406.9</ele>
        <time>2021-03-23T15:23:04Z</time>
      </trkpt>
      <trkpt lat="46.8849" lon="5.81173">
        <ele>406.5</ele>
        <time>2021-03-23T15:23:08Z</time>
      </trkpt>
      <trkpt lat="46.88486" lon="5.81167">
        <ele>405.8</ele>
        <time>2021-03-23T15:23:20Z</time>
      </trkpt>
      <trkpt lat="46.88481" lon="5.81162">
        <ele>405.3</ele>
        <time>2021-03-23T15:23:24Z</time>
      </trkpt>
      <trkpt lat="46.88476" lon="5.81156">
        <ele>404.7</ele>
        <time>2021-03-23T15:23:31Z</time>
      </trkpt>
      <trkpt lat="46.8847" lon="5.8115">
        <ele>404.3</ele>
        <time>2021-03-23T15:23:35Z</time>
      </trkpt>
      <trkpt lat="46.88465" lon="5.81143">
        <ele>403.3</ele>
        <time>2021-03-23T15:23:39Z</time>
      </trkpt>
      <trkpt lat="46.88458" lon="5.81136">
        <ele>401.6</ele>
        <time>2021-03-23T15:23:50Z</time>
      </trkpt>
      <trkpt lat="46.88453" lon="5.81131">
        <ele>401</ele>
        <time>2021-03-23T15:23:54Z</time>
      </trkpt>
      <trkpt lat="46.88444" lon="5.8112">
        <ele>399.4</ele>
        <time>2021-03-23T15:23:58Z</time>
      </trkpt>
      <trkpt lat="46.88439" lon="5.81116">
        <ele>398</ele>
        <time>2021-03-23T15:24:02Z</time>
      </trkpt>
      <trkpt lat="46.88435" lon="5.81109">
        <ele>395.7</ele>
        <time>2021-03-23T15:24:15Z</time>
      </trkpt>
      <trkpt lat="46.88433" lon="5.81101">
        <ele>394.5</ele>
        <time>2021-03-23T15:24:19Z</time>
      </trkpt>
      <trkpt lat="46.88434" lon="5.81073">
        <ele>400.5</ele>
        <time>2021-03-23T15:24:23Z</time>
      </trkpt>
      <trkpt lat="46.88435" lon="5.81065">
        <ele>404.2</ele>
        <time>2021-03-23T15:24:27Z</time>
      </trkpt>
      <trkpt lat="46.88438" lon="5.81059">
        <ele>406.1</ele>
        <time>2021-03-23T15:24:31Z</time>
      </trkpt>
      <trkpt lat="46.88443" lon="5.81054">
        <ele>407.3</ele>
        <time>2021-03-23T15:24:43Z</time>
      </trkpt>
      <trkpt lat="46.88448" lon="5.81049">
        <ele>406.5</ele>
        <time>2021-03-23T15:24:47Z</time>
      </trkpt>
      <trkpt lat="46.88454" lon="5.81045">
        <ele>404.7</ele>
        <time>2021-03-23T15:24:59Z</time>
      </trkpt>
      <trkpt lat="46.88458" lon="5.81042">
        <ele>403.7</ele>
        <time>2021-03-23T15:25:03Z</time>
      </trkpt>
      <trkpt lat="46.88464" lon="5.8104">
        <ele>399.6</ele>
        <time>2021-03-23T15:25:09Z</time>
      </trkpt>
      <trkpt lat="46.8847" lon="5.81039">
        <ele>396.4</ele>
        <time>2021-03-23T15:25:13Z</time>
      </trkpt>
      <trkpt lat="46.88477" lon="5.81036">
        <ele>395.4</ele>
        <time>2021-03-23T15:25:17Z</time>
      </trkpt>
      <trkpt lat="46.88482" lon="5.81035">
        <ele>395.3</ele>
        <time>2021-03-23T15:25:21Z</time>
      </trkpt>
      <trkpt lat="46.88487" lon="5.81035">
        <ele>396.2</ele>
        <time>2021-03-23T15:25:27Z</time>
      </trkpt>
      <trkpt lat="46.88495" lon="5.81035">
        <ele>397.4</ele>
        <time>2021-03-23T15:25:31Z</time>
      </trkpt>
      <trkpt lat="46.88503" lon="5.81035">
        <ele>399.7</ele>
        <time>2021-03-23T15:25:45Z</time>
      </trkpt>
      <trkpt lat="46.88509" lon="5.81034">
        <ele>400.2</ele>
        <time>2021-03-23T15:25:49Z</time>
      </trkpt>
      <trkpt lat="46.88514" lon="5.81034">
        <ele>400.2</ele>
        <time>2021-03-23T15:25:54Z</time>
      </trkpt>
      <trkpt lat="46.88523" lon="5.81033">
        <ele>397.7</ele>
        <time>2021-03-23T15:26:09Z</time>
      </trkpt>
      <trkpt lat="46.88531" lon="5.81031">
        <ele>394.7</ele>
        <time>2021-03-23T15:26:13Z</time>
      </trkpt>
      <trkpt lat="46.88535" lon="5.81031">
        <ele>391.4</ele>
        <time>2021-03-23T15:26:23Z</time>
      </trkpt>
      <trkpt lat="46.8854" lon="5.81032">
        <ele>390.4</ele>
        <time>2021-03-23T15:26:28Z</time>
      </trkpt>
      <trkpt lat="46.88547" lon="5.81033">
        <ele>389.3</ele>
        <time>2021-03-23T15:26:32Z</time>
      </trkpt>
      <trkpt lat="46.88553" lon="5.81033">
        <ele>387.6</ele>
        <time>2021-03-23T15:26:43Z</time>
      </trkpt>
      <trkpt lat="46.88559" lon="5.81032">
        <ele>387.3</ele>
        <time>2021-03-23T15:26:47Z</time>
      </trkpt>
      <trkpt lat="46.88561" lon="5.81041">
        <ele>387.8</ele>
        <time>2021-03-23T15:27:17Z</time>
      </trkpt>
      <trkpt lat="46.88563" lon="5.81051">
        <ele>388.2</ele>
        <time>2021-03-23T15:27:21Z</time>
      </trkpt>
      <trkpt lat="46.88558" lon="5.81047">
        <ele>389.1</ele>
        <time>2021-03-23T15:27:27Z</time>
      </trkpt>
      <trkpt lat="46.88563" lon="5.8104">
        <ele>393.8</ele>
        <time>2021-03-23T15:27:31Z</time>
      </trkpt>
      <trkpt lat="46.88566" lon="5.81034">
        <ele>398.8</ele>
        <time>2021-03-23T15:28:03Z</time>
      </trkpt>
      <trkpt lat="46.88571" lon="5.81032">
        <ele>392.9</ele>
        <time>2021-03-23T15:28:11Z</time>
      </trkpt>
      <trkpt lat="46.88576" lon="5.8103">
        <ele>391.9</ele>
        <time>2021-03-23T15:28:15Z</time>
      </trkpt>
      <trkpt lat="46.88581" lon="5.81027">
        <ele>391.2</ele>
        <time>2021-03-23T15:28:20Z</time>
      </trkpt>
      <trkpt lat="46.88586" lon="5.81024">
        <ele>391.1</ele>
        <time>2021-03-23T15:28:24Z</time>
      </trkpt>
      <trkpt lat="46.88591" lon="5.8102">
        <ele>390.4</ele>
        <time>2021-03-23T15:28:28Z</time>
      </trkpt>
      <trkpt lat="46.88595" lon="5.81015">
        <ele>389.9</ele>
        <time>2021-03-23T15:28:32Z</time>
      </trkpt>
      <trkpt lat="46.88599" lon="5.81012">
        <ele>390</ele>
        <time>2021-03-23T15:28:36Z</time>
      </trkpt>
      <trkpt lat="46.88604" lon="5.81007">
        <ele>390.6</ele>
        <time>2021-03-23T15:28:40Z</time>
      </trkpt>
      <trkpt lat="46.88608" lon="5.81003">
        <ele>391.8</ele>
        <time>2021-03-23T15:28:45Z</time>
      </trkpt>
      <trkpt lat="46.88607" lon="5.80994">
        <ele>391.5</ele>
        <time>2021-03-23T15:28:56Z</time>
      </trkpt>
      <trkpt lat="46.88606" lon="5.80984">
        <ele>389.8</ele>
        <time>2021-03-23T15:29:00Z</time>
      </trkpt>
      <trkpt lat="46.88603" lon="5.80977">
        <ele>386.5</ele>
        <time>2021-03-23T15:29:04Z</time>
      </trkpt>
      <trkpt lat="46.88598" lon="5.80969">
        <ele>382.2</ele>
        <time>2021-03-23T15:29:17Z</time>
      </trkpt>
      <trkpt lat="46.88593" lon="5.8096">
        <ele>380.3</ele>
        <time>2021-03-23T15:29:21Z</time>
      </trkpt>
      <trkpt lat="46.8859" lon="5.80954">
        <ele>378.1</ele>
        <time>2021-03-23T15:29:25Z</time>
      </trkpt>
      <trkpt lat="46.88586" lon="5.80948">
        <ele>376.1</ele>
        <time>2021-03-23T15:29:31Z</time>
      </trkpt>
      <trkpt lat="46.88583" lon="5.8094">
        <ele>375.2</ele>
        <time>2021-03-23T15:29:35Z</time>
      </trkpt>
      <trkpt lat="46.88579" lon="5.80933">
        <ele>374.1</ele>
        <time>2021-03-23T15:29:44Z</time>
      </trkpt>
      <trkpt lat="46.88576" lon="5.80926">
        <ele>373.5</ele>
        <time>2021-03-23T15:29:48Z</time>
      </trkpt>
      <trkpt lat="46.88574" lon="5.8092">
        <ele>372.9</ele>
        <time>2021-03-23T15:29:52Z</time>
      </trkpt>
      <trkpt lat="46.88569" lon="5.80911">
        <ele>372.2</ele>
        <time>2021-03-23T15:29:56Z</time>
      </trkpt>
      <trkpt lat="46.88564" lon="5.80906">
        <ele>371.9</ele>
        <time>2021-03-23T15:30:00Z</time>
      </trkpt>
      <trkpt lat="46.8856" lon="5.80902">
        <ele>371.7</ele>
        <time>2021-03-23T15:30:04Z</time>
      </trkpt>
      <trkpt lat="46.88556" lon="5.80899">
        <ele>371.4</ele>
        <time>2021-03-23T15:30:09Z</time>
      </trkpt>
      <trkpt lat="46.88551" lon="5.80896">
        <ele>371.1</ele>
        <time>2021-03-23T15:30:13Z</time>
      </trkpt>
      <trkpt lat="46.88546" lon="5.80894">
        <ele>370.8</ele>
        <time>2021-03-23T15:30:17Z</time>
      </trkpt>
      <trkpt lat="46.88542" lon="5.80892">
        <ele>370.4</ele>
        <time>2021-03-23T15:30:22Z</time>
      </trkpt>
      <trkpt lat="46.88533" lon="5.80888">
        <ele>369.4</ele>
        <time>2021-03-23T15:30:36Z</time>
      </trkpt>
      <trkpt lat="46.88527" lon="5.80884">
        <ele>368.9</ele>
        <time>2021-03-23T15:30:40Z</time>
      </trkpt>
      <trkpt lat="46.88521" lon="5.80882">
        <ele>367.9</ele>
        <time>2021-03-23T15:30:51Z</time>
      </trkpt>
      <trkpt lat="46.88515" lon="5.80879">
        <ele>367.1</ele>
        <time>2021-03-23T15:30:55Z</time>
      </trkpt>
      <trkpt lat="46.8851" lon="5.80877">
        <ele>366.8</ele>
        <time>2021-03-23T15:30:59Z</time>
      </trkpt>
      <trkpt lat="46.88505" lon="5.80875">
        <ele>366.8</ele>
        <time>2021-03-23T15:31:03Z</time>
      </trkpt>
      <trkpt lat="46.88498" lon="5.80874">
        <ele>368.2</ele>
        <time>2021-03-23T15:31:14Z</time>
      </trkpt>
      <trkpt lat="46.88493" lon="5.80873">
        <ele>369.3</ele>
        <time>2021-03-23T15:31:18Z</time>
      </trkpt>
      <trkpt lat="46.88487" lon="5.8087">
        <ele>369.9</ele>
        <time>2021-03-23T15:31:24Z</time>
      </trkpt>
      <trkpt lat="46.88481" lon="5.80866">
        <ele>370.2</ele>
        <time>2021-03-23T15:31:28Z</time>
      </trkpt>
      <trkpt lat="46.88477" lon="5.8086">
        <ele>370.8</ele>
        <time>2021-03-23T15:31:36Z</time>
      </trkpt>
      <trkpt lat="46.88474" lon="5.80853">
        <ele>371.1</ele>
        <time>2021-03-23T15:31:40Z</time>
      </trkpt>
      <trkpt lat="46.88471" lon="5.80846">
        <ele>371</ele>
        <time>2021-03-23T15:31:44Z</time>
      </trkpt>
      <trkpt lat="46.88469" lon="5.80839">
        <ele>370.8</ele>
        <time>2021-03-23T15:31:48Z</time>
      </trkpt>
      <trkpt lat="46.88467" lon="5.80831">
        <ele>370.6</ele>
        <time>2021-03-23T15:31:52Z</time>
      </trkpt>
      <trkpt lat="46.88465" lon="5.80823">
        <ele>370</ele>
        <time>2021-03-23T15:32:02Z</time>
      </trkpt>
      <trkpt lat="46.88464" lon="5.80816">
        <ele>369.4</ele>
        <time>2021-03-23T15:32:06Z</time>
      </trkpt>
      <trkpt lat="46.88464" lon="5.80807">
        <ele>368.3</ele>
        <time>2021-03-23T15:32:17Z</time>
      </trkpt>
      <trkpt lat="46.88464" lon="5.80797">
        <ele>367.6</ele>
        <time>2021-03-23T15:32:21Z</time>
      </trkpt>
      <trkpt lat="46.88462" lon="5.80789">
        <ele>366.7</ele>
        <time>2021-03-23T15:32:28Z</time>
      </trkpt>
      <trkpt lat="46.88459" lon="5.80781">
        <ele>366.2</ele>
        <time>2021-03-23T15:32:32Z</time>
      </trkpt>
      <trkpt lat="46.88456" lon="5.80773">
        <ele>365.4</ele>
        <time>2021-03-23T15:32:41Z</time>
      </trkpt>
      <trkpt lat="46.88451" lon="5.80761">
        <ele>364.6</ele>
        <time>2021-03-23T15:32:45Z</time>
      </trkpt>
      <trkpt lat="46.88445" lon="5.80754">
        <ele>361.9</ele>
        <time>2021-03-23T15:32:54Z</time>
      </trkpt>
      <trkpt lat="46.8844" lon="5.80749">
        <ele>359.8</ele>
        <time>2021-03-23T15:32:58Z</time>
      </trkpt>
      <trkpt lat="46.88435" lon="5.80745">
        <ele>357.1</ele>
        <time>2021-03-23T15:33:07Z</time>
      </trkpt>
      <trkpt lat="46.8843" lon="5.80743">
        <ele>355.9</ele>
        <time>2021-03-23T15:33:11Z</time>
      </trkpt>
      <trkpt lat="46.88423" lon="5.8074">
        <ele>355.2</ele>
        <time>2021-03-23T15:33:15Z</time>
      </trkpt>
      <trkpt lat="46.88415" lon="5.80735">
        <ele>354.6</ele>
        <time>2021-03-23T15:33:19Z</time>
      </trkpt>
      <trkpt lat="46.8841" lon="5.80731">
        <ele>353.7</ele>
        <time>2021-03-23T15:33:29Z</time>
      </trkpt>
      <trkpt lat="46.88406" lon="5.80726">
        <ele>353</ele>
        <time>2021-03-23T15:33:33Z</time>
      </trkpt>
      <trkpt lat="46.884" lon="5.80722">
        <ele>352.2</ele>
        <time>2021-03-23T15:33:37Z</time>
      </trkpt>
      <trkpt lat="46.88396" lon="5.80718">
        <ele>351.2</ele>
        <time>2021-03-23T15:33:45Z</time>
      </trkpt>
      <trkpt lat="46.88392" lon="5.80713">
        <ele>350.4</ele>
        <time>2021-03-23T15:33:51Z</time>
      </trkpt>
      <trkpt lat="46.8839" lon="5.80707">
        <ele>349.1</ele>
        <time>2021-03-23T15:33:57Z</time>
      </trkpt>
      <trkpt lat="46.88385" lon="5.80701">
        <ele>348.1</ele>
        <time>2021-03-23T15:34:02Z</time>
      </trkpt>
      <trkpt lat="46.88382" lon="5.80695">
        <ele>347.1</ele>
        <time>2021-03-23T15:34:06Z</time>
      </trkpt>
      <trkpt lat="46.88377" lon="5.80691">
        <ele>345.5</ele>
        <time>2021-03-23T15:34:15Z</time>
      </trkpt>
      <trkpt lat="46.88372" lon="5.80687">
        <ele>344.5</ele>
        <time>2021-03-23T15:34:19Z</time>
      </trkpt>
      <trkpt lat="46.88367" lon="5.80685">
        <ele>343.7</ele>
        <time>2021-03-23T15:34:24Z</time>
      </trkpt>
      <trkpt lat="46.88359" lon="5.80678">
        <ele>341.9</ele>
        <time>2021-03-23T15:34:39Z</time>
      </trkpt>
      <trkpt lat="46.88355" lon="5.80674">
        <ele>340.7</ele>
        <time>2021-03-23T15:34:43Z</time>
      </trkpt>
      <trkpt lat="46.88349" lon="5.80672">
        <ele>338.7</ele>
        <time>2021-03-23T15:34:52Z</time>
      </trkpt>
      <trkpt lat="46.88343" lon="5.8067">
        <ele>337.5</ele>
        <time>2021-03-23T15:34:56Z</time>
      </trkpt>
      <trkpt lat="46.88336" lon="5.80671">
        <ele>335.4</ele>
        <time>2021-03-23T15:35:06Z</time>
      </trkpt>
      <trkpt lat="46.88328" lon="5.80675">
        <ele>334.8</ele>
        <time>2021-03-23T15:35:10Z</time>
      </trkpt>
      <trkpt lat="46.88324" lon="5.80677">
        <ele>333.9</ele>
        <time>2021-03-23T15:35:15Z</time>
      </trkpt>
      <trkpt lat="46.88315" lon="5.8068">
        <ele>331.4</ele>
        <time>2021-03-23T15:35:28Z</time>
      </trkpt>
      <trkpt lat="46.88309" lon="5.80681">
        <ele>330.1</ele>
        <time>2021-03-23T15:35:32Z</time>
      </trkpt>
      <trkpt lat="46.88303" lon="5.80681">
        <ele>327.7</ele>
        <time>2021-03-23T15:35:37Z</time>
      </trkpt>
      <trkpt lat="46.88297" lon="5.80679">
        <ele>325.7</ele>
        <time>2021-03-23T15:35:41Z</time>
      </trkpt>
      <trkpt lat="46.88291" lon="5.80677">
        <ele>323.5</ele>
        <time>2021-03-23T15:35:46Z</time>
      </trkpt>
      <trkpt lat="46.88285" lon="5.80674">
        <ele>320.4</ele>
        <time>2021-03-23T15:35:57Z</time>
      </trkpt>
      <trkpt lat="46.88278" lon="5.80673">
        <ele>319.3</ele>
        <time>2021-03-23T15:36:01Z</time>
      </trkpt>
      <trkpt lat="46.88272" lon="5.80669">
        <ele>316.9</ele>
        <time>2021-03-23T15:36:14Z</time>
      </trkpt>
      <trkpt lat="46.88267" lon="5.80665">
        <ele>315.5</ele>
        <time>2021-03-23T15:36:18Z</time>
      </trkpt>
      <trkpt lat="46.88262" lon="5.8066">
        <ele>315.1</ele>
        <time>2021-03-23T15:36:32Z</time>
      </trkpt>
      <trkpt lat="46.88258" lon="5.80656">
        <ele>316.6</ele>
        <time>2021-03-23T15:36:38Z</time>
      </trkpt>
      <trkpt lat="46.88253" lon="5.80655">
        <ele>318.3</ele>
        <time>2021-03-23T15:37:17Z</time>
      </trkpt>
      <trkpt lat="46.88248" lon="5.80655">
        <ele>318.8</ele>
        <time>2021-03-23T15:37:21Z</time>
      </trkpt>
      <trkpt lat="46.88244" lon="5.80659">
        <ele>320.4</ele>
        <time>2021-03-23T15:37:26Z</time>
      </trkpt>
      <trkpt lat="46.8824" lon="5.80664">
        <ele>323</ele>
        <time>2021-03-23T15:37:30Z</time>
      </trkpt>
      <trkpt lat="46.88235" lon="5.80665">
        <ele>325</ele>
        <time>2021-03-23T15:37:35Z</time>
      </trkpt>
      <trkpt lat="46.8823" lon="5.80665">
        <ele>326.8</ele>
        <time>2021-03-23T15:37:47Z</time>
      </trkpt>
      <trkpt lat="46.88223" lon="5.80664">
        <ele>326.3</ele>
        <time>2021-03-23T15:37:51Z</time>
      </trkpt>
      <trkpt lat="46.88218" lon="5.80665">
        <ele>324.4</ele>
        <time>2021-03-23T15:37:55Z</time>
      </trkpt>
      <trkpt lat="46.88213" lon="5.80665">
        <ele>320.8</ele>
        <time>2021-03-23T15:38:00Z</time>
      </trkpt>
      <trkpt lat="46.88208" lon="5.80664">
        <ele>319</ele>
        <time>2021-03-23T15:38:06Z</time>
      </trkpt>
      <trkpt lat="46.88203" lon="5.80664">
        <ele>319.5</ele>
        <time>2021-03-23T15:38:10Z</time>
      </trkpt>
      <trkpt lat="46.88198" lon="5.80666">
        <ele>321.2</ele>
        <time>2021-03-23T15:38:14Z</time>
      </trkpt>
      <trkpt lat="46.88193" lon="5.80667">
        <ele>322.1</ele>
        <time>2021-03-23T15:38:18Z</time>
      </trkpt>
      <trkpt lat="46.88188" lon="5.80666">
        <ele>322.7</ele>
        <time>2021-03-23T15:38:22Z</time>
      </trkpt>
      <trkpt lat="46.88184" lon="5.80665">
        <ele>323.7</ele>
        <time>2021-03-23T15:38:26Z</time>
      </trkpt>
      <trkpt lat="46.88179" lon="5.80665">
        <ele>324.8</ele>
        <time>2021-03-23T15:38:30Z</time>
      </trkpt>
      <trkpt lat="46.88173" lon="5.80664">
        <ele>326.1</ele>
        <time>2021-03-23T15:38:35Z</time>
      </trkpt>
      <trkpt lat="46.88168" lon="5.80664">
        <ele>326.6</ele>
        <time>2021-03-23T15:38:39Z</time>
      </trkpt>
      <trkpt lat="46.88163" lon="5.80666">
        <ele>326.9</ele>
        <time>2021-03-23T15:38:44Z</time>
      </trkpt>
      <trkpt lat="46.88159" lon="5.80668">
        <ele>326.7</ele>
        <time>2021-03-23T15:38:49Z</time>
      </trkpt>
      <trkpt lat="46.88154" lon="5.8067">
        <ele>326.1</ele>
        <time>2021-03-23T15:38:53Z</time>
      </trkpt>
      <trkpt lat="46.8815" lon="5.80675">
        <ele>325.9</ele>
        <time>2021-03-23T15:38:58Z</time>
      </trkpt>
      <trkpt lat="46.88146" lon="5.8068">
        <ele>326.1</ele>
        <time>2021-03-23T15:39:02Z</time>
      </trkpt>
      <trkpt lat="46.88141" lon="5.80683">
        <ele>326.7</ele>
        <time>2021-03-23T15:39:14Z</time>
      </trkpt>
      <trkpt lat="46.88135" lon="5.80685">
        <ele>327</ele>
        <time>2021-03-23T15:39:18Z</time>
      </trkpt>
      <trkpt lat="46.88128" lon="5.80687">
        <ele>327.1</ele>
        <time>2021-03-23T15:39:27Z</time>
      </trkpt>
      <trkpt lat="46.88122" lon="5.80686">
        <ele>326.6</ele>
        <time>2021-03-23T15:39:31Z</time>
      </trkpt>
      <trkpt lat="46.88117" lon="5.80686">
        <ele>326.2</ele>
        <time>2021-03-23T15:39:37Z</time>
      </trkpt>
      <trkpt lat="46.88114" lon="5.8068">
        <ele>323.6</ele>
        <time>2021-03-23T15:39:47Z</time>
      </trkpt>
      <trkpt lat="46.88109" lon="5.80678">
        <ele>318.4</ele>
        <time>2021-03-23T15:40:03Z</time>
      </trkpt>
      <trkpt lat="46.88105" lon="5.8068">
        <ele>317.4</ele>
        <time>2021-03-23T15:40:09Z</time>
      </trkpt>
      <trkpt lat="46.881" lon="5.80681">
        <ele>316.5</ele>
        <time>2021-03-23T15:40:15Z</time>
      </trkpt>
      <trkpt lat="46.88093" lon="5.80684">
        <ele>316.1</ele>
        <time>2021-03-23T15:40:19Z</time>
      </trkpt>
      <trkpt lat="46.88089" lon="5.80687">
        <ele>316.8</ele>
        <time>2021-03-23T15:40:23Z</time>
      </trkpt>
      <trkpt lat="46.88084" lon="5.8069">
        <ele>318.4</ele>
        <time>2021-03-23T15:40:28Z</time>
      </trkpt>
      <trkpt lat="46.88078" lon="5.80692">
        <ele>319.9</ele>
        <time>2021-03-23T15:40:33Z</time>
      </trkpt>
      <trkpt lat="46.88071" lon="5.80698">
        <ele>323</ele>
        <time>2021-03-23T15:40:45Z</time>
      </trkpt>
      <trkpt lat="46.88065" lon="5.80703">
        <ele>323.9</ele>
        <time>2021-03-23T15:40:49Z</time>
      </trkpt>
      <trkpt lat="46.8806" lon="5.80707">
        <ele>324.7</ele>
        <time>2021-03-23T15:40:53Z</time>
      </trkpt>
      <trkpt lat="46.88055" lon="5.80711">
        <ele>325.6</ele>
        <time>2021-03-23T15:40:57Z</time>
      </trkpt>
      <trkpt lat="46.88049" lon="5.80715">
        <ele>328</ele>
        <time>2021-03-23T15:41:10Z</time>
      </trkpt>
      <trkpt lat="46.88043" lon="5.80716">
        <ele>329.6</ele>
        <time>2021-03-23T15:41:14Z</time>
      </trkpt>
      <trkpt lat="46.88037" lon="5.80719">
        <ele>332.1</ele>
        <time>2021-03-23T15:41:24Z</time>
      </trkpt>
      <trkpt lat="46.88031" lon="5.80722">
        <ele>333.3</ele>
        <time>2021-03-23T15:41:28Z</time>
      </trkpt>
      <trkpt lat="46.88026" lon="5.80725">
        <ele>333.9</ele>
        <time>2021-03-23T15:41:33Z</time>
      </trkpt>
      <trkpt lat="46.88018" lon="5.80729">
        <ele>329.9</ele>
        <time>2021-03-23T15:41:37Z</time>
      </trkpt>
      <trkpt lat="46.88011" lon="5.80729">
        <ele>324</ele>
        <time>2021-03-23T15:41:44Z</time>
      </trkpt>
      <trkpt lat="46.88005" lon="5.80729">
        <ele>321.4</ele>
        <time>2021-03-23T15:41:48Z</time>
      </trkpt>
      <trkpt lat="46.88" lon="5.8073">
        <ele>319.1</ele>
        <time>2021-03-23T15:41:53Z</time>
      </trkpt>
      <trkpt lat="46.87994" lon="5.80728">
        <ele>316.8</ele>
        <time>2021-03-23T15:42:03Z</time>
      </trkpt>
      <trkpt lat="46.87988" lon="5.80726">
        <ele>315.9</ele>
        <time>2021-03-23T15:42:07Z</time>
      </trkpt>
      <trkpt lat="46.87985" lon="5.80719">
        <ele>314.3</ele>
        <time>2021-03-23T15:42:18Z</time>
      </trkpt>
      <trkpt lat="46.87984" lon="5.8071">
        <ele>313.4</ele>
        <time>2021-03-23T15:42:22Z</time>
      </trkpt>
      <trkpt lat="46.87983" lon="5.80702">
        <ele>312.1</ele>
        <time>2021-03-23T15:42:30Z</time>
      </trkpt>
      <trkpt lat="46.87983" lon="5.80693">
        <ele>311.2</ele>
        <time>2021-03-23T15:42:34Z</time>
      </trkpt>
      <trkpt lat="46.8798" lon="5.80677">
        <ele>312.6</ele>
        <time>2021-03-23T15:42:38Z</time>
      </trkpt>
      <trkpt lat="46.87978" lon="5.80669">
        <ele>313.7</ele>
        <time>2021-03-23T15:42:42Z</time>
      </trkpt>
      <trkpt lat="46.87978" lon="5.80661">
        <ele>314.5</ele>
        <time>2021-03-23T15:43:01Z</time>
      </trkpt>
      <trkpt lat="46.87976" lon="5.80655">
        <ele>314</ele>
        <time>2021-03-23T15:43:05Z</time>
      </trkpt>
      <trkpt lat="46.87971" lon="5.80652">
        <ele>313.4</ele>
        <time>2021-03-23T15:43:15Z</time>
      </trkpt>
      <trkpt lat="46.87965" lon="5.8065">
        <ele>313.2</ele>
        <time>2021-03-23T15:43:19Z</time>
      </trkpt>
      <trkpt lat="46.8796" lon="5.80649">
        <ele>313.7</ele>
        <time>2021-03-23T15:43:23Z</time>
      </trkpt>
      <trkpt lat="46.87952" lon="5.80649">
        <ele>314.8</ele>
        <time>2021-03-23T15:43:27Z</time>
      </trkpt>
      <trkpt lat="46.87948" lon="5.80651">
        <ele>315.6</ele>
        <time>2021-03-23T15:43:31Z</time>
      </trkpt>
      <trkpt lat="46.87942" lon="5.80652">
        <ele>316.1</ele>
        <time>2021-03-23T15:43:35Z</time>
      </trkpt>
      <trkpt lat="46.87935" lon="5.80652">
        <ele>317.3</ele>
        <time>2021-03-23T15:43:39Z</time>
      </trkpt>
      <trkpt lat="46.87931" lon="5.80649">
        <ele>317.8</ele>
        <time>2021-03-23T15:43:47Z</time>
      </trkpt>
      <trkpt lat="46.87915" lon="5.80643">
        <ele>320.7</ele>
        <time>2021-03-23T15:43:51Z</time>
      </trkpt>
      <trkpt lat="46.87908" lon="5.80644">
        <ele>322.2</ele>
        <time>2021-03-23T15:43:55Z</time>
      </trkpt>
      <trkpt lat="46.879" lon="5.80643">
        <ele>324.2</ele>
        <time>2021-03-23T15:44:03Z</time>
      </trkpt>
      <trkpt lat="46.87895" lon="5.80642">
        <ele>325.1</ele>
        <time>2021-03-23T15:44:07Z</time>
      </trkpt>
      <trkpt lat="46.87889" lon="5.80647">
        <ele>326.2</ele>
        <time>2021-03-23T15:44:20Z</time>
      </trkpt>
      <trkpt lat="46.87884" lon="5.80652">
        <ele>326.3</ele>
        <time>2021-03-23T15:44:24Z</time>
      </trkpt>
      <trkpt lat="46.87879" lon="5.80657">
        <ele>326.1</ele>
        <time>2021-03-23T15:44:28Z</time>
      </trkpt>
      <trkpt lat="46.87875" lon="5.80662">
        <ele>325.4</ele>
        <time>2021-03-23T15:44:32Z</time>
      </trkpt>
      <trkpt lat="46.87871" lon="5.80665">
        <ele>324.9</ele>
        <time>2021-03-23T15:44:36Z</time>
      </trkpt>
      <trkpt lat="46.87867" lon="5.80668">
        <ele>324.5</ele>
        <time>2021-03-23T15:44:40Z</time>
      </trkpt>
      <trkpt lat="46.87861" lon="5.80671">
        <ele>324.1</ele>
        <time>2021-03-23T15:44:47Z</time>
      </trkpt>
      <trkpt lat="46.87857" lon="5.80674">
        <ele>323.9</ele>
        <time>2021-03-23T15:44:53Z</time>
      </trkpt>
      <trkpt lat="46.87851" lon="5.80679">
        <ele>323.9</ele>
        <time>2021-03-23T15:44:59Z</time>
      </trkpt>
      <trkpt lat="46.87846" lon="5.80685">
        <ele>323.5</ele>
        <time>2021-03-23T15:45:03Z</time>
      </trkpt>
      <trkpt lat="46.87841" lon="5.8069">
        <ele>323.1</ele>
        <time>2021-03-23T15:45:08Z</time>
      </trkpt>
      <trkpt lat="46.87838" lon="5.80695">
        <ele>322.5</ele>
        <time>2021-03-23T15:45:14Z</time>
      </trkpt>
      <trkpt lat="46.87835" lon="5.80701">
        <ele>321.9</ele>
        <time>2021-03-23T15:45:21Z</time>
      </trkpt>
      <trkpt lat="46.87829" lon="5.80709">
        <ele>326</ele>
        <time>2021-03-23T15:45:25Z</time>
      </trkpt>
      <trkpt lat="46.87824" lon="5.80719">
        <ele>330.4</ele>
        <time>2021-03-23T15:45:29Z</time>
      </trkpt>
      <trkpt lat="46.87823" lon="5.80729">
        <ele>336.1</ele>
        <time>2021-03-23T15:45:56Z</time>
      </trkpt>
      <trkpt lat="46.87824" lon="5.80738">
        <ele>335.8</ele>
        <time>2021-03-23T15:46:00Z</time>
      </trkpt>
      <trkpt lat="46.87822" lon="5.80745">
        <ele>335.1</ele>
        <time>2021-03-23T15:46:05Z</time>
      </trkpt>
      <trkpt lat="46.87822" lon="5.80752">
        <ele>334.7</ele>
        <time>2021-03-23T15:46:12Z</time>
      </trkpt>
      <trkpt lat="46.87821" lon="5.80759">
        <ele>334.4</ele>
        <time>2021-03-23T15:46:18Z</time>
      </trkpt>
      <trkpt lat="46.8782" lon="5.80767">
        <ele>334.4</ele>
        <time>2021-03-23T15:46:26Z</time>
      </trkpt>
      <trkpt lat="46.87819" lon="5.80777">
        <ele>334.5</ele>
        <time>2021-03-23T15:46:30Z</time>
      </trkpt>
      <trkpt lat="46.87816" lon="5.80783">
        <ele>334.7</ele>
        <time>2021-03-23T15:46:35Z</time>
      </trkpt>
      <trkpt lat="46.87813" lon="5.80789">
        <ele>334.9</ele>
        <time>2021-03-23T15:46:39Z</time>
      </trkpt>
      <trkpt lat="46.8781" lon="5.80795">
        <ele>334.8</ele>
        <time>2021-03-23T15:46:44Z</time>
      </trkpt>
      <trkpt lat="46.87806" lon="5.80799">
        <ele>335.6</ele>
        <time>2021-03-23T15:46:51Z</time>
      </trkpt>
      <trkpt lat="46.87802" lon="5.80804">
        <ele>335.9</ele>
        <time>2021-03-23T15:46:55Z</time>
      </trkpt>
      <trkpt lat="46.87799" lon="5.80809">
        <ele>336.3</ele>
        <time>2021-03-23T15:47:01Z</time>
      </trkpt>
      <trkpt lat="46.87794" lon="5.80816">
        <ele>336.9</ele>
        <time>2021-03-23T15:47:14Z</time>
      </trkpt>
      <trkpt lat="46.87791" lon="5.80822">
        <ele>337.1</ele>
        <time>2021-03-23T15:47:18Z</time>
      </trkpt>
      <trkpt lat="46.87786" lon="5.80828">
        <ele>337.7</ele>
        <time>2021-03-23T15:47:28Z</time>
      </trkpt>
      <trkpt lat="46.87782" lon="5.80835">
        <ele>337.9</ele>
        <time>2021-03-23T15:47:32Z</time>
      </trkpt>
      <trkpt lat="46.87778" lon="5.80842">
        <ele>338.3</ele>
        <time>2021-03-23T15:47:42Z</time>
      </trkpt>
      <trkpt lat="46.87775" lon="5.80849">
        <ele>338.6</ele>
        <time>2021-03-23T15:47:46Z</time>
      </trkpt>
      <trkpt lat="46.87771" lon="5.80856">
        <ele>339</ele>
        <time>2021-03-23T15:48:00Z</time>
      </trkpt>
      <trkpt lat="46.87767" lon="5.80862">
        <ele>339.1</ele>
        <time>2021-03-23T15:48:04Z</time>
      </trkpt>
      <trkpt lat="46.87763" lon="5.80869">
        <ele>339.2</ele>
        <time>2021-03-23T15:48:15Z</time>
      </trkpt>
      <trkpt lat="46.8776" lon="5.80877">
        <ele>339</ele>
        <time>2021-03-23T15:48:19Z</time>
      </trkpt>
      <trkpt lat="46.87757" lon="5.80885">
        <ele>338.7</ele>
        <time>2021-03-23T15:48:29Z</time>
      </trkpt>
      <trkpt lat="46.87755" lon="5.80892">
        <ele>338.7</ele>
        <time>2021-03-23T15:48:33Z</time>
      </trkpt>
      <trkpt lat="46.87755" lon="5.80901">
        <ele>338.4</ele>
        <time>2021-03-23T15:48:49Z</time>
      </trkpt>
      <trkpt lat="46.87756" lon="5.80908">
        <ele>338.2</ele>
        <time>2021-03-23T15:48:53Z</time>
      </trkpt>
      <trkpt lat="46.8776" lon="5.80914">
        <ele>338</ele>
        <time>2021-03-23T15:49:07Z</time>
      </trkpt>
      <trkpt lat="46.87764" lon="5.80919">
        <ele>337.9</ele>
        <time>2021-03-23T15:49:11Z</time>
      </trkpt>
      <trkpt lat="46.87769" lon="5.80924">
        <ele>338.1</ele>
        <time>2021-03-23T15:49:23Z</time>
      </trkpt>
      <trkpt lat="46.87775" lon="5.80927">
        <ele>338.2</ele>
        <time>2021-03-23T15:49:27Z</time>
      </trkpt>
      <trkpt lat="46.87779" lon="5.80932">
        <ele>338.6</ele>
        <time>2021-03-23T15:49:39Z</time>
      </trkpt>
      <trkpt lat="46.87784" lon="5.80938">
        <ele>339</ele>
        <time>2021-03-23T15:49:43Z</time>
      </trkpt>
      <trkpt lat="46.87788" lon="5.80944">
        <ele>339.6</ele>
        <time>2021-03-23T15:49:58Z</time>
      </trkpt>
      <trkpt lat="46.87791" lon="5.80951">
        <ele>339.8</ele>
        <time>2021-03-23T15:50:02Z</time>
      </trkpt>
      <trkpt lat="46.87794" lon="5.80958">
        <ele>340.3</ele>
        <time>2021-03-23T15:50:29Z</time>
      </trkpt>
      <trkpt lat="46.87796" lon="5.80965">
        <ele>340.8</ele>
        <time>2021-03-23T15:50:34Z</time>
      </trkpt>
      <trkpt lat="46.87796" lon="5.80979">
        <ele>347.1</ele>
        <time>2021-03-23T15:50:38Z</time>
      </trkpt>
      <trkpt lat="46.87796" lon="5.80985">
        <ele>353</ele>
        <time>2021-03-23T15:50:43Z</time>
      </trkpt>
      <trkpt lat="46.87798" lon="5.80978">
        <ele>358.6</ele>
        <time>2021-03-23T15:51:16Z</time>
      </trkpt>
      <trkpt lat="46.87803" lon="5.80977">
        <ele>358.4</ele>
        <time>2021-03-23T15:51:48Z</time>
      </trkpt>
      <trkpt lat="46.87805" lon="5.80983">
        <ele>357.5</ele>
        <time>2021-03-23T15:51:52Z</time>
      </trkpt>
      <trkpt lat="46.87809" lon="5.80989">
        <ele>356.3</ele>
        <time>2021-03-23T15:52:02Z</time>
      </trkpt>
      <trkpt lat="46.87813" lon="5.80994">
        <ele>355.8</ele>
        <time>2021-03-23T15:52:06Z</time>
      </trkpt>
      <trkpt lat="46.87818" lon="5.80999">
        <ele>355.2</ele>
        <time>2021-03-23T15:52:20Z</time>
      </trkpt>
      <trkpt lat="46.87823" lon="5.81006">
        <ele>355.2</ele>
        <time>2021-03-23T15:52:24Z</time>
      </trkpt>
      <trkpt lat="46.87829" lon="5.81013">
        <ele>355.3</ele>
        <time>2021-03-23T15:52:38Z</time>
      </trkpt>
      <trkpt lat="46.87834" lon="5.81017">
        <ele>355.2</ele>
        <time>2021-03-23T15:52:42Z</time>
      </trkpt>
      <trkpt lat="46.87838" lon="5.81023">
        <ele>355.3</ele>
        <time>2021-03-23T15:52:55Z</time>
      </trkpt>
      <trkpt lat="46.87842" lon="5.81029">
        <ele>355.4</ele>
        <time>2021-03-23T15:52:59Z</time>
      </trkpt>
      <trkpt lat="46.8784" lon="5.81036">
        <ele>356.2</ele>
        <time>2021-03-23T15:53:17Z</time>
      </trkpt>
      <trkpt lat="46.87837" lon="5.81041">
        <ele>356.9</ele>
        <time>2021-03-23T15:53:21Z</time>
      </trkpt>
      <trkpt lat="46.87832" lon="5.81044">
        <ele>358.1</ele>
        <time>2021-03-23T15:53:33Z</time>
      </trkpt>
      <trkpt lat="46.87827" lon="5.81045">
        <ele>358.5</ele>
        <time>2021-03-23T15:53:37Z</time>
      </trkpt>
      <trkpt lat="46.87821" lon="5.81043">
        <ele>359.3</ele>
        <time>2021-03-23T15:53:52Z</time>
      </trkpt>
      <trkpt lat="46.87816" lon="5.81043">
        <ele>359.7</ele>
        <time>2021-03-23T15:53:56Z</time>
      </trkpt>
      <trkpt lat="46.8781" lon="5.81042">
        <ele>360.5</ele>
        <time>2021-03-23T15:54:13Z</time>
      </trkpt>
      <trkpt lat="46.87799" lon="5.81021">
        <ele>365.5</ele>
        <time>2021-03-23T15:54:17Z</time>
      </trkpt>
      <trkpt lat="46.87792" lon="5.81018">
        <ele>369.9</ele>
        <time>2021-03-23T15:54:38Z</time>
      </trkpt>
      <trkpt lat="46.87787" lon="5.81018">
        <ele>370</ele>
        <time>2021-03-23T15:54:42Z</time>
      </trkpt>
      <trkpt lat="46.87781" lon="5.81018">
        <ele>370.2</ele>
        <time>2021-03-23T15:54:53Z</time>
      </trkpt>
      <trkpt lat="46.87775" lon="5.81017">
        <ele>370.5</ele>
        <time>2021-03-23T15:54:57Z</time>
      </trkpt>
      <trkpt lat="46.87769" lon="5.81019">
        <ele>370.8</ele>
        <time>2021-03-23T15:55:10Z</time>
      </trkpt>
      <trkpt lat="46.87763" lon="5.81018">
        <ele>371.4</ele>
        <time>2021-03-23T15:55:14Z</time>
      </trkpt>
      <trkpt lat="46.87756" lon="5.81015">
        <ele>372.2</ele>
        <time>2021-03-23T15:55:26Z</time>
      </trkpt>
      <trkpt lat="46.87752" lon="5.81014">
        <ele>372.4</ele>
        <time>2021-03-23T15:55:30Z</time>
      </trkpt>
      <trkpt lat="46.87746" lon="5.81014">
        <ele>372.7</ele>
        <time>2021-03-23T15:55:41Z</time>
      </trkpt>
      <trkpt lat="46.8774" lon="5.81015">
        <ele>373</ele>
        <time>2021-03-23T15:55:45Z</time>
      </trkpt>
      <trkpt lat="46.87734" lon="5.81017">
        <ele>372.9</ele>
        <time>2021-03-23T15:55:58Z</time>
      </trkpt>
      <trkpt lat="46.8773" lon="5.81019">
        <ele>372.3</ele>
        <time>2021-03-23T15:56:02Z</time>
      </trkpt>
      <trkpt lat="46.87724" lon="5.8102">
        <ele>371.4</ele>
        <time>2021-03-23T15:56:13Z</time>
      </trkpt>
      <trkpt lat="46.87719" lon="5.81022">
        <ele>371</ele>
        <time>2021-03-23T15:56:17Z</time>
      </trkpt>
      <trkpt lat="46.87713" lon="5.81023">
        <ele>370.1</ele>
        <time>2021-03-23T15:56:32Z</time>
      </trkpt>
      <trkpt lat="46.87708" lon="5.81025">
        <ele>369.6</ele>
        <time>2021-03-23T15:56:36Z</time>
      </trkpt>
      <trkpt lat="46.87703" lon="5.81027">
        <ele>369.2</ele>
        <time>2021-03-23T15:56:49Z</time>
      </trkpt>
      <trkpt lat="46.87698" lon="5.81029">
        <ele>369.4</ele>
        <time>2021-03-23T15:56:53Z</time>
      </trkpt>
      <trkpt lat="46.87692" lon="5.8103">
        <ele>369.9</ele>
        <time>2021-03-23T15:57:05Z</time>
      </trkpt>
      <trkpt lat="46.87687" lon="5.81032">
        <ele>370.1</ele>
        <time>2021-03-23T15:57:09Z</time>
      </trkpt>
      <trkpt lat="46.87682" lon="5.81036">
        <ele>370.6</ele>
        <time>2021-03-23T15:57:17Z</time>
      </trkpt>
      <trkpt lat="46.87677" lon="5.8104">
        <ele>370.8</ele>
        <time>2021-03-23T15:57:21Z</time>
      </trkpt>
      <trkpt lat="46.87672" lon="5.81046">
        <ele>371.2</ele>
        <time>2021-03-23T15:57:33Z</time>
      </trkpt>
      <trkpt lat="46.87667" lon="5.81055">
        <ele>371.4</ele>
        <time>2021-03-23T15:57:37Z</time>
      </trkpt>
      <trkpt lat="46.87661" lon="5.81058">
        <ele>371.5</ele>
        <time>2021-03-23T15:57:44Z</time>
      </trkpt>
      <trkpt lat="46.87654" lon="5.81061">
        <ele>371.6</ele>
        <time>2021-03-23T15:57:48Z</time>
      </trkpt>
      <trkpt lat="46.87647" lon="5.81067">
        <ele>372.4</ele>
        <time>2021-03-23T15:58:05Z</time>
      </trkpt>
      <trkpt lat="46.87643" lon="5.81072">
        <ele>373.1</ele>
        <time>2021-03-23T15:58:09Z</time>
      </trkpt>
      <trkpt lat="46.87638" lon="5.81075">
        <ele>374.2</ele>
        <time>2021-03-23T15:58:24Z</time>
      </trkpt>
      <trkpt lat="46.87633" lon="5.81077">
        <ele>374.7</ele>
        <time>2021-03-23T15:58:28Z</time>
      </trkpt>
      <trkpt lat="46.87629" lon="5.81083">
        <ele>375.7</ele>
        <time>2021-03-23T15:58:40Z</time>
      </trkpt>
      <trkpt lat="46.87626" lon="5.81089">
        <ele>376.4</ele>
        <time>2021-03-23T15:58:44Z</time>
      </trkpt>
      <trkpt lat="46.87621" lon="5.81094">
        <ele>377.5</ele>
        <time>2021-03-23T15:58:57Z</time>
      </trkpt>
      <trkpt lat="46.87616" lon="5.81098">
        <ele>377.9</ele>
        <time>2021-03-23T15:59:01Z</time>
      </trkpt>
      <trkpt lat="46.87612" lon="5.81104">
        <ele>378.7</ele>
        <time>2021-03-23T15:59:14Z</time>
      </trkpt>
      <trkpt lat="46.87607" lon="5.81109">
        <ele>379.3</ele>
        <time>2021-03-23T15:59:18Z</time>
      </trkpt>
      <trkpt lat="46.87604" lon="5.81116">
        <ele>380.3</ele>
        <time>2021-03-23T15:59:50Z</time>
      </trkpt>
      <trkpt lat="46.87602" lon="5.81123">
        <ele>380.5</ele>
        <time>2021-03-23T15:59:54Z</time>
      </trkpt>
      <trkpt lat="46.876" lon="5.81131">
        <ele>380.6</ele>
        <time>2021-03-23T16:00:09Z</time>
      </trkpt>
      <trkpt lat="46.87597" lon="5.8114">
        <ele>380.2</ele>
        <time>2021-03-23T16:00:13Z</time>
      </trkpt>
      <trkpt lat="46.87592" lon="5.81145">
        <ele>379.7</ele>
        <time>2021-03-23T16:00:20Z</time>
      </trkpt>
      <trkpt lat="46.87587" lon="5.8115">
        <ele>379.6</ele>
        <time>2021-03-23T16:00:24Z</time>
      </trkpt>
      <trkpt lat="46.87582" lon="5.81155">
        <ele>379.8</ele>
        <time>2021-03-23T16:00:39Z</time>
      </trkpt>
      <trkpt lat="46.87577" lon="5.81159">
        <ele>380.5</ele>
        <time>2021-03-23T16:00:43Z</time>
      </trkpt>
      <trkpt lat="46.87575" lon="5.81168">
        <ele>381.6</ele>
        <time>2021-03-23T16:00:53Z</time>
      </trkpt>
      <trkpt lat="46.87574" lon="5.81176">
        <ele>382.2</ele>
        <time>2021-03-23T16:00:57Z</time>
      </trkpt>
      <trkpt lat="46.87569" lon="5.81181">
        <ele>383.7</ele>
        <time>2021-03-23T16:01:13Z</time>
      </trkpt>
      <trkpt lat="46.87564" lon="5.81186">
        <ele>384.6</ele>
        <time>2021-03-23T16:01:17Z</time>
      </trkpt>
      <trkpt lat="46.87559" lon="5.8119">
        <ele>385.9</ele>
        <time>2021-03-23T16:01:27Z</time>
      </trkpt>
      <trkpt lat="46.87553" lon="5.81195">
        <ele>386.3</ele>
        <time>2021-03-23T16:01:31Z</time>
      </trkpt>
      <trkpt lat="46.87548" lon="5.81201">
        <ele>387.4</ele>
        <time>2021-03-23T16:01:41Z</time>
      </trkpt>
      <trkpt lat="46.87538" lon="5.81199">
        <ele>392</ele>
        <time>2021-03-23T16:01:45Z</time>
      </trkpt>
      <trkpt lat="46.87533" lon="5.81196">
        <ele>396.6</ele>
        <time>2021-03-23T16:01:50Z</time>
      </trkpt>
      <trkpt lat="46.87529" lon="5.812">
        <ele>402.2</ele>
        <time>2021-03-23T16:03:11Z</time>
      </trkpt>
      <trkpt lat="46.87525" lon="5.81204">
        <ele>403.6</ele>
        <time>2021-03-23T16:03:15Z</time>
      </trkpt>
      <trkpt lat="46.87519" lon="5.81205">
        <ele>405.9</ele>
        <time>2021-03-23T16:03:31Z</time>
      </trkpt>
      <trkpt lat="46.87511" lon="5.81208">
        <ele>406.8</ele>
        <time>2021-03-23T16:03:35Z</time>
      </trkpt>
      <trkpt lat="46.87507" lon="5.81211">
        <ele>407.3</ele>
        <time>2021-03-23T16:03:40Z</time>
      </trkpt>
      <trkpt lat="46.87502" lon="5.8121">
        <ele>408.2</ele>
        <time>2021-03-23T16:03:53Z</time>
      </trkpt>
      <trkpt lat="46.87495" lon="5.81206">
        <ele>408.9</ele>
        <time>2021-03-23T16:03:57Z</time>
      </trkpt>
      <trkpt lat="46.87488" lon="5.812">
        <ele>410.5</ele>
        <time>2021-03-23T16:04:19Z</time>
      </trkpt>
      <trkpt lat="46.87484" lon="5.81188">
        <ele>411.8</ele>
        <time>2021-03-23T16:04:48Z</time>
      </trkpt>
      <trkpt lat="46.87482" lon="5.81182">
        <ele>412.1</ele>
        <time>2021-03-23T16:04:52Z</time>
      </trkpt>
      <trkpt lat="46.87479" lon="5.81174">
        <ele>412.5</ele>
        <time>2021-03-23T16:05:06Z</time>
      </trkpt>
      <trkpt lat="46.87476" lon="5.81167">
        <ele>412.5</ele>
        <time>2021-03-23T16:05:10Z</time>
      </trkpt>
      <trkpt lat="46.87473" lon="5.8116">
        <ele>412.9</ele>
        <time>2021-03-23T16:05:16Z</time>
      </trkpt>
      <trkpt lat="46.8747" lon="5.81154">
        <ele>413.3</ele>
        <time>2021-03-23T16:05:20Z</time>
      </trkpt>
      <trkpt lat="46.87467" lon="5.81146">
        <ele>414.3</ele>
        <time>2021-03-23T16:05:27Z</time>
      </trkpt>
      <trkpt lat="46.87465" lon="5.81139">
        <ele>415.1</ele>
        <time>2021-03-23T16:05:31Z</time>
      </trkpt>
      <trkpt lat="46.87463" lon="5.81131">
        <ele>417.2</ele>
        <time>2021-03-23T16:05:43Z</time>
      </trkpt>
      <trkpt lat="46.8746" lon="5.81119">
        <ele>419.5</ele>
        <time>2021-03-23T16:05:47Z</time>
      </trkpt>
      <trkpt lat="46.87456" lon="5.81111">
        <ele>422.1</ele>
        <time>2021-03-23T16:05:54Z</time>
      </trkpt>
      <trkpt lat="46.87452" lon="5.81105">
        <ele>423.5</ele>
        <time>2021-03-23T16:05:58Z</time>
      </trkpt>
      <trkpt lat="46.87447" lon="5.811">
        <ele>433.5</ele>
        <time>2021-03-23T16:06:41Z</time>
      </trkpt>
      <trkpt lat="46.87443" lon="5.81095">
        <ele>441.5</ele>
        <time>2021-03-23T16:06:45Z</time>
      </trkpt>
      <trkpt lat="46.87442" lon="5.81088">
        <ele>450.6</ele>
        <time>2021-03-23T16:06:57Z</time>
      </trkpt>
      <trkpt lat="46.87442" lon="5.8108">
        <ele>451.2</ele>
        <time>2021-03-23T16:07:01Z</time>
      </trkpt>
      <trkpt lat="46.87442" lon="5.81071">
        <ele>451.6</ele>
        <time>2021-03-23T16:07:19Z</time>
      </trkpt>
      <trkpt lat="46.87443" lon="5.81063">
        <ele>451.3</ele>
        <time>2021-03-23T16:07:23Z</time>
      </trkpt>
      <trkpt lat="46.87444" lon="5.81054">
        <ele>451</ele>
        <time>2021-03-23T16:07:35Z</time>
      </trkpt>
      <trkpt lat="46.87445" lon="5.81045">
        <ele>451.2</ele>
        <time>2021-03-23T16:07:39Z</time>
      </trkpt>
      <trkpt lat="46.87446" lon="5.81036">
        <ele>451.4</ele>
        <time>2021-03-23T16:07:52Z</time>
      </trkpt>
      <trkpt lat="46.87443" lon="5.81008">
        <ele>455.9</ele>
        <time>2021-03-23T16:07:56Z</time>
      </trkpt>
      <trkpt lat="46.87442" lon="5.81002">
        <ele>458.4</ele>
        <time>2021-03-23T16:08:00Z</time>
      </trkpt>
      <trkpt lat="46.87444" lon="5.80995">
        <ele>460.9</ele>
        <time>2021-03-23T16:08:13Z</time>
      </trkpt>
      <trkpt lat="46.87447" lon="5.80987">
        <ele>461</ele>
        <time>2021-03-23T16:08:17Z</time>
      </trkpt>
      <trkpt lat="46.87445" lon="5.80979">
        <ele>460.3</ele>
        <time>2021-03-23T16:08:26Z</time>
      </trkpt>
      <trkpt lat="46.87443" lon="5.80972">
        <ele>459.6</ele>
        <time>2021-03-23T16:08:30Z</time>
      </trkpt>
      <trkpt lat="46.8744" lon="5.80966">
        <ele>458.4</ele>
        <time>2021-03-23T16:08:49Z</time>
      </trkpt>
      <trkpt lat="46.87436" lon="5.8096">
        <ele>458.2</ele>
        <time>2021-03-23T16:08:53Z</time>
      </trkpt>
      <trkpt lat="46.87433" lon="5.80954">
        <ele>457.7</ele>
        <time>2021-03-23T16:09:08Z</time>
      </trkpt>
      <trkpt lat="46.87429" lon="5.80948">
        <ele>457.3</ele>
        <time>2021-03-23T16:09:12Z</time>
      </trkpt>
      <trkpt lat="46.87426" lon="5.80941">
        <ele>456.3</ele>
        <time>2021-03-23T16:09:23Z</time>
      </trkpt>
      <trkpt lat="46.87422" lon="5.80933">
        <ele>455.7</ele>
        <time>2021-03-23T16:09:27Z</time>
      </trkpt>
      <trkpt lat="46.87419" lon="5.80926">
        <ele>454.8</ele>
        <time>2021-03-23T16:09:36Z</time>
      </trkpt>
      <trkpt lat="46.87415" lon="5.80921">
        <ele>454.1</ele>
        <time>2021-03-23T16:09:40Z</time>
      </trkpt>
      <trkpt lat="46.87408" lon="5.80911">
        <ele>455</ele>
        <time>2021-03-23T16:09:51Z</time>
      </trkpt>
      <trkpt lat="46.87398" lon="5.80899">
        <ele>457.9</ele>
        <time>2021-03-23T16:09:55Z</time>
      </trkpt>
      <trkpt lat="46.87394" lon="5.8089">
        <ele>461.8</ele>
        <time>2021-03-23T16:10:09Z</time>
      </trkpt>
      <trkpt lat="46.8739" lon="5.80885">
        <ele>463.4</ele>
        <time>2021-03-23T16:10:13Z</time>
      </trkpt>
      <trkpt lat="46.87385" lon="5.80878">
        <ele>464</ele>
        <time>2021-03-23T16:10:28Z</time>
      </trkpt>
      <trkpt lat="46.87381" lon="5.80874">
        <ele>462.6</ele>
        <time>2021-03-23T16:10:32Z</time>
      </trkpt>
      <trkpt lat="46.87372" lon="5.80872">
        <ele>459.4</ele>
        <time>2021-03-23T16:10:49Z</time>
      </trkpt>
      <trkpt lat="46.87363" lon="5.80871">
        <ele>457.8</ele>
        <time>2021-03-23T16:10:53Z</time>
      </trkpt>
      <trkpt lat="46.87357" lon="5.80874">
        <ele>457.5</ele>
        <time>2021-03-23T16:11:01Z</time>
      </trkpt>
      <trkpt lat="46.87353" lon="5.80878">
        <ele>458.4</ele>
        <time>2021-03-23T16:11:05Z</time>
      </trkpt>
      <trkpt lat="46.87351" lon="5.80885">
        <ele>460</ele>
        <time>2021-03-23T16:11:24Z</time>
      </trkpt>
      <trkpt lat="46.8736" lon="5.80894">
        <ele>465.5</ele>
        <time>2021-03-23T16:11:28Z</time>
      </trkpt>
      <trkpt lat="46.87364" lon="5.80903">
        <ele>473.1</ele>
        <time>2021-03-23T16:11:46Z</time>
      </trkpt>
      <trkpt lat="46.87366" lon="5.8091">
        <ele>473.8</ele>
        <time>2021-03-23T16:11:50Z</time>
      </trkpt>
      <trkpt lat="46.87369" lon="5.80917">
        <ele>474.5</ele>
        <time>2021-03-23T16:12:06Z</time>
      </trkpt>
      <trkpt lat="46.87371" lon="5.80924">
        <ele>474.5</ele>
        <time>2021-03-23T16:12:10Z</time>
      </trkpt>
      <trkpt lat="46.87372" lon="5.80932">
        <ele>474.9</ele>
        <time>2021-03-23T16:12:24Z</time>
      </trkpt>
      <trkpt lat="46.87372" lon="5.80939">
        <ele>475.4</ele>
        <time>2021-03-23T16:12:29Z</time>
      </trkpt>
      <trkpt lat="46.87366" lon="5.8094">
        <ele>479.3</ele>
        <time>2021-03-23T16:12:45Z</time>
      </trkpt>
      <trkpt lat="46.87359" lon="5.80945">
        <ele>485.3</ele>
        <time>2021-03-23T16:14:20Z</time>
      </trkpt>
      <trkpt lat="46.87354" lon="5.80948">
        <ele>485.1</ele>
        <time>2021-03-23T16:14:24Z</time>
      </trkpt>
      <trkpt lat="46.87349" lon="5.80945">
        <ele>484.9</ele>
        <time>2021-03-23T16:14:34Z</time>
      </trkpt>
      <trkpt lat="46.87345" lon="5.80941">
        <ele>484.8</ele>
        <time>2021-03-23T16:14:38Z</time>
      </trkpt>
      <trkpt lat="46.87336" lon="5.80939">
        <ele>484.9</ele>
        <time>2021-03-23T16:14:53Z</time>
      </trkpt>
      <trkpt lat="46.87328" lon="5.80938">
        <ele>485.1</ele>
        <time>2021-03-23T16:14:57Z</time>
      </trkpt>
      <trkpt lat="46.87324" lon="5.80944">
        <ele>485.2</ele>
        <time>2021-03-23T16:15:14Z</time>
      </trkpt>
      <trkpt lat="46.87322" lon="5.80951">
        <ele>484.9</ele>
        <time>2021-03-23T16:15:18Z</time>
      </trkpt>
      <trkpt lat="46.87318" lon="5.80957">
        <ele>484.6</ele>
        <time>2021-03-23T16:15:32Z</time>
      </trkpt>
      <trkpt lat="46.87313" lon="5.80964">
        <ele>484.6</ele>
        <time>2021-03-23T16:15:36Z</time>
      </trkpt>
      <trkpt lat="46.87307" lon="5.80976">
        <ele>488.7</ele>
        <time>2021-03-23T16:15:40Z</time>
      </trkpt>
      <trkpt lat="46.87302" lon="5.80983">
        <ele>492.3</ele>
        <time>2021-03-23T16:15:56Z</time>
      </trkpt>
      <trkpt lat="46.87298" lon="5.80987">
        <ele>492.6</ele>
        <time>2021-03-23T16:16:00Z</time>
      </trkpt>
      <trkpt lat="46.8729" lon="5.80995">
        <ele>493.9</ele>
        <time>2021-03-23T16:16:18Z</time>
      </trkpt>
      <trkpt lat="46.87282" lon="5.81003">
        <ele>495.3</ele>
        <time>2021-03-23T16:16:22Z</time>
      </trkpt>
      <trkpt lat="46.87276" lon="5.81008">
        <ele>497</ele>
        <time>2021-03-23T16:16:41Z</time>
      </trkpt>
      <trkpt lat="46.8727" lon="5.81011">
        <ele>497.1</ele>
        <time>2021-03-23T16:16:45Z</time>
      </trkpt>
      <trkpt lat="46.87266" lon="5.81015">
        <ele>497.3</ele>
        <time>2021-03-23T16:16:56Z</time>
      </trkpt>
      <trkpt lat="46.87258" lon="5.81024">
        <ele>497.4</ele>
        <time>2021-03-23T16:17:00Z</time>
      </trkpt>
      <trkpt lat="46.87252" lon="5.81027">
        <ele>497.3</ele>
        <time>2021-03-23T16:17:14Z</time>
      </trkpt>
      <trkpt lat="46.87248" lon="5.8103">
        <ele>496.8</ele>
        <time>2021-03-23T16:17:18Z</time>
      </trkpt>
      <trkpt lat="46.87242" lon="5.81032">
        <ele>496.2</ele>
        <time>2021-03-23T16:17:29Z</time>
      </trkpt>
      <trkpt lat="46.87236" lon="5.81035">
        <ele>496</ele>
        <time>2021-03-23T16:17:33Z</time>
      </trkpt>
      <trkpt lat="46.87229" lon="5.81035">
        <ele>495.7</ele>
        <time>2021-03-23T16:17:42Z</time>
      </trkpt>
      <trkpt lat="46.87223" lon="5.81036">
        <ele>495.6</ele>
        <time>2021-03-23T16:17:46Z</time>
      </trkpt>
      <trkpt lat="46.87217" lon="5.81037">
        <ele>495.5</ele>
        <time>2021-03-23T16:17:55Z</time>
      </trkpt>
      <trkpt lat="46.87212" lon="5.81038">
        <ele>495.4</ele>
        <time>2021-03-23T16:17:59Z</time>
      </trkpt>
      <trkpt lat="46.87206" lon="5.81042">
        <ele>495.2</ele>
        <time>2021-03-23T16:18:12Z</time>
      </trkpt>
      <trkpt lat="46.87201" lon="5.81047">
        <ele>495</ele>
        <time>2021-03-23T16:18:16Z</time>
      </trkpt>
      <trkpt lat="46.87196" lon="5.81049">
        <ele>494.8</ele>
        <time>2021-03-23T16:18:29Z</time>
      </trkpt>
      <trkpt lat="46.87188" lon="5.81051">
        <ele>494.7</ele>
        <time>2021-03-23T16:18:33Z</time>
      </trkpt>
      <trkpt lat="46.8718" lon="5.81052">
        <ele>494.7</ele>
        <time>2021-03-23T16:18:43Z</time>
      </trkpt>
      <trkpt lat="46.87174" lon="5.81052">
        <ele>494.8</ele>
        <time>2021-03-23T16:18:47Z</time>
      </trkpt>
      <trkpt lat="46.87168" lon="5.8105">
        <ele>494.8</ele>
        <time>2021-03-23T16:18:57Z</time>
      </trkpt>
      <trkpt lat="46.87162" lon="5.81048">
        <ele>494.6</ele>
        <time>2021-03-23T16:19:01Z</time>
      </trkpt>
      <trkpt lat="46.87156" lon="5.81046">
        <ele>494.2</ele>
        <time>2021-03-23T16:19:11Z</time>
      </trkpt>
      <trkpt lat="46.8715" lon="5.81046">
        <ele>494.2</ele>
        <time>2021-03-23T16:19:15Z</time>
      </trkpt>
      <trkpt lat="46.87144" lon="5.81043">
        <ele>494.8</ele>
        <time>2021-03-23T16:19:26Z</time>
      </trkpt>
      <trkpt lat="46.87139" lon="5.81041">
        <ele>495.6</ele>
        <time>2021-03-23T16:19:30Z</time>
      </trkpt>
      <trkpt lat="46.87133" lon="5.81037">
        <ele>497</ele>
        <time>2021-03-23T16:19:40Z</time>
      </trkpt>
      <trkpt lat="46.87128" lon="5.81035">
        <ele>498.1</ele>
        <time>2021-03-23T16:19:44Z</time>
      </trkpt>
      <trkpt lat="46.87122" lon="5.81032">
        <ele>499.9</ele>
        <time>2021-03-23T16:19:54Z</time>
      </trkpt>
      <trkpt lat="46.87117" lon="5.81031">
        <ele>500.9</ele>
        <time>2021-03-23T16:19:58Z</time>
      </trkpt>
      <trkpt lat="46.87111" lon="5.81031">
        <ele>502.8</ele>
        <time>2021-03-23T16:20:10Z</time>
      </trkpt>
      <trkpt lat="46.87106" lon="5.81032">
        <ele>503.8</ele>
        <time>2021-03-23T16:20:14Z</time>
      </trkpt>
      <trkpt lat="46.87101" lon="5.81037">
        <ele>505.6</ele>
        <time>2021-03-23T16:20:27Z</time>
      </trkpt>
      <trkpt lat="46.87096" lon="5.81044">
        <ele>506.6</ele>
        <time>2021-03-23T16:20:31Z</time>
      </trkpt>
      <trkpt lat="46.87093" lon="5.8105">
        <ele>507.8</ele>
        <time>2021-03-23T16:20:38Z</time>
      </trkpt>
      <trkpt lat="46.87091" lon="5.81056">
        <ele>508.2</ele>
        <time>2021-03-23T16:20:42Z</time>
      </trkpt>
      <trkpt lat="46.87086" lon="5.8106">
        <ele>508.9</ele>
        <time>2021-03-23T16:20:55Z</time>
      </trkpt>
      <trkpt lat="46.87082" lon="5.81064">
        <ele>509.2</ele>
        <time>2021-03-23T16:20:59Z</time>
      </trkpt>
      <trkpt lat="46.87076" lon="5.81069">
        <ele>509.8</ele>
        <time>2021-03-23T16:21:11Z</time>
      </trkpt>
      <trkpt lat="46.87071" lon="5.81072">
        <ele>510.3</ele>
        <time>2021-03-23T16:21:15Z</time>
      </trkpt>
      <trkpt lat="46.87065" lon="5.81075">
        <ele>511</ele>
        <time>2021-03-23T16:21:25Z</time>
      </trkpt>
      <trkpt lat="46.8706" lon="5.81078">
        <ele>511.3</ele>
        <time>2021-03-23T16:21:29Z</time>
      </trkpt>
      <trkpt lat="46.87055" lon="5.81081">
        <ele>511.8</ele>
        <time>2021-03-23T16:21:40Z</time>
      </trkpt>
      <trkpt lat="46.87049" lon="5.81084">
        <ele>512</ele>
        <time>2021-03-23T16:21:44Z</time>
      </trkpt>
      <trkpt lat="46.87043" lon="5.81086">
        <ele>512.4</ele>
        <time>2021-03-23T16:21:53Z</time>
      </trkpt>
      <trkpt lat="46.87037" lon="5.8109">
        <ele>512.5</ele>
        <time>2021-03-23T16:21:57Z</time>
      </trkpt>
      <trkpt lat="46.87032" lon="5.81094">
        <ele>513.3</ele>
        <time>2021-03-23T16:22:05Z</time>
      </trkpt>
      <trkpt lat="46.87027" lon="5.81099">
        <ele>514</ele>
        <time>2021-03-23T16:22:09Z</time>
      </trkpt>
      <trkpt lat="46.87022" lon="5.81103">
        <ele>514.8</ele>
        <time>2021-03-23T16:22:20Z</time>
      </trkpt>
      <trkpt lat="46.87016" lon="5.81107">
        <ele>515.5</ele>
        <time>2021-03-23T16:22:24Z</time>
      </trkpt>
      <trkpt lat="46.8701" lon="5.81112">
        <ele>516.2</ele>
        <time>2021-03-23T16:22:35Z</time>
      </trkpt>
      <trkpt lat="46.87006" lon="5.81116">
        <ele>516.3</ele>
        <time>2021-03-23T16:22:39Z</time>
      </trkpt>
      <trkpt lat="46.87001" lon="5.8112">
        <ele>516.5</ele>
        <time>2021-03-23T16:22:51Z</time>
      </trkpt>
      <trkpt lat="46.86996" lon="5.81124">
        <ele>516.7</ele>
        <time>2021-03-23T16:22:55Z</time>
      </trkpt>
      <trkpt lat="46.8699" lon="5.81127">
        <ele>516.8</ele>
        <time>2021-03-23T16:23:06Z</time>
      </trkpt>
      <trkpt lat="46.86985" lon="5.81128">
        <ele>516.8</ele>
        <time>2021-03-23T16:23:10Z</time>
      </trkpt>
      <trkpt lat="46.86972" lon="5.81131">
        <ele>520.3</ele>
        <time>2021-03-23T16:23:24Z</time>
      </trkpt>
      <trkpt lat="46.86962" lon="5.81133">
        <ele>523.7</ele>
        <time>2021-03-23T16:23:28Z</time>
      </trkpt>
      <trkpt lat="46.86956" lon="5.81133">
        <ele>528.3</ele>
        <time>2021-03-23T16:23:48Z</time>
      </trkpt>
      <trkpt lat="46.8695" lon="5.81133">
        <ele>528.5</ele>
        <time>2021-03-23T16:23:52Z</time>
      </trkpt>
      <trkpt lat="46.86945" lon="5.81136">
        <ele>528.9</ele>
        <time>2021-03-23T16:24:03Z</time>
      </trkpt>
      <trkpt lat="46.86938" lon="5.81138">
        <ele>529.1</ele>
        <time>2021-03-23T16:24:07Z</time>
      </trkpt>
      <trkpt lat="46.86932" lon="5.81138">
        <ele>529.3</ele>
        <time>2021-03-23T16:24:17Z</time>
      </trkpt>
      <trkpt lat="46.86927" lon="5.81138">
        <ele>529.3</ele>
        <time>2021-03-23T16:24:21Z</time>
      </trkpt>
      <trkpt lat="46.86921" lon="5.81137">
        <ele>529.5</ele>
        <time>2021-03-23T16:24:31Z</time>
      </trkpt>
      <trkpt lat="46.86915" lon="5.81136">
        <ele>529.6</ele>
        <time>2021-03-23T16:24:35Z</time>
      </trkpt>
      <trkpt lat="46.86909" lon="5.81135">
        <ele>529.9</ele>
        <time>2021-03-23T16:24:44Z</time>
      </trkpt>
      <trkpt lat="46.86903" lon="5.81136">
        <ele>530.2</ele>
        <time>2021-03-23T16:24:48Z</time>
      </trkpt>
      <trkpt lat="46.86897" lon="5.81139">
        <ele>531.1</ele>
        <time>2021-03-23T16:24:56Z</time>
      </trkpt>
      <trkpt lat="46.86891" lon="5.81142">
        <ele>531.9</ele>
        <time>2021-03-23T16:25:00Z</time>
      </trkpt>
      <trkpt lat="46.86885" lon="5.8114">
        <ele>533</ele>
        <time>2021-03-23T16:25:25Z</time>
      </trkpt>
      <trkpt lat="46.86881" lon="5.81138">
        <ele>533</ele>
        <time>2021-03-23T16:25:29Z</time>
      </trkpt>
      <trkpt lat="46.86874" lon="5.81133">
        <ele>532.8</ele>
        <time>2021-03-23T16:25:42Z</time>
      </trkpt>
      <trkpt lat="46.86866" lon="5.81127">
        <ele>532.6</ele>
        <time>2021-03-23T16:25:46Z</time>
      </trkpt>
      <trkpt lat="46.86863" lon="5.81116">
        <ele>530.5</ele>
        <time>2021-03-23T16:25:59Z</time>
      </trkpt>
      <trkpt lat="46.86859" lon="5.81103">
        <ele>526.4</ele>
        <time>2021-03-23T16:26:03Z</time>
      </trkpt>
      <trkpt lat="46.86854" lon="5.81094">
        <ele>522.7</ele>
        <time>2021-03-23T16:26:15Z</time>
      </trkpt>
      <trkpt lat="46.86848" lon="5.81085">
        <ele>523.6</ele>
        <time>2021-03-23T16:26:19Z</time>
      </trkpt>
      <trkpt lat="46.86843" lon="5.8108">
        <ele>525.4</ele>
        <time>2021-03-23T16:26:36Z</time>
      </trkpt>
      <trkpt lat="46.86834" lon="5.81072">
        <ele>526.6</ele>
        <time>2021-03-23T16:26:40Z</time>
      </trkpt>
      <trkpt lat="46.86826" lon="5.81057">
        <ele>529</ele>
        <time>2021-03-23T16:27:10Z</time>
      </trkpt>
      <trkpt lat="46.86821" lon="5.81045">
        <ele>529.8</ele>
        <time>2021-03-23T16:27:14Z</time>
      </trkpt>
      <trkpt lat="46.86815" lon="5.81034">
        <ele>529.9</ele>
        <time>2021-03-23T16:27:34Z</time>
      </trkpt>
      <trkpt lat="46.8681" lon="5.81026">
        <ele>529.2</ele>
        <time>2021-03-23T16:27:38Z</time>
      </trkpt>
      <trkpt lat="46.86805" lon="5.81024">
        <ele>529.4</ele>
        <time>2021-03-23T16:27:45Z</time>
      </trkpt>
      <trkpt lat="46.868" lon="5.81024">
        <ele>530.2</ele>
        <time>2021-03-23T16:27:49Z</time>
      </trkpt>
      <trkpt lat="46.86796" lon="5.81019">
        <ele>532.5</ele>
        <time>2021-03-23T16:28:00Z</time>
      </trkpt>
      <trkpt lat="46.86793" lon="5.81013">
        <ele>534.2</ele>
        <time>2021-03-23T16:28:05Z</time>
      </trkpt>
      <trkpt lat="46.8679" lon="5.81007">
        <ele>536.2</ele>
        <time>2021-03-23T16:28:12Z</time>
      </trkpt>
      <trkpt lat="46.86786" lon="5.81002">
        <ele>538</ele>
        <time>2021-03-23T16:28:16Z</time>
      </trkpt>
      <trkpt lat="46.8678" lon="5.81003">
        <ele>540</ele>
        <time>2021-03-23T16:28:27Z</time>
      </trkpt>
      <trkpt lat="46.86773" lon="5.81005">
        <ele>539.5</ele>
        <time>2021-03-23T16:28:31Z</time>
      </trkpt>
      <trkpt lat="46.86767" lon="5.81003">
        <ele>538.5</ele>
        <time>2021-03-23T16:28:43Z</time>
      </trkpt>
      <trkpt lat="46.8676" lon="5.81001">
        <ele>537.6</ele>
        <time>2021-03-23T16:28:47Z</time>
      </trkpt>
      <trkpt lat="46.86754" lon="5.80998">
        <ele>536.5</ele>
        <time>2021-03-23T16:28:59Z</time>
      </trkpt>
      <trkpt lat="46.86749" lon="5.80992">
        <ele>536</ele>
        <time>2021-03-23T16:29:03Z</time>
      </trkpt>
      <trkpt lat="46.86744" lon="5.80987">
        <ele>535.2</ele>
        <time>2021-03-23T16:29:14Z</time>
      </trkpt>
      <trkpt lat="46.86738" lon="5.80984">
        <ele>534.4</ele>
        <time>2021-03-23T16:29:18Z</time>
      </trkpt>
      <trkpt lat="46.8673" lon="5.80982">
        <ele>533.2</ele>
        <time>2021-03-23T16:29:49Z</time>
      </trkpt>
      <trkpt lat="46.86723" lon="5.80981">
        <ele>532.9</ele>
        <time>2021-03-23T16:29:53Z</time>
      </trkpt>
      <trkpt lat="46.86718" lon="5.80977">
        <ele>532.3</ele>
        <time>2021-03-23T16:30:09Z</time>
      </trkpt>
      <trkpt lat="46.86713" lon="5.80974">
        <ele>532.2</ele>
        <time>2021-03-23T16:30:13Z</time>
      </trkpt>
      <trkpt lat="46.86708" lon="5.8097">
        <ele>531.9</ele>
        <time>2021-03-23T16:30:26Z</time>
      </trkpt>
      <trkpt lat="46.867" lon="5.80968">
        <ele>531.9</ele>
        <time>2021-03-23T16:30:30Z</time>
      </trkpt>
      <trkpt lat="46.86692" lon="5.80969">
        <ele>531.9</ele>
        <time>2021-03-23T16:30:34Z</time>
      </trkpt>
      <trkpt lat="46.86687" lon="5.80976">
        <ele>532.4</ele>
        <time>2021-03-23T16:30:43Z</time>
      </trkpt>
      <trkpt lat="46.86683" lon="5.80985">
        <ele>534</ele>
        <time>2021-03-23T16:30:47Z</time>
      </trkpt>
      <trkpt lat="46.8668" lon="5.80991">
        <ele>535.7</ele>
        <time>2021-03-23T16:30:52Z</time>
      </trkpt>
    </trkseg>
  </trk>
</gpx>